[[{"header":{"parameterUnit":"m.s-1","parameterCategory":1,"la1":31.0,"la2":29.5877,"lo1":-88.7671,"lo2":-86.6584,"dy":0.0162,"dx":0.0185,"nx":115,"ny":88,"refTime":"2025-05-24T12:00:00:Z","depth":0,"parameterNumber":2,"parameterNumberName":"U-component_of_WINDS"},"data":[0.0,0.0,0.0,0.0,0.0,0.0,0.0,0.0,0.0,0.0,0.0,0.0,0.0,0.0,0.0,0.0,0.0,0.0,0.0,0.0,0.0,0.0,0.0,0.0,0.0,0.0,0.0,0.0,0.0,0.0,0.0,0.0,0.0,0.0,0.0,0.0,0.0,0.0,0.0,0.0,0.0,0.0,0.0,0.0,0.0,0.0,0.0,0.0,0.0,0.0,0.0,0.0,0.0,0.0,0.0,0.0,0.0,0.0,0.0,0.0,0.0,0.0,0.0,0.0,0.0,0.0,0.0,0.0,0.0,0.0,0.0,0.0,0.0,0.0,0.0,0.0,0.0,0.0,0.0,0.0,0.0,0.0,0.0,0.0,0.0,0.0,0.0,0.0,0.0,0.0,0.0,0.0,0.0,0.0,0.0,0.0,0.0,0.0,0.0,0.0,0.0,0.0,0.0,0.0,0.0,0.0,0.0,0.0,0.0,0.0,0.0,0.0,0.0,0.0,0.0,0.0,0.0,0.0,0.0,0.0,0.0,0.0,0.0,0.0,0.0,0.0,0.0,0.0,0.0,0.0,0.0,0.0,0.0,0.0,0.0,0.0,0.0,0.0,0.0,0.0,0.0,0.0,0.0,0.0,0.0,0.0,0.0,0.0,0.0,0.0,0.0,0.0,0.0,0.0,0.0,0.0,0.0,0.0,0.0,0.0,0.0,0.0,0.0,0.0,0.0,0.0,0.0,0.0,0.0,0.0,0.0,0.0,0.0,0.0,0.0,0.0,0.0,0.0,0.0,0.0,0.0,0.0,0.0,0.0,0.0,0.0,0.0,0.0,0.0,0.0,0.0,0.0,0.0,0.0,0.0,0.0,0.0,0.0,0.0,0.0,0.0,0.0,0.0,0.0,0.0,0.0,0.0,0.0,0.0,0.0,0.0,0.0,0.0,0.0,0.0,0.0,0.0,0.0,0.0,0.0,0.0,0.0,0.0,0.0,0.0,0.0,0.0,0.0,0.0,0.0,0.0,0.0,0.0,0.0,0.0,0.0,0.0,0.0,0.0,0.0,0.0,0.0,0.0,0.0,0.0,0.0,0.0,0.0,0.0,0.0,0.0,0.0,0.0,0.0,0.0,0.0,0.0,0.0,0.0,0.0,0.0,0.0,0.0,0.0,0.0,0.0,0.0,0.0,0.0,0.0,0.0,0.0,0.0,0.0,0.0,0.0,0.0,0.0,0.0,0.0,0.0,0.0,0.0,0.0,0.0,0.0,0.0,0.0,0.0,0.0,0.0,0.0,0.0,0.0,0.0,0.0,0.0,0.0,0.0,0.0,0.0,0.0,0.0,0.0,0.0,0.0,0.0,0.0,0.0,0.0,0.0,0.0,0.0,0.0,0.0,0.0,0.0,0.0,0.0,0.0,0.0,0.0,0.0,0.0,0.0,0.0,0.0,0.0,0.0,0.0,0.0,0.0,0.0,0.0,0.0,0.0,0.0,0.0,0.0,0.0,0.0,0.0,0.0,0.0,0.0,0.0,0.0,0.0,0.0,0.0,0.0,0.0,0.0,0.0,0.0,0.0,0.0,0.0,0.0,0.0,0.0,0.0,0.0,0.0,0.0,0.0,0.0,0.0,0.0,0.0,0.0,0.0,0.0,0.0,0.0,0.0,0.0,0.0,0.0,0.0,0.0,0.0,0.0,0.0,0.0,0.0,0.0,0.0,0.0,0.0,0.0,0.0,0.0,0.0,0.0,0.0,0.0,0.0,0.0,0.0,0.0,0.0,0.0,0.0,0.0,0.0,0.0,0.0,0.0,0.0,0.0,0.0,0.0,0.0,0.0,0.0,0.0,0.0,0.0,0.0,0.0,0.0,0.0,0.0,0.0,0.0,0.0,0.0,0.0,0.0,0.0,0.0,0.0,0.0,0.0,0.0,0.0,0.0,0.0,0.0,0.0,0.0,0.0,0.0,0.0,0.0,0.0,0.0,0.0,0.0,0.0,0.0,0.0,0.0,0.0,0.0,0.0,0.0,0.0,0.0,0.0,0.0,0.0,0.0,0.0,0.0,0.0,0.0,0.0,0.0,0.0,0.0,0.0,0.0,0.0,0.0,0.0,0.0,0.0,0.0,0.0,0.0,0.0,0.0,0.0,0.0,0.0,0.0,0.0,0.0,0.0,0.0,0.0,0.0,0.0,0.0,0.0,0.0,0.0,0.0,0.0,0.0,0.0,0.0,0.0,0.0,0.0,0.0,0.0,0.0,0.0,0.0,0.0,0.0,0.0,0.0,0.0,0.0,0.0,0.0,0.0,0.0,0.0,0.0,0.0,0.0,0.0,0.0,0.0,0.0,0.0,0.0,0.0,0.0,0.0,0.0,0.0,0.0,0.0,0.0,0.0,0.0,0.0,0.0,0.0,0.0,0.0,0.0,0.0,0.0,0.0,0.0,0.0,0.0,0.0,0.0,0.0,0.0,0.0,0.0,0.0,0.0,0.0,0.0,0.0,0.0,0.0,0.0,0.0,0.0,0.0,0.0,0.0,0.0,0.0,0.0,0.0,0.0,0.0,0.0,0.0,0.0,0.0,0.0,0.0,0.0,0.0,0.0,0.0,0.0,0.0,0.0,0.0,0.0,0.0,0.0,0.0,0.0,0.0,0.0,0.0,0.0,0.0,0.0,0.0,0.0,0.0,0.0,0.0,0.0,0.0,0.0,0.0,0.0,0.0,0.0,0.0,0.0,0.0,0.0,0.0,0.0,0.0,0.0,0.0,0.0,0.0,0.0,0.0,0.0,0.0,0.0,0.0,0.0,0.0,0.0,0.0,0.0,0.0,0.0,0.0,0.0,0.0,0.0,0.0,0.0,0.0,0.0,0.0,0.0,0.0,0.0,0.0,0.0,0.0,0.0,0.0,0.0,0.0,0.0,0.0,0.0,0.0,0.0,0.0,0.0,0.0,0.0,0.0,0.0,0.0,0.0,0.0,0.0,0.0,0.0,0.0,0.0,0.0,0.0,0.0,0.0,0.0,0.0,0.0,0.0,0.0,0.0,0.0,0.0,0.0,0.0,0.0,0.0,0.0,0.0,0.0,0.0,0.0,0.0,0.0,0.0,0.0,0.0,0.0,0.0,0.0,0.0,0.0,0.0,0.0,0.0,0.0,0.0,0.0,0.0,0.0,0.0,0.0,0.0,0.0,0.0,0.0,0.0,0.0,0.0,0.0,0.0,0.0,0.0,0.0,0.0,0.0,0.0,0.0,0.0,0.0,0.0,0.0,0.0,0.0,0.0,0.0,0.0,0.0,0.0,0.0,0.0,0.0,0.0,0.0,0.0,0.0,0.0,0.0,0.0,0.0,0.0,0.0,0.0,0.0,0.0,0.0,0.0,0.0,0.0,0.0,0.0,0.0,0.0,0.0,0.0,0.0,0.0,0.0,0.0,0.0,0.0,0.0,0.0,0.0,0.0,0.0,0.0,0.0,0.0,0.0,0.0,0.0,0.0,0.0,0.0,0.0,0.0,0.0,0.0,0.0,0.0,0.0,0.0,0.0,0.0,0.0,0.0,0.0,0.0,0.0,0.0,0.0,0.0,0.0,0.0,0.0,0.0,0.0,0.0,0.0,0.0,0.0,0.0,0.0,0.0,0.0,0.0,0.0,0.0,0.0,0.0,0.0,0.0,0.0,0.0,0.0,0.0,0.0,0.0,0.0,0.0,0.0,0.0,0.0,0.0,0.0,0.0,0.0,0.0,0.0,0.0,0.0,0.0,0.0,0.0,0.0,0.0,0.0,0.0,0.0,0.0,0.0,0.0,0.0,0.0,0.0,0.0,0.0,0.0,0.0,0.0,0.0,0.0,0.0,0.0,0.0,0.0,0.0,0.0,0.0,0.0,0.0,0.0,0.0,0.0,0.0,0.0,0.0,0.0,0.0,0.0,0.0,0.0,0.0,0.0,0.0,0.0,0.0,0.0,0.0,0.0,0.0,0.0,0.0,0.0,0.0,0.0,0.0,0.0,0.0,0.0,0.0,0.0,0.0,0.0,0.0,0.0,0.0,0.0,0.0,0.0,0.0,0.0,0.0,0.0,0.0,0.0,0.0,0.0,0.0,0.0,0.0,0.0,0.0,0.0,0.0,0.0,0.0,0.0,0.0,0.0,0.0,0.0,0.0,0.0,0.0,0.0,0.0,0.0,0.0,0.0,0.0,0.0,0.0,0.0,0.0,0.0,0.0,0.0,0.0,0.0,0.0,0.0,0.0,0.0,-5.3689,0.0,0.0,0.0,-5.0831,0.0,0.0,0.0,0.0,0.0,0.0,0.0,0.0,0.0,0.0,0.0,0.0,0.0,0.0,0.0,0.0,0.0,0.0,0.0,0.0,0.0,0.0,0.0,0.0,0.0,0.0,0.0,0.0,0.0,0.0,0.0,0.0,0.0,0.0,0.0,0.0,0.0,0.0,0.0,0.0,0.0,0.0,0.0,0.0,0.0,0.0,0.0,0.0,0.0,0.0,0.0,0.0,0.0,0.0,0.0,0.0,0.0,0.0,0.0,0.0,0.0,0.0,0.0,0.0,0.0,0.0,0.0,0.0,0.0,0.0,0.0,0.0,0.0,0.0,0.0,0.0,0.0,0.0,0.0,0.0,0.0,0.0,0.0,0.0,0.0,0.0,0.0,0.0,0.0,0.0,0.0,0.0,0.0,0.0,0.0,0.0,0.0,0.0,0.0,0.0,0.0,0.0,0.0,0.0,0.0,0.0,0.0,0.0,0.0,0.0,-5.4616,-5.4539,-5.412,-5.3197,-5.1726,0.0,0.0,0.0,0.0,0.0,0.0,0.0,0.0,0.0,0.0,0.0,0.0,0.0,0.0,0.0,0.0,0.0,0.0,0.0,0.0,0.0,0.0,0.0,0.0,0.0,0.0,0.0,0.0,0.0,0.0,0.0,0.0,0.0,0.0,0.0,0.0,0.0,0.0,0.0,0.0,0.0,0.0,0.0,0.0,0.0,0.0,0.0,0.0,0.0,0.0,0.0,0.0,0.0,0.0,0.0,0.0,0.0,0.0,0.0,0.0,0.0,0.0,0.0,0.0,0.0,0.0,0.0,0.0,0.0,0.0,0.0,0.0,0.0,0.0,0.0,0.0,0.0,0.0,0.0,0.0,0.0,0.0,0.0,0.0,0.0,0.0,0.0,0.0,0.0,0.0,0.0,0.0,0.0,0.0,0.0,0.0,0.0,0.0,0.0,0.0,0.0,0.0,0.0,0.0,0.0,0.0,0.0,0.0,0.0,0.0,0.0,0.0,-5.5247,-5.4016,-5.1751,0.0,0.0,0.0,0.0,0.0,0.0,0.0,0.0,0.0,0.0,0.0,0.0,0.0,0.0,0.0,0.0,0.0,0.0,0.0,0.0,0.0,0.0,0.0,0.0,0.0,0.0,0.0,0.0,0.0,0.0,0.0,0.0,0.0,0.0,0.0,0.0,0.0,0.0,0.0,0.0,0.0,0.0,0.0,0.0,0.0,0.0,0.0,0.0,0.0,0.0,0.0,0.0,0.0,0.0,0.0,0.0,0.0,0.0,0.0,0.0,0.0,0.0,0.0,0.0,0.0,0.0,0.0,0.0,0.0,0.0,0.0,0.0,0.0,0.0,0.0,0.0,0.0,0.0,0.0,0.0,0.0,0.0,0.0,0.0,0.0,0.0,0.0,0.0,0.0,0.0,0.0,0.0,0.0,0.0,0.0,0.0,0.0,0.0,0.0,0.0,0.0,0.0,0.0,0.0,0.0,0.0,0.0,0.0,0.0,0.0,-5.6395,-5.6369,-5.5544,0.0,-5.0086,0.0,0.0,0.0,0.0,0.0,0.0,0.0,0.0,0.0,0.0,0.0,0.0,0.0,0.0,0.0,0.0,0.0,0.0,0.0,0.0,0.0,0.0,0.0,0.0,0.0,0.0,0.0,0.0,0.0,0.0,0.0,0.0,0.0,0.0,0.0,0.0,0.0,0.0,0.0,0.0,0.0,0.0,0.0,0.0,0.0,0.0,0.0,0.0,0.0,0.0,0.0,0.0,0.0,0.0,0.0,0.0,0.0,0.0,0.0,0.0,0.0,0.0,0.0,0.0,0.0,0.0,0.0,0.0,0.0,0.0,0.0,0.0,0.0,0.0,0.0,0.0,0.0,0.0,0.0,0.0,0.0,0.0,0.0,0.0,0.0,0.0,0.0,0.0,0.0,0.0,0.0,0.0,0.0,0.0,0.0,0.0,0.0,0.0,0.0,0.0,0.0,0.0,0.0,0.0,0.0,0.0,0.0,0.0,0.0,0.0,-5.7306,-5.7274,-5.5825,-5.3598,0.0,0.0,0.0,0.0,0.0,0.0,0.0,0.0,0.0,0.0,0.0,0.0,0.0,0.0,0.0,0.0,0.0,0.0,0.0,0.0,0.0,0.0,0.0,0.0,0.0,0.0,0.0,0.0,0.0,0.0,0.0,0.0,0.0,0.0,0.0,0.0,0.0,0.0,0.0,0.0,0.0,0.0,0.0,0.0,0.0,0.0,0.0,0.0,0.0,0.0,0.0,0.0,0.0,0.0,0.0,0.0,0.0,0.0,0.0,0.0,0.0,0.0,0.0,0.0,0.0,0.0,0.0,0.0,0.0,0.0,0.0,0.0,0.0,0.0,0.0,0.0,0.0,0.0,0.0,0.0,0.0,0.0,0.0,0.0,0.0,0.0,0.0,0.0,0.0,0.0,0.0,0.0,0.0,0.0,0.0,0.0,0.0,0.0,0.0,0.0,0.0,0.0,0.0,0.0,0.0,0.0,0.0,0.0,0.0,0.0,-5.7458,-5.7859,-5.7721,-5.5762,-5.3629,-5.1428,0.0,0.0,0.0,0.0,0.0,0.0,0.0,0.0,0.0,0.0,0.0,0.0,0.0,0.0,0.0,0.0,0.0,0.0,0.0,0.0,0.0,0.0,0.0,0.0,0.0,0.0,0.0,0.0,0.0,0.0,0.0,0.0,0.0,0.0,0.0,0.0,0.0,0.0,0.0,0.0,0.0,0.0,0.0,0.0,0.0,0.0,0.0,0.0,0.0,0.0,0.0,0.0,0.0,0.0,0.0,0.0,0.0,0.0,0.0,0.0,0.0,0.0,0.0,0.0,0.0,0.0,0.0,0.0,0.0,0.0,0.0,0.0,0.0,0.0,0.0,0.0,0.0,0.0,0.0,0.0,0.0,0.0,0.0,0.0,0.0,0.0,0.0,0.0,0.0,0.0,0.0,0.0,0.0,0.0,0.0,0.0,0.0,0.0,0.0,0.0,0.0,0.0,0.0,0.0,0.0,0.0,0.0,0.0,-5.6582,-5.746,-5.7856,-5.7762,-5.5243,-5.3347,0.0,0.0,0.0,0.0,0.0,0.0,0.0,0.0,0.0,0.0,0.0,0.0,0.0,0.0,0.0,0.0,0.0,0.0,0.0,0.0,0.0,0.0,0.0,0.0,0.0,0.0,0.0,0.0,0.0,0.0,0.0,0.0,0.0,0.0,0.0,0.0,0.0,0.0,0.0,0.0,0.0,0.0,0.0,0.0,0.0,0.0,0.0,0.0,0.0,0.0,0.0,0.0,0.0,0.0,0.0,0.0,0.0,0.0,0.0,0.0,0.0,0.0,0.0,0.0,0.0,0.0,0.0,0.0,0.0,0.0,0.0,0.0,0.0,0.0,0.0,0.0,0.0,0.0,0.0,0.0,0.0,0.0,0.0,0.0,0.0,0.0,0.0,0.0,0.0,0.0,0.0,0.0,0.0,0.0,0.0,0.0,0.0,0.0,0.0,0.0,0.0,0.0,0.0,0.0,0.0,0.0,0.0,0.0,0.0,-5.6621,-5.7439,-5.7871,-5.7736,-5.5743,-5.3919,0.0,0.0,0.0,0.0,0.0,0.0,0.0,0.0,0.0,0.0,0.0,0.0,0.0,0.0,0.0,0.0,0.0,0.0,0.0,0.0,0.0,0.0,0.0,0.0,0.0,0.0,0.0,0.0,0.0,0.0,0.0,0.0,0.0,0.0,0.0,0.0,0.0,0.0,0.0,0.0,0.0,0.0,0.0,0.0,0.0,0.0,0.0,0.0,0.0,0.0,0.0,0.0,0.0,0.0,0.0,0.0,0.0,0.0,0.0,0.0,0.0,0.0,0.0,0.0,0.0,0.0,0.0,0.0,0.0,0.0,0.0,0.0,0.0,0.0,0.0,0.0,0.0,0.0,0.0,0.0,0.0,0.0,0.0,0.0,0.0,0.0,0.0,0.0,0.0,0.0,0.0,0.0,0.0,0.0,0.0,0.0,0.0,0.0,0.0,0.0,0.0,0.0,0.0,0.0,0.0,0.0,0.0,0.0,0.0,-5.7031,0.0,-5.7581,-5.7732,-5.579,-5.411,0.0,0.0,0.0,0.0,0.0,0.0,0.0,0.0,0.0,0.0,0.0,0.0,0.0,0.0,0.0,0.0,0.0,0.0,0.0,0.0,0.0,0.0,0.0,0.0,0.0,0.0,0.0,0.0,0.0,0.0,0.0,0.0,0.0,0.0,0.0,0.0,0.0,0.0,0.0,0.0,0.0,0.0,0.0,0.0,0.0,0.0,0.0,0.0,0.0,0.0,0.0,0.0,0.0,0.0,0.0,0.0,0.0,0.0,0.0,0.0,0.0,0.0,0.0,0.0,0.0,0.0,0.0,0.0,0.0,0.0,0.0,0.0,0.0,0.0,0.0,0.0,0.0,0.0,0.0,0.0,0.0,0.0,0.0,0.0,0.0,0.0,0.0,0.0,0.0,0.0,0.0,0.0,0.0,0.0,0.0,0.0,0.0,0.0,0.0,0.0,0.0,0.0,0.0,0.0,0.0,0.0,0.0,0.0,-5.6992,-5.7793,-5.705,-5.7003,-5.7682,-5.5301,-5.3879,0.0,0.0,0.0,0.0,0.0,0.0,0.0,0.0,0.0,0.0,0.0,0.0,0.0,0.0,0.0,0.0,0.0,0.0,0.0,0.0,0.0,0.0,0.0,0.0,0.0,0.0,0.0,0.0,0.0,0.0,0.0,0.0,0.0,0.0,0.0,0.0,0.0,0.0,0.0,0.0,0.0,0.0,0.0,0.0,0.0,0.0,0.0,0.0,0.0,0.0,0.0,0.0,0.0,0.0,0.0,0.0,0.0,0.0,0.0,0.0,0.0,0.0,0.0,0.0,0.0,0.0,0.0,0.0,0.0,0.0,0.0,0.0,0.0,0.0,0.0,0.0,0.0,0.0,0.0,0.0,0.0,0.0,0.0,0.0,0.0,0.0,0.0,0.0,0.0,0.0,0.0,0.0,0.0,0.0,0.0,0.0,0.0,0.0,0.0,0.0,0.0,0.0,0.0,0.0,0.0,0.0,0.0,0.0,0.0,-5.6992,-5.6737,-5.6692,-5.6852,-5.5499,-5.4394,0.0,0.0,0.0,0.0,0.0,0.0,0.0,0.0,0.0,0.0,0.0,0.0,0.0,0.0,0.0,0.0,0.0,0.0,0.0,0.0,0.0,0.0,0.0,0.0,0.0,0.0,0.0,0.0,0.0,0.0,0.0,0.0,0.0,0.0,0.0,0.0,0.0,0.0,0.0,0.0,0.0,0.0,0.0,0.0,0.0,0.0,0.0,0.0,0.0,0.0,0.0,0.0,0.0,0.0,0.0,0.0,0.0,0.0,0.0,0.0,0.0,0.0,0.0,0.0,0.0,0.0,0.0,0.0,0.0,0.0,0.0,0.0,0.0,0.0,0.0,0.0,0.0,0.0,0.0,0.0,0.0,0.0,0.0,0.0,0.0,0.0,0.0,0.0,0.0,0.0,0.0,0.0,0.0,0.0,0.0,0.0,0.0,0.0,0.0,0.0,0.0,0.0,0.0,0.0,0.0,0.0,0.0,0.0,0.0,-5.707,-5.7089,-5.7066,-5.6973,-5.6099,-5.5042,-5.3744,0.0,0.0,0.0,0.0,0.0,0.0,0.0,0.0,0.0,0.0,0.0,0.0,0.0,0.0,0.0,0.0,0.0,0.0,0.0,0.0,0.0,0.0,0.0,0.0,0.0,0.0,0.0,0.0,0.0,0.0,0.0,0.0,0.0,0.0,0.0,0.0,0.0,0.0,0.0,0.0,0.0,0.0,0.0,0.0,0.0,0.0,0.0,0.0,0.0,0.0,0.0,0.0,0.0,0.0,0.0,0.0,0.0,0.0,0.0,0.0,0.0,0.0,0.0,0.0,0.0,0.0,0.0,0.0,0.0,0.0,0.0,0.0,0.0,0.0,0.0,0.0,0.0,0.0,0.0,0.0,0.0,0.0,0.0,0.0,0.0,0.0,0.0,0.0,0.0,0.0,0.0,0.0,0.0,0.0,0.0,0.0,0.0,0.0,0.0,0.0,0.0,0.0,0.0,0.0,0.0,0.0,0.0,0.0,-5.7949,-5.8027,-5.7966,-5.7794,-5.6994,-5.5698,0.0,0.0,0.0,0.0,0.0,0.0,0.0,0.0,0.0,0.0,0.0,0.0,0.0,0.0,0.0,0.0,0.0,0.0,0.0,0.0,0.0,0.0,0.0,0.0,0.0,0.0,0.0,0.0,0.0,0.0,0.0,0.0,0.0,0.0,0.0,0.0,0.0,0.0,0.0,0.0,0.0,0.0,0.0,0.0,0.0,0.0,0.0,0.0,0.0,0.0,0.0,0.0,0.0,0.0,0.0,0.0,0.0,0.0,0.0,0.0,0.0,0.0,0.0,0.0,0.0,0.0,0.0,0.0,0.0,0.0,0.0,0.0,0.0,0.0,0.0,0.0,0.0,0.0,0.0,0.0,0.0,0.0,0.0,0.0,0.0,0.0,0.0,0.0,0.0,0.0,0.0,0.0,0.0,0.0,0.0,0.0,0.0,0.0,0.0,0.0,0.0,0.0,0.0,0.0,0.0,0.0,0.0,0.0,0.0,-5.8828,-5.9433,-5.9159,-5.7918,-5.7601,-5.6306,0.0,0.0,0.0,0.0,0.0,0.0,0.0,0.0,0.0,0.0,0.0,0.0,0.0,0.0,0.0,0.0,0.0,0.0,0.0,0.0,0.0,0.0,0.0,0.0,0.0,0.0,0.0,0.0,0.0,0.0,0.0,0.0,0.0,0.0,0.0,0.0,0.0,0.0,0.0,0.0,0.0,0.0,0.0,0.0,0.0,0.0,0.0,0.0,0.0,0.0,0.0,0.0,0.0,0.0,0.0,0.0,0.0,0.0,0.0,0.0,0.0,0.0,0.0,0.0,0.0,0.0,0.0,0.0,0.0,0.0,0.0,0.0,0.0,0.0,0.0,0.0,0.0,0.0,0.0,0.0,0.0,0.0,0.0,0.0,0.0,0.0,0.0,0.0,0.0,0.0,0.0,0.0,0.0,0.0,0.0,0.0,0.0,0.0,0.0,0.0,0.0,0.0,0.0,0.0,0.0,0.0,0.0,0.0,-5.8301,-5.918,-5.998,-5.9784,-5.8491,-5.8371,-5.7082,0.0,0.0,0.0,0.0,0.0,0.0,0.0,0.0,0.0,0.0,0.0,0.0,0.0,0.0,0.0,0.0,0.0,0.0,0.0,0.0,0.0,0.0,0.0,0.0,0.0,0.0,0.0,0.0,0.0,0.0,0.0,0.0,0.0,0.0,0.0,0.0,0.0,0.0,0.0,0.0,0.0,0.0,0.0,0.0,0.0,0.0,0.0,0.0,0.0,0.0,0.0,0.0,0.0,0.0,0.0,0.0,0.0,0.0,0.0,0.0,0.0,0.0,0.0,0.0,0.0,0.0,0.0,0.0,0.0,0.0,0.0,0.0,0.0,0.0,0.0,0.0,0.0,0.0,0.0,0.0,0.0,0.0,0.0,0.0,0.0,0.0,0.0,0.0,0.0,0.0,0.0,0.0,0.0,0.0,0.0,0.0,0.0,0.0,0.0,0.0,0.0,0.0,0.0,0.0,0.0,0.0,0.0,0.0,-5.8437,-5.9316,-6.0117,-6.0117,-5.9256,-5.9123,-5.7843,0.0,0.0,0.0,0.0,0.0,0.0,0.0,0.0,0.0,0.0,0.0,0.0,0.0,0.0,0.0,0.0,0.0,0.0,0.0,0.0,0.0,0.0,0.0,0.0,0.0,0.0,0.0,0.0,0.0,0.0,0.0,0.0,0.0,0.0,0.0,0.0,0.0,0.0,0.0,0.0,0.0,0.0,0.0,0.0,0.0,0.0,0.0,0.0,0.0,0.0,0.0,0.0,0.0,0.0,0.0,0.0,0.0,0.0,0.0,0.0,0.0,0.0,0.0,0.0,0.0,0.0,0.0,0.0,0.0,0.0,0.0,0.0,0.0,0.0,0.0,0.0,0.0,0.0,0.0,0.0,0.0,0.0,0.0,0.0,0.0,0.0,0.0,0.0,0.0,0.0,0.0,0.0,0.0,0.0,0.0,0.0,0.0,0.0,0.0,0.0,0.0,0.0,0.0,0.0,0.0,0.0,0.0,0.0,-5.9336,-6.0137,-6.0996,-6.0703,-5.9238,-5.915,-5.7855,0.0,0.0,0.0,0.0,0.0,0.0,0.0,0.0,0.0,0.0,0.0,0.0,0.0,0.0,0.0,0.0,0.0,0.0,0.0,0.0,0.0,0.0,0.0,0.0,0.0,0.0,0.0,0.0,0.0,0.0,0.0,0.0,0.0,0.0,0.0,0.0,0.0,0.0,0.0,0.0,0.0,0.0,0.0,0.0,0.0,0.0,0.0,0.0,-5.6285,0.0,0.0,0.0,0.0,0.0,0.0,0.0,0.0,0.0,0.0,0.0,0.0,0.0,0.0,0.0,0.0,0.0,0.0,0.0,0.0,0.0,0.0,0.0,0.0,0.0,0.0,0.0,0.0,0.0,0.0,0.0,0.0,0.0,0.0,0.0,0.0,0.0,0.0,0.0,0.0,0.0,0.0,0.0,0.0,0.0,0.0,0.0,0.0,0.0,0.0,0.0,0.0,0.0,0.0,0.0,0.0,0.0,0.0,0.0,-5.9414,-5.9844,-6.0644,-6.0488,-5.9258,-5.8766,-5.7697,0.0,0.0,0.0,0.0,0.0,0.0,0.0,0.0,0.0,0.0,0.0,0.0,0.0,0.0,0.0,0.0,0.0,0.0,0.0,0.0,0.0,0.0,0.0,0.0,0.0,0.0,0.0,0.0,0.0,0.0,0.0,0.0,0.0,0.0,0.0,0.0,0.0,0.0,0.0,0.0,0.0,0.0,0.0,0.0,0.0,0.0,0.0,0.0,0.0,0.0,0.0,0.0,0.0,0.0,0.0,0.0,0.0,0.0,0.0,0.0,0.0,0.0,0.0,0.0,0.0,0.0,0.0,0.0,0.0,0.0,0.0,0.0,0.0,0.0,0.0,0.0,0.0,0.0,0.0,0.0,0.0,0.0,0.0,0.0,0.0,0.0,0.0,0.0,0.0,0.0,0.0,0.0,0.0,0.0,0.0,0.0,0.0,0.0,0.0,0.0,0.0,0.0,0.0,0.0,0.0,0.0,0.0,-5.8379,-5.9199,-5.9219,-6.0,-5.9961,-5.9023,-5.83,-5.7455,-5.6536,0.0,0.0,0.0,0.0,0.0,0.0,0.0,0.0,0.0,0.0,0.0,0.0,0.0,0.0,0.0,0.0,0.0,0.0,0.0,0.0,0.0,0.0,0.0,0.0,0.0,0.0,0.0,0.0,0.0,0.0,0.0,0.0,0.0,0.0,0.0,0.0,0.0,0.0,-5.1649,-5.3174,0.0,0.0,0.0,0.0,0.0,0.0,0.0,0.0,-5.6619,0.0,0.0,0.0,0.0,0.0,0.0,0.0,0.0,0.0,0.0,0.0,0.0,0.0,0.0,0.0,0.0,0.0,0.0,0.0,0.0,0.0,0.0,0.0,0.0,0.0,0.0,0.0,0.0,0.0,0.0,0.0,0.0,0.0,0.0,0.0,0.0,0.0,0.0,0.0,0.0,0.0,0.0,0.0,0.0,0.0,0.0,0.0,0.0,0.0,0.0,0.0,0.0,0.0,0.0,0.0,0.0,-5.7695,-5.8672,-5.9199,-5.9219,-5.998,-5.9668,-5.8183,-5.7988,-5.748,-5.6577,0.0,0.0,0.0,0.0,0.0,0.0,0.0,0.0,0.0,0.0,0.0,0.0,0.0,0.0,0.0,0.0,0.0,0.0,0.0,0.0,0.0,0.0,0.0,0.0,0.0,0.0,0.0,0.0,0.0,0.0,0.0,0.0,0.0,0.0,0.0,0.0,0.0,0.0,0.0,-5.4452,-5.5453,0.0,0.0,0.0,0.0,0.0,0.0,0.0,0.0,-5.6601,0.0,0.0,0.0,0.0,0.0,0.0,0.0,0.0,0.0,0.0,0.0,0.0,0.0,0.0,0.0,0.0,0.0,0.0,0.0,0.0,0.0,0.0,0.0,0.0,0.0,0.0,0.0,0.0,0.0,0.0,0.0,0.0,0.0,0.0,0.0,0.0,0.0,0.0,0.0,0.0,0.0,0.0,0.0,0.0,0.0,0.0,0.0,0.0,0.0,0.0,0.0,0.0,0.0,0.0,0.0,-5.7207,-5.8086,-5.8535,-5.8535,-5.8906,-5.873,-5.793,-5.7031,-5.6347,0.0,0.0,0.0,0.0,0.0,0.0,0.0,0.0,0.0,0.0,0.0,0.0,0.0,0.0,0.0,0.0,0.0,0.0,0.0,0.0,0.0,0.0,0.0,0.0,0.0,0.0,0.0,0.0,0.0,0.0,0.0,0.0,0.0,0.0,0.0,0.0,0.0,0.0,0.0,0.0,-5.4738,-5.5618,-5.6477,0.0,0.0,0.0,0.0,0.0,0.0,-5.662,-5.6621,0.0,0.0,0.0,0.0,0.0,0.0,0.0,0.0,0.0,0.0,0.0,0.0,0.0,0.0,0.0,0.0,0.0,0.0,0.0,0.0,0.0,0.0,0.0,0.0,0.0,0.0,0.0,0.0,0.0,0.0,0.0,0.0,0.0,0.0,0.0,0.0,0.0,0.0,0.0,0.0,0.0,0.0,0.0,0.0,0.0,0.0,0.0,0.0,0.0,0.0,0.0,0.0,0.0,0.0,0.0,-5.6348,-5.7363,-5.7812,-5.7656,-5.7793,-5.7734,-5.7363,-5.6035,-5.5215,0.0,0.0,0.0,0.0,0.0,0.0,0.0,0.0,0.0,0.0,0.0,0.0,0.0,0.0,0.0,0.0,0.0,0.0,0.0,0.0,0.0,0.0,0.0,0.0,0.0,0.0,0.0,0.0,0.0,0.0,0.0,0.0,0.0,0.0,0.0,0.0,0.0,0.0,0.0,0.0,0.0,-5.5825,-5.6508,-5.6612,0.0,0.0,0.0,0.0,-5.6612,-5.6616,0.0,0.0,0.0,0.0,0.0,0.0,0.0,0.0,0.0,0.0,0.0,0.0,0.0,0.0,0.0,0.0,0.0,0.0,0.0,0.0,0.0,0.0,0.0,0.0,0.0,0.0,0.0,0.0,0.0,0.0,0.0,0.0,0.0,0.0,0.0,0.0,0.0,0.0,0.0,0.0,0.0,0.0,0.0,0.0,0.0,0.0,0.0,0.0,0.0,0.0,0.0,0.0,0.0,0.0,0.0,0.0,-5.5508,-5.707,-5.7539,-5.6836,-5.748,-5.7168,-5.5664,-5.541,-5.4941,0.0,0.0,0.0,0.0,0.0,0.0,0.0,0.0,0.0,0.0,0.0,0.0,0.0,0.0,0.0,0.0,0.0,0.0,0.0,0.0,0.0,0.0,0.0,0.0,0.0,0.0,0.0,0.0,0.0,0.0,0.0,0.0,0.0,0.0,0.0,0.0,0.0,0.0,0.0,0.0,0.0,-5.6489,-5.6586,-5.6606,-5.661,0.0,0.0,-5.6605,-5.6611,-5.6612,0.0,0.0,0.0,0.0,0.0,0.0,0.0,0.0,0.0,0.0,0.0,0.0,0.0,0.0,0.0,0.0,0.0,0.0,0.0,0.0,0.0,0.0,0.0,0.0,0.0,0.0,0.0,0.0,0.0,0.0,0.0,0.0,0.0,0.0,0.0,0.0,0.0,0.0,0.0,0.0,0.0,0.0,0.0,0.0,0.0,0.0,0.0,0.0,0.0,0.0,0.0,0.0,0.0,0.0,0.0,-5.4062,-5.459,-5.5801,-5.625,-5.5879,-5.623,-5.6055,-5.5332,-5.4336,-5.3652,0.0,0.0,0.0,0.0,0.0,0.0,0.0,0.0,0.0,0.0,0.0,0.0,0.0,0.0,0.0,0.0,0.0,0.0,0.0,0.0,0.0,0.0,0.0,0.0,0.0,0.0,0.0,0.0,0.0,0.0,0.0,0.0,0.0,0.0,0.0,0.0,0.0,0.0,0.0,0.0,0.0,0.0,-5.6604,-5.6604,0.0,0.0,0.0,-5.6614,-5.6618,0.0,0.0,0.0,0.0,0.0,0.0,0.0,0.0,0.0,0.0,0.0,0.0,0.0,0.0,0.0,0.0,0.0,0.0,0.0,0.0,0.0,0.0,0.0,0.0,0.0,0.0,0.0,0.0,0.0,0.0,0.0,0.0,0.0,0.0,0.0,0.0,0.0,0.0,0.0,0.0,0.0,0.0,0.0,0.0,0.0,0.0,0.0,0.0,0.0,0.0,0.0,0.0,0.0,0.0,0.0,0.0,0.0,-5.3672,-5.4531,-5.498,-5.498,-5.4961,-5.4883,-5.4629,-5.3379,0.0,0.0,0.0,0.0,0.0,0.0,0.0,0.0,0.0,0.0,0.0,0.0,0.0,0.0,0.0,0.0,0.0,0.0,0.0,0.0,0.0,0.0,0.0,0.0,0.0,0.0,0.0,-4.8229,0.0,0.0,0.0,0.0,0.0,0.0,0.0,0.0,0.0,0.0,0.0,0.0,0.0,0.0,-5.6604,-5.6604,-5.6604,-5.6604,0.0,0.0,-5.6528,-5.6313,-5.5736,-5.5233,0.0,0.0,0.0,0.0,0.0,0.0,0.0,0.0,0.0,0.0,0.0,0.0,0.0,0.0,0.0,0.0,0.0,0.0,0.0,0.0,0.0,0.0,0.0,0.0,0.0,0.0,0.0,0.0,0.0,0.0,0.0,0.0,0.0,0.0,0.0,0.0,0.0,0.0,0.0,0.0,0.0,0.0,0.0,0.0,0.0,0.0,0.0,0.0,0.0,0.0,0.0,0.0,0.0,0.0,-5.2713,-5.2811,-5.3651,-5.4081,-5.41,-5.4101,-5.3691,-5.291,-5.2773,-5.2305,0.0,0.0,0.0,0.0,0.0,0.0,0.0,0.0,0.0,0.0,0.0,0.0,0.0,0.0,0.0,0.0,0.0,0.0,0.0,0.0,0.0,0.0,0.0,0.0,0.0,0.0,0.0,0.0,0.0,0.0,0.0,0.0,0.0,0.0,0.0,0.0,0.0,0.0,0.0,0.0,0.0,-5.6604,-5.6604,-5.6604,-5.6604,0.0,-5.6604,-5.6333,-5.5513,-5.5339,-5.5047,-5.4207,0.0,0.0,0.0,0.0,0.0,0.0,0.0,0.0,0.0,0.0,0.0,0.0,0.0,0.0,0.0,0.0,0.0,0.0,0.0,0.0,0.0,0.0,0.0,0.0,0.0,0.0,0.0,0.0,0.0,0.0,0.0,0.0,0.0,0.0,0.0,0.0,0.0,0.0,0.0,0.0,0.0,0.0,0.0,0.0,0.0,0.0,0.0,0.0,0.0,0.0,0.0,0.0,0.0,-5.1911,-5.1909,-5.2769,-5.3198,-5.3218,-5.3201,-5.3027,-5.2714,-5.2187,-5.1504,0.0,0.0,0.0,0.0,0.0,0.0,0.0,0.0,0.0,0.0,0.0,0.0,0.0,0.0,0.0,0.0,0.0,0.0,0.0,0.0,0.0,0.0,0.0,0.0,0.0,0.0,0.0,0.0,-5.0906,-5.1043,-5.1355,0.0,0.0,0.0,0.0,0.0,0.0,0.0,0.0,0.0,0.0,-5.5806,-5.5786,-5.6255,0.0,0.0,-5.6604,-5.6489,-5.6157,-5.5201,-5.44,-5.4049,-5.3116,0.0,0.0,0.0,0.0,0.0,0.0,0.0,0.0,0.0,0.0,0.0,0.0,0.0,0.0,0.0,0.0,0.0,0.0,0.0,0.0,0.0,0.0,0.0,0.0,0.0,0.0,0.0,0.0,0.0,0.0,0.0,0.0,0.0,0.0,0.0,0.0,0.0,0.0,0.0,0.0,0.0,0.0,0.0,0.0,0.0,0.0,0.0,0.0,0.0,0.0,0.0,0.0,-5.14,-5.1396,-5.2002,-5.2314,-5.2314,-5.2319,-5.2301,-5.2302,-5.1483,-5.0761,0.0,0.0,0.0,0.0,0.0,0.0,0.0,0.0,0.0,0.0,0.0,0.0,0.0,0.0,0.0,0.0,0.0,0.0,0.0,0.0,0.0,0.0,0.0,0.0,0.0,0.0,0.0,0.0,-5.1394,-5.1394,-5.1394,0.0,0.0,0.0,0.0,0.0,0.0,0.0,0.0,0.0,0.0,-5.4908,-5.4927,-5.565,-5.6216,-5.6216,-5.643,-5.6528,-5.6255,-5.4947,-5.3893,-5.3659,0.0,0.0,0.0,0.0,0.0,0.0,0.0,0.0,0.0,0.0,0.0,0.0,0.0,0.0,0.0,0.0,0.0,0.0,0.0,0.0,0.0,0.0,0.0,0.0,0.0,0.0,0.0,0.0,0.0,0.0,-5.1406,0.0,0.0,0.0,0.0,0.0,0.0,0.0,0.0,0.0,0.0,0.0,0.0,0.0,0.0,0.0,0.0,0.0,0.0,0.0,0.0,0.0,0.0,-5.139,-5.139,-5.1449,-5.1449,-5.1429,-5.1435,-5.1418,-5.1379,-5.0578,-5.0151,-5.0174,0.0,0.0,0.0,0.0,0.0,0.0,0.0,0.0,0.0,0.0,0.0,0.0,0.0,0.0,0.0,0.0,0.0,0.0,0.0,0.0,0.0,0.0,0.0,0.0,0.0,0.0,-5.1394,-5.1394,-5.1394,0.0,0.0,0.0,0.0,0.0,0.0,0.0,0.0,0.0,0.0,-5.3463,-5.4029,-5.4029,-5.4771,-5.5376,-5.5339,-5.604,-5.6313,-5.5493,-5.4596,-5.3717,0.0,0.0,0.0,0.0,0.0,0.0,0.0,0.0,0.0,0.0,0.0,0.0,0.0,0.0,0.0,0.0,0.0,0.0,0.0,0.0,0.0,0.0,0.0,0.0,0.0,0.0,0.0,-5.2594,-5.3062,0.0,0.0,0.0,0.0,0.0,0.0,0.0,0.0,0.0,0.0,0.0,-5.1398,-5.1398,0.0,0.0,0.0,0.0,0.0,0.0,0.0,0.0,0.0,0.0,0.0,0.0,-5.1387,-5.14,-5.14,-5.1107,-5.0559,-5.0549,-5.026,-4.9693,-4.9443,-4.9311,-4.9332,0.0,0.0,0.0,0.0,0.0,0.0,0.0,0.0,0.0,0.0,0.0,0.0,0.0,0.0,0.0,0.0,0.0,0.0,0.0,0.0,0.0,0.0,0.0,0.0,0.0,-5.1394,0.0,0.0,0.0,0.0,0.0,0.0,0.0,0.0,0.0,0.0,0.0,-5.1843,-5.1824,-5.2585,-5.3132,-5.3132,-5.4383,-5.53,0.0,0.0,0.0,0.0,0.0,0.0,0.0,0.0,0.0,0.0,0.0,0.0,0.0,0.0,-5.5064,-5.5611,-5.5044,-5.4264,-5.368,0.0,0.0,0.0,0.0,0.0,0.0,0.0,0.0,0.0,0.0,0.0,0.0,0.0,0.0,-5.2568,0.0,-5.2495,0.0,0.0,0.0,0.0,0.0,0.0,0.0,0.0,-5.1397,-5.1394,-5.1391,-5.1391,-5.1391,0.0,-5.1391,-5.1391,0.0,0.0,0.0,0.0,0.0,0.0,0.0,0.0,-5.1246,-5.0945,-5.0945,-5.0514,-4.9696,-4.9663,-4.9373,-4.8826,-4.8561,-4.8448,-4.8428,-4.7062,-4.6555,0.0,0.0,0.0,0.0,0.0,0.0,0.0,0.0,0.0,0.0,0.0,0.0,0.0,0.0,0.0,0.0,0.0,0.0,0.0,0.0,0.0,0.0,0.0,-5.1394,0.0,0.0,0.0,0.0,0.0,0.0,0.0,0.0,0.0,-5.1394,-5.1394,-5.1394,-5.1394,-5.1902,-5.2234,-5.2234,0.0,0.0,0.0,0.0,0.0,0.0,0.0,-5.3366,-5.2782,-5.198,-5.1394,-5.1394,-5.2136,-5.2704,-5.2704,0.0,0.0,-5.4693,-5.4147,-5.3385,-5.2802,-5.2704,-5.2431,-5.157,-5.1648,-5.1765,0.0,0.0,0.0,0.0,0.0,0.0,0.0,0.0,-5.1465,-5.1528,0.0,-5.1534,0.0,0.0,0.0,0.0,0.0,-5.1398,0.0,0.0,-5.139,-5.1385,-5.1394,-5.1394,-5.1394,-5.1394,-5.1394,-5.1394,-5.1396,-5.1385,0.0,0.0,0.0,0.0,0.0,0.0,-5.0945,-5.0143,-5.0085,-4.9636,-4.8798,-4.8759,-4.874,-4.872,-4.7985,-4.758,-4.758,-4.6766,-4.6301,-4.6301,-4.632,0.0,0.0,0.0,0.0,0.0,0.0,0.0,0.0,0.0,0.0,0.0,0.0,0.0,0.0,0.0,0.0,0.0,0.0,0.0,0.0,-5.1394,0.0,0.0,0.0,0.0,0.0,0.0,0.0,0.0,0.0,0.0,-5.1394,-5.1394,-5.1394,-5.1394,0.0,0.0,0.0,0.0,-5.2724,-5.2743,-5.3444,-5.401,-5.3969,-5.3249,-5.2702,-5.2663,0.0,0.0,-5.1392,-5.2097,-5.2644,-5.2663,-5.2644,-5.2917,-5.3735,-5.3229,-5.2665,-5.2626,-5.2607,-5.2351,-5.1668,-5.198,-5.2292,-5.4588,0.0,0.0,0.0,0.0,-5.1424,-5.1668,-5.2263,-5.2252,-5.2623,-5.3229,-5.261,0.0,0.0,0.0,0.0,0.0,0.0,-5.1391,-5.1389,-5.1402,-5.1396,-5.1394,-5.1394,-5.1394,-5.1394,-5.1394,-5.1394,-5.1394,-5.1398,-5.1398,-5.1398,0.0,0.0,0.0,0.0,-5.0338,-5.0085,-4.9481,-4.8779,-4.7957,-4.7938,-4.7938,-4.7938,-4.7121,-4.6967,-4.7572,-4.6775,-4.6288,-4.6288,-4.6288,0.0,0.0,0.0,0.0,0.0,0.0,0.0,0.0,0.0,0.0,0.0,0.0,0.0,0.0,0.0,0.0,0.0,0.0,0.0,-5.1375,-5.1394,-5.1394,0.0,0.0,0.0,0.0,0.0,0.0,0.0,0.0,0.0,-5.1394,-5.1394,-5.1394,0.0,0.0,-5.1394,-5.1394,-5.2156,-5.2704,-5.2704,-5.3424,0.0,0.0,-5.2865,-5.2491,-5.1876,-5.1564,-5.1389,-5.1386,-5.1601,-5.1759,-5.1779,-5.1759,-5.1857,-5.2052,-5.195,-5.1785,-5.1765,-5.1785,-5.1707,-5.1492,-5.1629,-5.1707,-5.4741,-5.4097,-5.3474,-5.2603,-5.1636,-5.1337,-5.1517,-5.2007,-5.2017,-5.2382,-5.2905,-5.2411,-5.2188,-5.2159,-5.1641,0.0,0.0,0.0,-5.1384,-5.1384,-5.1396,-5.1394,-5.1394,-5.1394,-5.1394,-5.1394,-5.1394,-5.1394,-5.1394,-5.1394,-5.1219,-5.0906,0.0,0.0,-5.0887,-5.0358,-4.9772,-4.9109,-4.8603,-4.792,-4.712,-4.7081,-4.7235,-4.7547,-4.6768,-4.671,-4.7547,-4.6749,-4.6302,-4.6302,-4.6302,-4.6302,0.0,0.0,0.0,0.0,0.0,0.0,0.0,0.0,0.0,0.0,0.0,-4.8798,-5.0475,0.0,0.0,0.0,-5.1082,-5.1258,-5.0926,-5.1199,0.0,0.0,0.0,0.0,0.0,0.0,0.0,-5.1394,-5.1394,-5.1394,-5.1394,-5.139,-5.139,-5.1394,-5.1394,-5.1394,-5.1394,0.0,-5.2171,-5.2188,-5.2633,-5.2784,-5.2267,-5.2189,-5.2007,-5.1475,-5.1394,-5.1394,-5.1394,-5.1394,-5.1394,-5.1394,-5.1394,-5.1394,-5.1394,-5.1389,-5.1401,-5.1401,-5.1401,-5.1401,-5.1401,-5.1401,-5.1401,-5.5393,-5.4657,-5.3131,-5.241,-5.2204,-5.1496,-5.1139,-5.1086,-5.1157,-5.1245,-5.1287,-5.1362,-5.14,-5.1396,-5.1388,0.0,-5.1392,-5.1392,-5.1394,-5.1394,-5.1394,-5.1394,-5.1394,-5.1394,-5.1394,-5.1394,-5.1394,-5.1394,-5.1394,-5.1316,-5.0906,-5.0163,-5.0887,-5.0887,-5.0143,-5.0104,-4.9343,-4.784,-4.7684,-4.7196,-4.6319,-4.6358,-4.6807,-4.7684,-4.6924,-4.6885,-4.7645,-4.6866,-4.6397,-4.6397,-4.6339,-4.6319,-4.6397,0.0,0.0,0.0,0.0,0.0,0.0,0.0,0.0,0.0,0.0,0.0,0.0,0.0,0.0,-5.1297,-5.1297,0.0,-5.0085,-5.0828,0.0,0.0,0.0,-5.1394,-5.1394,-5.1394,-5.1394,-5.1394,0.0,0.0,-5.1392,-5.1384,-5.1362,-5.1312,-5.1314,-5.1295,-5.1275,-5.1208,-5.1201,-5.1123,-5.1247,-5.1294,-5.1291,-5.1385,-5.144,-5.1398,-5.1385,-5.1362,-5.1362,-5.1362,-5.1385,-5.1362,-5.1385,-5.1385,-5.1388,-5.1385,-5.1388,-5.1388,-5.1394,-5.1394,-5.1397,-5.1397,-5.1397,-5.563,-5.5381,-5.4371,-5.328,-5.2139,-5.2013,-5.1593,-5.1049,-5.1101,-5.1166,-5.123,-5.1308,-5.1353,-5.14,-5.1383,-5.1391,-5.1401,-5.1401,-5.1386,-5.1394,-5.1394,-5.1394,-5.1394,-5.1394,-5.1394,-5.1394,-5.1394,-5.1394,-5.1355,-5.0729,-5.0299,-5.0124,-5.0319,-5.0299,-5.0124,-5.0104,-4.9928,-4.9519,-4.825,-4.7176,-4.6358,-4.6944,-4.7686,-4.8486,-4.831,-4.831,-4.8505,-4.7744,-4.7293,-4.7274,-4.6651,-4.6612,-4.7254,-4.6651,0.0,0.0,0.0,0.0,0.0,0.0,0.0,0.0,0.0,-4.9267,-5.0319,0.0,-5.0397,0.0,-5.0397,-5.0067,-4.9208,-5.0496,0.0,0.0,-5.0984,-5.1394,-5.1394,-5.1394,-5.1394,-5.1394,-5.1388,-5.1403,-5.1401,-5.1391,-5.1149,-5.0508,-5.0411,-5.0411,-5.0411,-4.9825,-4.9413,-4.9508,-4.9965,-5.0339,-5.038,-5.0879,-5.1189,-5.1248,-5.1243,-5.1243,-5.1243,-5.1243,-5.1243,-5.1243,-5.1243,-5.1252,-5.1273,-5.1312,-5.13,-5.1331,-5.1356,-5.1394,-5.1394,-5.1394,-5.1394,-5.5684,-5.5645,-5.5222,-5.41,-5.2559,-5.2238,-5.1669,-5.096,-5.1022,-5.1101,-5.1142,-5.1276,-5.1331,-5.1353,-5.1388,-5.14,-5.1389,-5.1389,-5.1396,-5.1388,-5.1388,-5.139,-5.1394,-5.1394,-5.1394,-5.1394,-5.1394,-5.1394,-5.1336,-5.0534,-4.9909,-4.9538,-4.9909,-4.9909,-4.954,-4.9909,-4.9909,-4.952,-4.8623,-4.79,-4.7451,-4.7881,-4.8349,-4.8779,-4.8798,-4.8642,-4.8291,-4.784,-4.7432,-4.7042,-4.6924,-4.71,-4.7547,-4.7137,-4.6885,0.0,0.0,0.0,0.0,0.0,0.0,0.0,0.0,0.0,0.0,0.0,-4.9519,-4.952,-4.952,-4.9325,-4.8837,-4.9677,-5.0204,-5.0124,-5.0534,-5.0982,-5.1349,-5.1388,-5.1386,-5.1399,-5.1391,-5.1389,-5.1389,-5.1063,-5.0638,-5.0085,-4.938,-4.9049,-4.9393,-4.9058,-4.876,-4.8769,-4.9145,-4.9418,-4.9394,-4.9746,-5.0033,-5.0052,-5.0033,-5.0052,-5.0033,-5.0033,-5.0038,-5.0043,-5.0048,-5.0058,-5.014,-5.0149,-5.0153,-5.0142,-5.0163,-5.0478,-5.1193,-5.1353,-5.1353,-5.5684,-5.5684,-5.5684,-5.4799,-5.3299,-5.2502,-5.1672,-5.0899,-5.096,-5.1023,-5.1111,-5.1249,-5.1288,-5.1292,-5.1369,-5.1385,-5.1388,-5.1388,-5.14,-5.1396,-5.1396,-5.1384,-5.1392,-5.1392,-5.1394,-5.1394,-5.1394,-5.1394,-5.1375,-5.0397,-4.9538,-4.8837,-4.946,-4.9401,-4.872,-4.9499,-4.9616,-4.8974,-4.8954,-4.8915,-4.8798,-4.8915,-4.8974,-4.8974,-4.9072,-4.8701,-4.7801,-4.7742,-4.7354,-4.6554,-4.7196,-4.7645,-4.7742,-4.7742,-4.7703,0.0,-4.6885,0.0,0.0,0.0,0.0,0.0,0.0,0.0,0.0,-4.9169,-4.8759,-4.8662,-4.874,-4.872,-4.8505,-4.8662,-4.905,-4.9673,-4.9848,-5.0235,-5.0947,-5.1065,-5.106,-5.1066,-5.1079,-5.106,-5.0982,-5.0378,-4.9873,-4.9527,-4.8417,-4.779,-4.8249,-4.8319,-4.8246,-4.8362,-4.8457,-4.8526,-4.8637,-4.8649,-4.8666,-4.8613,-4.8679,-4.8569,-4.8666,-4.8646,-4.8638,-4.8646,-4.871,-4.8676,-4.8667,-4.875,-4.8735,-4.8817,-4.8846,-4.9292,-5.047,-5.0813,-5.1004,-5.5684,-5.5684,-5.5684,-5.5145,-5.4184,-5.3347,-5.2165,-5.0838,-5.0908,-5.0993,-5.1105,-5.1175,-5.1206,-5.1225,-5.1295,-5.1335,-5.1312,-5.131,-5.1346,-5.14,-5.1394,-5.1399,-5.1401,-5.139,-5.1394,-5.1394,-5.1394,-5.1394,-5.1355,-4.9813,-4.8954,-4.8779,-4.831,-4.7996,-4.7879,0.0,0.0,0.0,-4.985,-4.9501,-4.8876,-4.948,-4.985,-4.987,-5.0535,0.0,-4.8681,-4.8564,-4.8193,-4.7432,-4.7508,0.0,0.0,0.0,0.0,0.0,0.0,0.0,0.0,0.0,0.0,0.0,-4.6456,-4.7002,-4.7977,-4.8525,-4.8525,-4.7918,-4.8427,-4.8232,-4.6924,-4.801,-4.8591,-4.8081,-4.8621,-4.912,-4.9276,-4.9313,-4.9293,-4.929,-4.9315,-4.9306,-4.9345,-4.9083,-4.8709,-4.8097,-4.7601,-4.7164,-4.6625,-4.6659,-4.6605,-4.6615,-4.7178,-4.7794,-4.8424,-4.8393,-4.8277,-4.8432,-4.845,-4.8385,-4.8347,-4.8373,-4.8425,-4.8418,-4.8521,-4.8469,-4.8505,-4.858,-4.851,-4.8594,-4.8613,-4.8792,-4.913,-4.9192,-4.9391,-5.5684,0.0,-5.5684,-5.5241,0.0,-5.3568,-5.2492,-5.1364,-5.1003,-5.0933,-5.1056,-5.1119,-5.1153,-5.115,-5.1211,-5.1263,-5.1304,-5.1296,-5.1319,-5.1343,-5.1372,-5.1361,-5.1386,-5.1394,-5.1401,-5.1386,-5.1386,-5.139,-5.1336,-5.0087,-4.9228,-4.8798,-4.8388,-4.7996,-4.7645,-4.8408,-4.9247,-5.0085,-5.0104,-5.0085,-5.0087,-5.0516,-5.0534,-5.0143,0.0,0.0,0.0,0.0,0.0,0.0,0.0,0.0,0.0,0.0,0.0,-4.7625,-4.7196,-4.6768,-4.6339,-4.6302,-4.6302,-4.6302,-4.6302,-4.6475,-4.6924,-4.7725,-4.7861,-4.7042,-4.7331,-4.7231,-4.6448,-4.7045,-4.7526,-4.7501,-4.7908,-4.8312,-4.8713,-4.8788,-4.8805,-4.8799,-4.8762,-4.8748,-4.8748,-4.8316,-4.7897,-4.7407,-4.6975,-4.6546,-4.6069,-4.6014,-4.6055,-4.6003,-4.6273,-4.6668,-4.7034,-4.7103,-4.7074,-4.7054,-4.7059,-4.7059,-4.7054,-4.7062,-4.7088,-4.7143,-4.7164,-4.7191,-4.7223,-4.7254,-4.7264,-4.7281,-4.7328,-4.7373,-4.7437,-4.8063,-4.8825,-5.5684,-5.5684,-5.5684,-5.5222,-5.4434,-5.3568,-5.2656,-5.1722,0.0,0.0,0.0,-5.1056,-5.1081,-5.1107,-5.1169,-5.1206,-5.1269,-5.1278,-5.1284,-5.1303,-5.1307,-5.1336,-5.1391,-5.1394,-5.14,-5.1394,-5.1394,-5.1399,-5.1349,-5.0371,-4.9512,-4.8831,-4.8521,-4.8016,-4.7471,-4.8037,-4.8798,-4.9616,-4.9792,-5.0223,-5.0906,-5.0945,-5.0594,-4.9889,-4.987,-4.9148,-4.7684,-4.7606,-4.7196,-4.6378,-4.7118,-4.7606,-4.7606,-4.7742,-4.7742,-4.7567,-4.6924,-4.6456,-4.6319,-4.6302,-4.6302,-4.6302,-4.63,-4.6298,-4.63,-4.6962,-4.7077,-4.6357,-4.6288,-4.6282,-4.6282,-4.625,-4.6476,-4.7198,-4.7273,-4.7557,-4.8207,-4.834,-4.8252,-4.8335,-4.8183,-4.8225,-4.8143,-4.7577,-4.7121,-4.6998,-4.6446,-4.5941,-4.5887,-4.5899,-4.5938,-4.588,-4.5902,-4.5838,-4.5785,-4.5831,-4.5684,-4.5811,-4.5737,-4.564,-4.5668,-4.5676,-4.57,-4.5901,-4.5776,-4.587,-4.5886,-4.5996,-4.5886,-4.5893,-4.5937,-4.5991,-4.6116,-4.7149,-4.8156,-5.5684,-5.5684,-5.5684,-5.5222,-5.4434,-5.3568,-5.2309,-5.0903,-5.0896,-5.0905,-5.0914,-5.0986,-5.1048,-5.1095,-5.1126,-5.1117,-5.1122,-5.119,-5.1234,0.0,-5.1296,-5.1296,-5.1317,-5.1369,-5.1394,-5.1397,-5.1397,-5.1397,-5.1224,-4.9781,-4.892,-4.865,-4.7355,-4.6605,-4.6515,-4.6593,-4.7081,-4.7938,-4.8642,-4.9052,-4.9169,-4.9169,-4.9111,-4.8993,-4.8974,-4.8564,-4.7664,-4.7586,-4.7198,-4.6378,-4.7137,-4.7606,-4.7625,-4.8211,-4.833,-4.7664,-4.7469,-4.7081,-4.6358,-4.6302,-4.6302,-4.63,-4.6292,-4.629,-4.63,-4.6409,-4.6425,-4.6286,-4.6258,-4.6209,-4.6209,-4.6198,-4.6267,-4.6381,-4.6388,-4.6456,-4.6667,-4.6656,-4.6664,-4.668,-4.6504,-4.6521,-4.6581,-4.6401,-4.6274,-4.6191,-4.6028,-4.5787,-4.5769,-4.5788,-4.5795,-4.5746,-4.5723,-4.57,-4.564,-4.5618,-4.5584,-4.554,-4.5485,-4.5485,-4.554,-4.5575,-4.561,-4.5632,-4.5653,-4.5704,-4.5739,-4.5788,-4.5805,-4.5814,-4.5867,-4.5906,-4.5917,-4.6246,-4.6674,-5.5684,-5.5684,-5.5684,-5.5222,-5.4395,-5.3068,-5.1828,-5.0721,-5.0757,-5.0846,-5.0913,-5.0933,-5.0971,-5.1053,-5.1082,-5.1088,-5.1105,-5.1134,-5.119,-5.1244,-5.1239,-5.1276,-5.13,-5.1328,-5.1365,-5.1359,-5.1343,-5.1346,-5.1277,-5.0107,-4.9249,-4.8719,-4.7072,-4.6238,-4.6245,-4.6245,-4.6438,-4.685,-4.7674,-4.8322,-4.8771,-4.8803,-4.8567,-4.8118,-4.8096,-4.7687,-4.6867,-4.6828,-4.6652,-4.6264,-4.6616,-4.6848,-4.6867,-4.7201,-4.7238,-4.6867,-4.6828,-4.6672,-4.6284,-4.6245,-4.6245,-4.6245,-4.626,-4.6258,-4.6245,-4.6238,-4.6236,-4.6255,-4.6203,-4.6215,-4.6215,-4.62,-4.6209,-4.6209,-4.6212,-4.6204,-4.6201,-4.6166,-4.6154,-4.6149,-4.608,-4.6052,-4.6042,-4.598,-4.5935,-4.5899,-4.5805,-4.5708,-4.5643,-4.5627,-4.5654,-4.5654,-4.5593,-4.5538,-4.5493,-4.5494,-4.5466,-4.5438,-4.5419,-4.5419,-4.5438,-4.5485,-4.5504,-4.5512,-4.5565,-4.5635,-4.5635,-4.5711,-4.5739,-4.5734,-4.5791,-4.5833,-4.5848,-4.5861,-4.609,-5.5684,-5.5684,-5.5684,-5.5126,-5.4068,-5.2356,-5.126,-5.0712,-5.0692,-5.0748,-5.0846,-5.0885,-5.0925,-5.0983,-5.1046,-5.1075,-5.1088,-5.1087,-5.1122,-5.1171,-5.1196,-5.1215,-5.1278,-5.1282,-5.128,-5.1273,-5.1277,-5.1248,-5.1008,-5.0231,-4.924,-4.819,-4.6864,-4.6203,-4.6206,-4.6206,-4.6206,-4.6245,-4.6857,-4.7526,-4.8174,-4.8203,-4.7886,-4.7279,-4.7201,-4.6889,-4.6245,-4.6206,-4.6206,-4.6206,-4.6206,-4.6206,-4.6206,-4.6206,-4.6206,-4.6206,-4.6206,-4.6206,-4.6206,-4.6206,-4.6206,-4.6206,-4.6203,-4.6201,-4.6203,-4.6201,-4.6198,-4.6201,-4.6209,-4.62,-4.6196,-4.6203,-4.6212,-4.6208,-4.6193,-4.6181,-4.6177,-4.6098,-4.608,-4.6075,-4.6017,-4.598,-4.5939,-4.5898,-4.5835,-4.5757,-4.5711,-4.5648,-4.5549,-4.5495,-4.5505,-4.5514,-4.5467,-4.541,-4.541,-4.541,-4.54,-4.5371,-4.538,-4.538,-4.539,-4.539,-4.541,-4.5429,-4.5485,-4.555,-4.5549,-4.5601,-4.5651,-4.5657,-4.5715,-4.5792,-4.5771,-4.5815,-4.5899,-5.5684,-5.5684,-5.5684,-5.478,-5.3222,-5.1548,-5.0779,-5.0712,-5.0693,-5.0702,-5.0739,-5.0846,-5.0908,-5.0924,-5.0975,-5.1012,-5.1015,-5.1076,-5.1101,-5.1111,-5.1164,-5.121,-5.1191,-5.1211,-5.1215,-5.1225,-5.1248,-5.0852,-5.0194,-4.9333,-4.81,-4.6615,-4.6264,-4.6212,-4.6206,-4.6206,-4.6206,-4.6206,-4.6273,-4.6351,-4.6423,-4.6443,-4.6401,-4.6323,-4.6323,-4.6284,-4.6206,-4.6206,-4.6206,-4.6206,-4.6206,-4.6206,-4.6206,-4.6206,-4.6206,-4.6206,-4.6206,-4.6206,-4.6206,-4.6206,-4.6206,-4.6206,-4.6212,-4.6206,-4.6206,-4.6213,-4.6209,-4.62,-4.6209,-4.6203,-4.6199,-4.6201,-4.6189,-4.6189,-4.613,-4.6117,-4.6093,-4.6056,-4.6007,-4.6007,-4.5958,-4.5899,-4.5835,-4.5801,-4.5737,-4.5651,-4.562,-4.554,-4.5467,-4.5429,-4.5409,-4.5429,-4.5409,-4.54,-4.5409,-4.5408,-4.5379,-4.5338,-4.5298,-4.5309,-4.5319,-4.5369,-4.5418,-4.5399,-4.5419,-4.5438,-4.5457,-4.5466,-4.554,-4.5584,-4.5646,-4.5706,-4.5715,-4.5764,-4.5834,-5.5684,-5.5684,-5.5684,-5.4741,-5.3068,-5.1414,-5.0683,-5.0683,-5.0683,-5.0702,-5.0702,-5.0767,-5.0793,-5.0846,-5.0913,-5.0945,-5.0956,-5.1007,-5.1056,-5.1082,-5.112,-5.1156,-5.1139,-5.118,-5.1215,-5.1152,-5.0758,-5.0339,-4.9833,-4.865,-4.7353,-4.6275,-4.6185,-4.6196,-4.6206,-4.6216,-4.62,-4.62,-4.6203,-4.6196,-4.6203,-4.6213,-4.62,-4.62,-4.62,-4.62,-4.62,-4.62,-4.62,-4.62,-4.62,-4.62,-4.62,-4.62,-4.62,-4.62,-4.62,-4.62,-4.62,-4.62,-4.62,-4.62,-4.6203,-4.6212,-4.6212,-4.6154,-4.6146,-4.6135,-4.6177,-4.6177,-4.6146,-4.6134,-4.6149,-4.6145,-4.6099,-4.6032,-4.6032,-4.5986,-4.5947,-4.5927,-4.5893,-4.5822,-4.58,-4.5719,-4.566,-4.5594,-4.555,-4.5457,-4.5409,-4.5418,-4.5398,-4.5367,-4.5339,-4.5339,-4.5338,-4.5338,-4.5328,-4.5307,-4.5277,-4.5277,-4.5307,-4.5317,-4.5338,-4.5357,-4.5379,-4.539,-4.5419,-4.5419,-4.5448,-4.5504,-4.5577,-4.5657,-4.5679,-4.5715,-4.5769,-5.5684,-5.5626,-5.5241,-5.4299,-5.3068,-5.1395,-5.0683,-5.0683,-5.0683,-5.0683,-5.0693,-5.0683,-5.072,-5.0766,-5.0838,-5.0888,-5.0909,-5.0948,-5.1012,-5.1067,-5.1089,-5.1095,-5.1114,-5.1157,-5.1161,-5.1047,-5.0344,-4.9742,-4.9192,-4.783,-4.672,-4.618,-4.6154,-4.6158,-4.6181,-4.6197,-4.6162,-4.6181,-4.6185,-4.6162,-4.6181,-4.6174,-4.6162,-4.6181,-4.6162,-4.6162,-4.6181,-4.6181,-4.6162,-4.6181,-4.6162,-4.6162,-4.6162,-4.6181,-4.6162,-4.6162,-4.6181,-4.6181,-4.6162,-4.6162,-4.6181,-4.6162,-4.617,-4.6162,-4.6158,-4.6126,-4.6089,-4.606,-4.6132,-4.6117,-4.6117,-4.6084,-4.6075,-4.6071,-4.6012,-4.5975,-4.5956,-4.5923,-4.588,-4.5854,-4.5801,-4.5764,-4.5734,-4.5651,-4.5568,-4.5523,-4.5467,-4.54,-4.5379,-4.5378,-4.5348,-4.5307,-4.5288,-4.5288,-4.5277,-4.5307,-4.5277,-4.5277,-4.5277,-4.5277,-4.5277,-4.5288,-4.5288,-4.5317,-4.5367,-4.5378,-4.5369,-4.538,-4.541,-4.5419,-4.5485,-4.5587,-4.5612,-4.5662,-4.5687,-5.5684,-5.5472,-5.3991,-5.3337,-5.3049,-5.1404,-5.0683,-5.0683,-5.0683,-5.0683,-5.0683,-5.0693,-5.0693,-5.0731,-5.0776,-5.0846,-5.0888,-5.0901,-5.0941,-5.1005,-5.106,-5.1081,-5.1081,-5.1088,-5.1088,-5.1037,-5.0175,-4.9021,-4.7587,-4.6638,-4.6137,-4.6093,-4.6093,-4.6113,-4.6117,-4.6098,-4.6122,-4.6122,-4.6098,-4.6113,-4.6117,-4.6117,-4.6098,-4.6093,-4.6098,-4.6122,-4.6122,-4.6122,-4.6122,-4.6117,-4.6122,-4.6122,-4.6122,-4.6122,-4.6122,-4.6122,-4.6122,-4.6122,-4.6122,-4.6122,-4.6102,-4.6098,-4.6113,-4.6113,-4.6108,-4.6084,-4.6066,-4.6007,-4.6007,-4.6047,-4.6071,-4.6027,-4.6007,-4.6002,-4.5953,-4.5898,-4.5911,-4.5835,-4.5814,-4.58,-4.5742,-4.5684,-4.562,-4.5559,-4.5486,-4.5438,-4.5418,-4.5388,-4.5328,-4.5307,-4.5307,-4.5307,-4.5277,-4.5277,-4.5277,-4.5277,-4.5277,-4.5277,-4.5277,-4.5277,-4.5277,-4.5277,-4.5277,-4.5277,-4.5307,-4.5317,-4.5317,-4.5329,-4.5361,-4.54,-4.5419,-4.5467,-4.5541,-4.5587,-4.5594,-5.5684,-5.553,-5.3895,-5.3203,-5.301,-5.1424,-5.0683,-5.0683,-5.0683,-5.0683,-5.0683,-5.0683,-5.0683,-5.0693,-5.0731,-5.0749,-5.0775,-5.0819,-5.0869,-5.0929,-5.0968,-5.0998,-5.1046,-5.1067,-5.1081,-5.0887,-4.9692,-4.8126,-4.6596,-4.6111,-4.5975,-4.598,-4.6016,-4.6032,-4.6052,-4.6085,-4.6114,-4.609,-4.6056,-4.6042,-4.6046,-4.5986,-4.5975,-4.598,-4.6066,-4.6117,-4.6117,-4.6117,-4.6117,-4.6117,-4.6117,-4.6117,-4.6117,-4.6117,-4.6117,-4.6117,-4.6117,-4.6108,-4.6114,-4.6114,-4.6066,-4.6027,-4.6032,-4.6046,-4.6041,-4.5986,-4.5964,-4.5927,-4.5941,-4.5972,-4.5966,-4.5941,-4.5922,-4.5916,-4.5867,-4.5822,-4.5834,-4.5778,-4.5734,-4.5719,-4.5676,-4.5584,-4.5504,-4.5458,-4.5429,-4.5389,-4.5359,-4.5328,-4.5307,-4.5277,-4.5277,-4.5277,-4.5277,-4.5277,-4.5277,-4.5277,-4.5277,-4.5277,-4.5277,-4.5277,-4.5277,-4.5277,-4.5277,-4.5277,-4.5277,-4.5297,-4.5307,-4.5317,-4.535,-4.538,-4.54,-4.54,-4.5448,-4.5495,-4.5495,-5.5684,-5.5434,-5.3895,-5.3203,-5.301,-5.1424,-5.0683,-5.0683,-5.0683,-5.0683,-5.0683,-5.0683,-5.0683,-5.0683,-5.0683,-5.0683,-5.0702,-5.0729,-5.0801,-5.0863,-5.0869,-5.0901,-5.0933,-5.101,-5.1024,-5.0773,-4.9283,-4.7579,-4.6066,-4.5892,-4.5892,-4.5917,-4.5949,-4.5953,-4.5975,-4.6011,-4.6041,-4.6035,-4.6,-4.5964,-4.598,-4.5923,-4.5892,-4.5923,-4.5991,-4.6027,-4.6027,-4.6027,-4.6047,-4.6027,-4.6027,-4.6027,-4.6027,-4.6032,-4.6027,-4.6027,-4.6027,-4.6042,-4.6026,-4.6041,-4.6011,-4.5975,-4.5958,-4.598,-4.5949,-4.5925,-4.5906,-4.5867,-4.5861,-4.5867,-4.5821,-4.5827,-4.5828,-4.5854,-4.5807,-4.5771,-4.5764,-4.5715,-4.564,-4.5599,-4.5547,-4.5495,-4.5419,-4.5419,-4.5398,-4.5378,-4.5328,-4.5297,-4.5277,-4.5277,-4.5277,-4.5277,-4.5277,-4.5277,-4.5277,-4.5277,-4.5277,-4.5277,-4.5277,-4.5277,-4.5277,-4.5277,-4.5277,-4.5277,-4.5277,-4.5277,-4.5277,-4.5277,-4.5317,-4.5359,-4.5369,-4.536,-4.539,-4.5419,-4.5419,-5.5684,-5.5472,-5.3895,-5.3203,-5.2972,-5.1414,-5.0683,-5.0683,-5.0683,-5.0683,-5.0683,-5.0683,-5.0683,-5.0683,-5.0683,-5.0693,-5.0683,-5.0702,-5.0729,-5.0793,-5.0801,-5.081,-5.0838,-5.088,-5.0742,-5.0587,-4.9161,-4.7533,-4.5964,-4.5873,-4.5873,-4.5905,-4.5899,-4.5905,-4.5911,-4.5917,-4.5917,-4.5917,-4.5917,-4.5892,-4.5905,-4.5899,-4.5893,-4.5899,-4.5886,-4.5905,-4.5892,-4.5898,-4.5929,-4.5923,-4.5923,-4.5898,-4.5904,-4.5923,-4.5917,-4.5923,-4.5898,-4.5892,-4.5911,-4.5911,-4.5905,-4.5899,-4.5886,-4.5899,-4.5874,-4.5867,-4.5859,-4.581,-4.5795,-4.5773,-4.5723,-4.5715,-4.5739,-4.5773,-4.5731,-4.5708,-4.5692,-4.5627,-4.5559,-4.5467,-4.5438,-4.5429,-4.5418,-4.5398,-4.5378,-4.5347,-4.5307,-4.5277,-4.5277,-4.5277,-4.5277,-4.5277,-4.5277,-4.5277,-4.5277,-4.5277,-4.5277,-4.5277,-4.5277,-4.5277,-4.5277,-4.5277,-4.5277,-4.5277,-4.5277,-4.5277,-4.5277,-4.5277,-4.5277,-4.5328,-4.5298,-4.5309,-4.5339,-4.537,-4.539,-5.5684,-5.5491,-5.3895,-5.3203,-5.2991,-5.1395,-5.0683,-5.0683,-5.0683,-5.0683,-5.0683,-5.0683,-5.0683,-5.0683,-5.0683,-5.0683,-5.0693,-5.0683,-5.0702,-5.0739,-5.0748,-5.0766,-5.0793,-5.081,-5.022,-4.9206,-4.8604,-4.7449,-4.6061,-4.5793,-4.5819,-4.5826,-4.5827,-4.5854,-4.5893,-4.5893,-4.5893,-4.5893,-4.5893,-4.5867,-4.5841,-4.5833,-4.5838,-4.5819,-4.5778,-4.5764,-4.5764,-4.5861,-4.5911,-4.5886,-4.5892,-4.5892,-4.5905,-4.5906,-4.5899,-4.5893,-4.5854,-4.5847,-4.5826,-4.5826,-4.5812,-4.5771,-4.5764,-4.5776,-4.5769,-4.5761,-4.5754,-4.5723,-4.5723,-4.57,-4.5635,-4.5637,-4.5643,-4.5715,-4.5679,-4.5637,-4.562,-4.5512,-4.5457,-4.5429,-4.5409,-4.5389,-4.5348,-4.5328,-4.5328,-4.5307,-4.5277,-4.5277,-4.5277,-4.5277,-4.5277,-4.5277,-4.5277,-4.5277,-4.5277,-4.5277,-4.5277,-4.5277,-4.5277,-4.5277,-4.5277,-4.5277,-4.5277,-4.5277,-4.5277,-4.5277,-4.5277,-4.5277,-4.5277,-4.5277,-4.5288,-4.5317,-4.5328,-4.5338,-4.535,-5.5684,-5.5511,-5.3914,-5.3203,-5.301,-5.1414,-5.0683,-5.0683,-5.0683,-5.0683,-5.0683,-5.0683,-5.0683,-5.0683,-5.0683,-5.0683,-5.0683,-5.0683,-5.0683,-5.0692,-5.0692,-5.073,-5.0748,-5.0766,-4.9896,-4.8582,-4.8312,-4.7406,-4.5766,-4.5731,-4.5746,-4.5773,-4.5769,-4.5791,-4.5819,-4.5838,-4.5838,-4.5819,-4.5819,-4.5805,-4.5764,-4.5754,-4.5765,-4.5758,-4.5735,-4.5688,-4.5715,-4.5786,-4.5834,-4.5815,-4.5834,-4.5815,-4.5834,-4.5826,-4.5819,-4.5812,-4.5798,-4.5769,-4.5765,-4.5746,-4.575,-4.5708,-4.5673,-4.5657,-4.566,-4.5651,-4.5607,-4.559,-4.5582,-4.5584,-4.555,-4.5522,-4.553,-4.5573,-4.5558,-4.5532,-4.5524,-4.5458,-4.538,-4.5369,-4.5359,-4.5357,-4.5317,-4.5277,-4.5277,-4.5277,-4.5277,-4.5277,-4.5277,-4.5277,-4.5277,-4.5277,-4.5277,-4.5277,-4.5277,-4.5277,-4.5277,-4.5277,-4.5277,-4.5277,-4.5277,-4.5277,-4.5277,-4.5277,-4.5277,-4.5277,-4.5277,-4.5277,-4.5277,-4.5277,-4.5277,-4.5307,-4.5307,-4.5307,-4.5309,-5.5684,-5.5491,-5.3895,-5.3203,-5.2991,-5.1414,-5.0683,-5.0683,-5.0683,-5.0683,-5.0683,-5.0683,-5.0683,-5.0683,-5.0683,-5.0683,-5.0683,-5.0683,-5.0693,-5.0693,-5.0693,-5.0702,-5.0712,-5.0702,-4.9833,-4.848,-4.8276,-4.7331,-4.5761,-4.57,-4.568,-4.5708,-4.5708,-4.5708,-4.5704,-4.5708,-4.5704,-4.5704,-4.5696,-4.5715,-4.5715,-4.57,-4.57,-4.57,-4.5692,-4.5665,-4.5692,-4.5708,-4.5696,-4.5708,-4.5704,-4.5712,-4.5696,-4.5708,-4.5715,-4.5715,-4.57,-4.5692,-4.5673,-4.5668,-4.5668,-4.564,-4.5616,-4.559,-4.5566,-4.554,-4.5485,-4.5448,-4.5438,-4.5419,-4.5429,-4.5429,-4.5429,-4.54,-4.541,-4.5429,-4.5418,-4.5398,-4.5359,-4.5317,-4.5277,-4.5277,-4.5288,-4.5277,-4.5277,-4.5277,-4.5277,-4.5277,-4.5277,-4.5277,-4.5277,-4.5277,-4.5277,-4.5277,-4.5277,-4.5277,-4.5277,-4.5277,-4.5277,-4.5277,-4.5277,-4.5277,-4.5277,-4.5277,-4.5277,-4.5277,-4.5277,-4.5277,-4.5277,-4.5277,-4.5277,-4.5277,-4.5277,-4.5277,-4.5297,-5.5684,-5.5511,-5.3895,-5.3203,-5.2972,-5.1424,-5.0683,-5.0683,-5.0683,-5.0683,-5.0683,-5.0683,-5.0683,-5.0683,-5.0683,-5.0683,-5.0683,-5.0683,-5.0683,-5.0683,-5.0683,-5.0683,-5.0693,-5.0664,-4.9827,-4.8401,-4.8151,-4.7285,-4.5744,-4.5701,-4.5679,-4.5679,-4.5684,-4.568,-4.5688,-4.568,-4.5688,-4.5688,-4.5688,-4.568,-4.568,-4.5695,-4.5679,-4.569,-4.5654,-4.5637,-4.5629,-4.5629,-4.5662,-4.568,-4.5688,-4.5688,-4.568,-4.5687,-4.5671,-4.5662,-4.5593,-4.5558,-4.5538,-4.5512,-4.5494,-4.5485,-4.5485,-4.5438,-4.5448,-4.5448,-4.5419,-4.541,-4.541,-4.541,-4.54,-4.5409,-4.5389,-4.5339,-4.537,-4.537,-4.5338,-4.5317,-4.5317,-4.5288,-4.5277,-4.5277,-4.5277,-4.5277,-4.5277,-4.5277,-4.5277,-4.5277,-4.5277,-4.5277,-4.5277,-4.5277,-4.5277,-4.5277,-4.5277,-4.5277,-4.5277,-4.5277,-4.5277,-4.5277,-4.5277,-4.5277,-4.5277,-4.5277,-4.5277,-4.5277,-4.5277,-4.5277,-4.5277,-4.5277,-4.5277,-4.5277,-4.5277,-4.5277,-4.5277,-5.5684,-5.5549,-5.3895,-5.3203,-5.2991,-5.1414,-5.0683,-5.0683,-5.0683,-5.0683,-5.0683,-5.0683,-5.0683,-5.0683,-5.0683,-5.0683,-5.0683,-5.0683,-5.0683,-5.0683,-5.0683,-5.0683,-5.0693,-5.0673,-4.9971,-4.874,-4.8279,-4.7375,-4.6287,-4.5851,-4.5667,-4.5637,-4.5662,-4.5651,-4.5643,-4.5651,-4.5651,-4.5651,-4.5651,-4.5651,-4.5651,-4.5646,-4.5637,-4.5648,-4.5622,-4.5594,-4.5594,-4.5594,-4.562,-4.5643,-4.5651,-4.5651,-4.5671,-4.5629,-4.5622,-4.5622,-4.5532,-4.5448,-4.5467,-4.5419,-4.541,-4.54,-4.541,-4.5409,-4.5409,-4.537,-4.5361,-4.5351,-4.5341,-4.5341,-4.5359,-4.5348,-4.5338,-4.5298,-4.5338,-4.5338,-4.5288,-4.5277,-4.5277,-4.5277,-4.5277,-4.5277,-4.5277,-4.5277,-4.5277,-4.5277,-4.5277,-4.5277,-4.5277,-4.5277,-4.5277,-4.5277,-4.5277,-4.5277,-4.5277,-4.5277,-4.5277,-4.5277,-4.5277,-4.5277,-4.5277,-4.5277,-4.5277,-4.5277,-4.5277,-4.5277,-4.5277,-4.5277,-4.5277,-4.5277,-4.5277,-4.5277,-4.5277,-4.5277,-4.5277,-5.5645,-5.5434,-5.3857,-5.3145,-5.2799,-5.1395,-5.0683,-5.0683,-5.0683,-5.0683,-5.0683,-5.0683,-5.0683,-5.0683,-5.0683,-5.0683,-5.0683,-5.0683,-5.0683,-5.0683,-5.0683,-5.0683,-5.0683,-5.0683,-5.0164,-4.926,-4.8509,-4.7663,-4.6759,-4.5998,-4.5633,-4.5603,-4.5603,-4.5594,-4.5612,-4.5622,-4.5594,-4.5603,-4.5612,-4.5612,-4.5612,-4.5603,-4.5603,-4.5603,-4.5603,-4.5594,-4.5594,-4.5594,-4.5594,-4.5594,-4.5594,-4.5594,-4.5586,-4.5522,-4.5504,-4.5514,-4.5448,-4.5419,-4.541,-4.541,-4.54,-4.539,-4.5399,-4.5398,-4.5369,-4.5329,-4.5298,-4.5298,-4.5277,-4.5317,-4.5307,-4.5307,-4.5307,-4.5288,-4.5307,-4.5297,-4.5277,-4.5277,-4.5277,-4.5277,-4.5277,-4.5277,-4.5277,-4.5277,-4.5277,-4.5277,-4.5277,-4.5277,-4.5277,-4.5277,-4.5277,-4.5277,-4.5277,-4.5277,-4.5277,-4.5277,-4.5277,-4.5277,-4.5277,-4.5277,-4.5277,-4.5277,-4.5277,-4.5277,-4.5277,-4.5277,-4.5277,-4.5277,-4.5277,-4.5277,-4.5277,-4.5277,-4.5277,-4.5277,-4.5277,-5.5338,-5.4684,-5.3626,-5.2808,-5.2087,-5.1125,-5.0683,-5.0683,-5.0683,-5.0683,-5.0683,-5.0683,-5.0683,-5.0683,-5.0683,-5.0683,-5.0683,-5.0683,-5.0683,-5.0683,-5.0683,-5.0683,-5.0683,-5.0683,-5.0231,-4.9413,-4.8529,-4.7702,-4.6894,-4.6124,-4.5594,-4.5594,-4.5594,-4.5594,-4.5594,-4.5594,-4.5594,-4.5594,-4.5594,-4.5594,-4.5594,-4.5594,-4.5594,-4.5594,-4.5594,-4.5594,-4.5594,-4.5594,-4.5594,-4.5594,-4.5586,-4.5558,-4.5522,-4.5504,-4.5476,-4.5438,-4.5419,-4.5399,-4.5399,-4.535,-4.5319,-4.5329,-4.5319,-4.5317,-4.5317,-4.5288,-4.5277,-4.5277,-4.5277,-4.5277,-4.5277,-4.5277,-4.5277,-4.5277,-4.5277,-4.5277,-4.5277,-4.5277,-4.5277,-4.5277,-4.5277,-4.5277,-4.5277,-4.5277,-4.5277,-4.5277,-4.5277,-4.5277,-4.5277,-4.5277,-4.5277,-4.5277,-4.5277,-4.5277,-4.5277,-4.5239,-4.5163,-4.5029,-4.501,-4.5029,-4.5029,-4.5125,-4.5067,-4.5163,-4.5277,-4.5277,-4.5277,-4.5277,-4.5277,-4.5277,-4.5277,-4.5277,-4.5277,-4.5277,-4.5277,-5.5222,-5.4434,-5.3568,-5.2702,-5.1846,-5.1068,-5.0683,-5.0683,-5.0683,-5.0683,-5.0683,-5.0683,-5.0683,-5.0683,-5.0683,-5.0683,-5.0683,-5.0683,-5.0683,-5.0683,-5.0683,-5.0683,-5.0683,-5.0693,-5.0385,-4.9827,-4.8663,-4.7875,-4.7259,-4.6278,-4.5594,-4.5594,-4.5594,-4.5594,-4.5594,-4.5594,-4.5594,-4.5594,-4.5594,-4.5594,-4.5594,-4.5594,-4.5594,-4.5594,-4.5594,-4.5594,-4.5594,-4.5594,-4.5594,-4.5586,-4.5568,-4.555,-4.5495,-4.5477,-4.5438,-4.5409,-4.536,-4.5348,-4.5357,-4.5317,-4.5288,-4.5277,-4.5277,-4.5277,-4.5277,-4.5277,-4.5277,-4.5277,-4.5277,-4.5277,-4.5277,-4.5277,-4.5277,-4.5277,-4.5277,-4.5277,-4.5277,-4.5277,-4.5277,-4.5277,-4.5277,-4.5277,-4.5277,-4.5277,-4.5277,-4.5277,-4.5277,-4.5277,-4.5277,-4.5277,-4.5277,-4.5277,-4.5277,-4.5277,-4.5277,-4.5201,-4.4991,-4.4762,-4.4494,-4.4484,-4.4484,-4.4647,-4.4781,-4.501,-4.5277,-4.5277,-4.5277,-4.5277,-4.5277,-4.5277,-4.5277,-4.5277,-4.5277,-4.5277,-4.5277,-5.5145,-5.4241,-5.351,-5.2635,-5.1683,-5.0991,-5.0683,-5.0683,-5.0683,-5.0683,-5.0683,-5.0683,-5.0683,-5.0683,-5.0683,-5.0683,-5.0683,-5.0683,-5.0683,-5.0683,-5.0683,-5.0683,-5.0683,-5.0693,-5.0654,-5.05,-4.8933,-4.8105,-4.7605,-4.6528,-4.5633,-4.5594,-4.5594,-4.5594,-4.5594,-4.5594,-4.5594,-4.5594,-4.5594,-4.5594,-4.5594,-4.5594,-4.5594,-4.5594,-4.5594,-4.5594,-4.5594,-4.5594,-4.5586,-4.5596,-4.5513,-4.5485,-4.5477,-4.5448,-4.5398,-4.5398,-4.5338,-4.5317,-4.5307,-4.5307,-4.5277,-4.5277,-4.5277,-4.5277,-4.5277,-4.5277,-4.5277,-4.5277,-4.5277,-4.5277,-4.5277,-4.5277,-4.5277,-4.5277,-4.5277,-4.5277,-4.5277,-4.5277,-4.5277,-4.5277,-4.5277,-4.5277,-4.5277,-4.5277,-4.5277,-4.5277,-4.5277,-4.5277,-4.5277,-4.5277,-4.5277,-4.5277,-4.5277,-4.5277,-4.5277,-4.4857,-4.4704,-4.438,-4.4025,-4.3854,-4.3892,-4.4197,-4.4494,-4.5048,-4.5277,-4.5277,-4.5277,-4.5277,-4.5277,-4.5277,-4.5277,-4.5277,-4.5277,-4.5277,-4.5277,-5.4818,-5.3414,-5.328,-5.2318,-5.0991,-5.075,-5.0683,-5.0683,-5.0683,-5.0683,-5.0683,-5.0683,-5.0683,-5.0683,-5.0683,-5.0683,-5.0683,-5.0683,-5.0683,-5.0683,-5.0683,-5.0683,-5.0683,-5.0683,-5.0683,-5.0231,-4.899,-4.8115,-4.7721,-4.6509,-4.5671,-4.5594,-4.5594,-4.5594,-4.5594,-4.5594,-4.5594,-4.5594,-4.5594,-4.5594,-4.5594,-4.5594,-4.5594,-4.5594,-4.5594,-4.5594,-4.5594,-4.5594,-4.5577,-4.5532,-4.5448,-4.5419,-4.5429,-4.5418,-4.5378,-4.5328,-4.5317,-4.5277,-4.5277,-4.5277,-4.5277,-4.5277,-4.5277,-4.5277,-4.5277,-4.5277,-4.5277,-4.5277,-4.5277,-4.5277,-4.5277,-4.5277,-4.5277,-4.5277,-4.5277,-4.5277,-4.5277,-4.5277,-4.5277,-4.5277,-4.5277,-4.5277,-4.5277,-4.5277,-4.5277,-4.5277,-4.5277,-4.5277,-4.5277,-4.5277,-4.5277,-4.5277,-4.5277,-4.5277,-4.5277,-4.4685,-4.4255,-4.3921,-4.3558,-4.3119,-4.3261,-4.3739,-4.4197,-4.4704,-4.5125,-4.5277,-4.5277,-4.5277,-4.5277,-4.5277,-4.5277,-4.5277,-4.5277,-4.5277,-4.5277,-5.4337,-5.3164,-5.2712,-5.1837,-5.0827,-5.0683,-5.0683,-5.0683,-5.0683,-5.0683,-5.0683,-5.0683,-5.0683,-5.0683,-5.0683,-5.0683,-5.0683,-5.0683,-5.0683,-5.0683,-5.0683,-5.0683,-5.0683,-5.0683,-5.0683,-5.0221,-4.9009,-4.8115,-4.7923,-4.6413,-4.5691,-4.5594,-4.5594,-4.5594,-4.5594,-4.5594,-4.5594,-4.5594,-4.5594,-4.5594,-4.5594,-4.5594,-4.5594,-4.5594,-4.5594,-4.5594,-4.5594,-4.5594,-4.5568,-4.5523,-4.5448,-4.5419,-4.5399,-4.5359,-4.5347,-4.5307,-4.5277,-4.5277,-4.5277,-4.5277,-4.5277,-4.5277,-4.5277,-4.5277,-4.5277,-4.5277,-4.5277,-4.5277,-4.5277,-4.5277,-4.5277,-4.5277,-4.5277,-4.5277,-4.5277,-4.5277,-4.5277,-4.5277,-4.5277,-4.5277,-4.5277,-4.5277,-4.5277,-4.5277,-4.5277,-4.5277,-4.5277,-4.5277,-4.5277,-4.5277,-4.5277,-4.5277,-4.5277,-4.5277,-4.522,-4.4743,-4.4083,-4.3663,-4.3233,-4.2794,-4.2603,-4.3061,-4.3663,-4.4265,-4.4666,-4.5239,-4.5277,-4.5277,-4.5277,-4.5277,-4.5277,-4.5277,-4.5277,-4.5277,-4.5277,-5.3895,-5.2876,-5.2192,-5.1433,-5.076,-5.0683,-5.0683,-5.0683,-5.0683,-5.0683,-5.0683,-5.0683,-5.0683,-5.0683,-5.0683,-5.0683,-5.0683,-5.0683,-5.0683,-5.0683,-5.0683,-5.0683,-5.0683,-5.0683,-5.0683,-5.0462,-4.9279,-4.8298,-4.7798,-4.6413,-4.571,-4.5594,-4.5594,-4.5594,-4.5594,-4.5594,-4.5594,-4.5594,-4.5594,-4.5594,-4.5594,-4.5594,-4.5594,-4.5594,-4.5594,-4.5594,-4.5594,-4.5594,-4.554,-4.5495,-4.5419,-4.5381,-4.5369,-4.5328,-4.5288,-4.5277,-4.5277,-4.5277,-4.5277,-4.5277,-4.5277,-4.5277,-4.5277,-4.5277,-4.5277,-4.5277,-4.5277,-4.5277,-4.5277,-4.5277,-4.5277,-4.5277,-4.5277,-4.5277,-4.5277,-4.5277,-4.5277,-4.5277,-4.5277,-4.5277,-4.5277,-4.5277,-4.5277,-4.5277,-4.5277,-4.5277,-4.5277,-4.5277,-4.5277,-4.5277,-4.5277,-4.5277,-4.5277,-4.5277,-4.5163,-4.4914,-4.4265,-4.3663,-4.3214,-4.2756,-4.2469,-4.2374,-4.3157,-4.4112,-4.4781,-4.5277,-4.5277,-4.5277,-4.5277,-4.5277,-4.5277,-4.5277,-4.5277,-4.5277,-4.5277,-5.3549,-5.2038,-5.1942,-5.1433,-5.077,-5.0683,-5.0683,-5.0683,-5.0683,-5.0683,-5.0683,-5.0683,-5.0683,-5.0683,-5.0683,-5.0683,-5.0683,-5.0683,-5.0683,-5.0683,-5.0683,-5.0683,-5.0683,-5.0683,-5.0683,-5.0519,-4.9663,-4.8856,-4.7952,-4.6451,-4.5652,-4.5614,-4.5594,-4.5594,-4.5594,-4.5594,-4.5594,-4.5594,-4.5594,-4.5594,-4.5594,-4.5594,-4.5594,-4.5594,-4.5594,-4.5594,-4.5594,-4.5586,-4.5531,-4.5429,-4.541,-4.537,-4.5328,-4.5288,-4.5277,-4.5277,-4.5277,-4.5277,-4.5277,-4.5277,-4.5277,-4.5277,-4.5277,-4.5277,-4.5277,-4.5277,-4.5277,-4.5277,-4.5277,-4.5277,-4.5277,-4.5277,-4.5277,-4.5277,-4.5277,-4.5277,-4.5277,-4.5277,-4.5277,-4.5277,-4.5277,-4.5277,-4.5277,-4.5277,-4.5277,-4.5277,-4.5277,-4.5277,-4.5277,-4.5277,-4.5277,-4.5277,-4.5277,-4.5277,-4.5239,-4.4972,-4.4475,-4.3796,-4.3376,-4.2889,-4.2622,-4.2584,-4.3291,-4.4169,-4.48,-4.5239,-4.5277,-4.5277,-4.5277,-4.5277,-4.5277,-4.5277,-4.5277,-4.5277,-4.5277,-5.2577,-5.1865,-5.1414,-5.1029,-5.0712,-5.0683,-5.0683,-5.0683,-5.0683,-5.0683,-5.0683,-5.0683,-5.0683,-5.0683,-5.0683,-5.0683,-5.0683,-5.0683,-5.0683,-5.0683,-5.0683,-5.0683,-5.0683,-5.0683,-5.0683,-5.0471,-4.9817,-4.8894,-4.7952,-4.7009,-4.6163,-4.5614,-4.5594,-4.5594,-4.5594,-4.5594,-4.5594,-4.5594,-4.5594,-4.5594,-4.5594,-4.5594,-4.5594,-4.5594,-4.5594,-4.5594,-4.5586,-4.5559,-4.5504,-4.5429,-4.54,-4.536,-4.5298,-4.5277,-4.5277,-4.5277,-4.5277,-4.5277,-4.5277,-4.5277,-4.5277,-4.5277,-4.5277,-4.5277,-4.5277,-4.5277,-4.5277,-4.5277,-4.5277,-4.5277,-4.5277,-4.5277,-4.5277,-4.5277,-4.5277,-4.5277,-4.5277,-4.5277,-4.5277,-4.5277,-4.5277,-4.5277,-4.5277,-4.5277,-4.5277,-4.5277,-4.5277,-4.5277,-4.5277,-4.5277,-4.5277,-4.5277,-4.5277,-4.5277,-4.5258,-4.5105,-4.4704,-4.4159,-4.393,-4.3433,-4.2966,-4.308,-4.3749,-4.4006,-4.4322,-4.4723,-4.5125,-4.5277,-4.5277,-4.5277,-4.5277,-4.5277,-4.5277,-4.5277,-4.5277,-5.1606,-5.1529,-5.0933,-5.0683,-5.0683,-5.0683,-5.0683,-5.0683,-5.0683,-5.0683,-5.0683,-5.0683,-5.0683,-5.0683,-5.0683,-5.0683,-5.0683,-5.0683,-5.0683,-5.0683,-5.0683,-5.0683,-5.0683,-5.0683,-5.0683,-5.0683,-5.0183,-4.9202,-4.8221,-4.7432,-4.6663,-4.5671,-4.5594,-4.5594,-4.5594,-4.5594,-4.5594,-4.5594,-4.5594,-4.5594,-4.5594,-4.5594,-4.5594,-4.5594,-4.5594,-4.5594,-4.5586,-4.555,-4.5476,-4.5429,-4.5419,-4.5369,-4.5317,-4.5277,-4.5277,-4.5277,-4.5277,-4.5277,-4.5277,-4.5277,-4.5277,-4.5277,-4.5277,-4.5277,-4.5277,-4.5277,-4.5277,-4.5277,-4.5277,-4.5277,-4.5277,-4.5277,-4.5277,-4.5277,-4.5277,-4.5277,-4.5277,-4.5277,-4.5277,-4.5277,-4.5277,-4.5277,-4.5277,-4.5277,-4.5277,-4.5277,-4.5277,-4.5277,-4.5277,-4.5277,-4.5277,-4.5277,-4.5277,-4.5277,-4.5258,-4.5125,-4.4743,-4.456,-4.4331,-4.4178,-4.3825,-4.3749,-4.4169,-4.4246,-4.4246,-4.4628,-4.5269,-4.5277,-4.5277,-4.5277,-4.5277,-4.5277,-4.5277,-4.5277,-4.5277,-5.0779,-5.077,-5.0721,-5.0683,-5.0683,-5.0683,-5.0683,-5.0683,-5.0683,-5.0683,-5.0683,-5.0683,-5.0683,-5.0683,-5.0683,-5.0683,-5.0683,-5.0683,-5.0683,-5.0683,-5.0683,-5.0683,-5.0683,-5.0683,-5.0683,-5.0683,-5.0414,-4.9548,-4.8471,-4.8009,-4.6971,-4.5845,-4.5671,-4.5614,-4.5594,-4.5594,-4.5594,-4.5594,-4.5594,-4.5594,-4.5594,-4.5594,-4.5594,-4.5594,-4.5594,-4.5594,-4.5586,-4.5522,-4.5476,-4.54,-4.539,-4.5378,-4.5317,-4.5297,-4.5277,-4.5277,-4.5277,-4.5277,-4.5277,-4.5277,-4.5277,-4.5277,-4.5277,-4.5277,-4.5277,-4.5277,-4.5277,-4.5277,-4.5277,-4.5277,-4.5277,-4.5277,-4.5277,-4.5277,-4.5277,-4.5277,-4.5277,-4.5277,-4.5277,-4.5277,-4.5277,-4.5277,-4.5277,-4.5277,-4.5277,-4.5277,-4.5277,-4.5277,-4.5277,-4.5277,-4.5277,-4.5277,-4.5277,-4.5277,-4.5277,-4.5125,-4.4991,-4.4972,-4.4857,-4.4934,-4.4914,-4.4914,-4.4647,-4.4781,-4.4857,-4.5105,-4.5269,-4.5277,-4.5277,-4.5277,-4.5277,-4.5277,-4.5277,-4.5277,-4.5277,-5.0683,-5.0683,-5.0683,-5.0683,-5.0683,-5.0683,-5.0683,-5.0683,-5.0683,-5.0683,-5.0683,-5.0683,-5.0683,-5.0683,-5.0683,-5.0683,-5.0683,-5.0683,-5.0683,-5.0683,-5.0683,-5.0683,-5.0683,-5.0683,-5.0683,-5.0683,-5.0635,-5.0173,-4.9029,-4.8375,-4.7509,-4.6605,-4.5864,-4.5633,-4.5594,-4.5594,-4.5594,-4.5594,-4.5594,-4.5594,-4.5594,-4.5594,-4.5594,-4.5594,-4.5594,-4.5594,-4.5586,-4.5495,-4.5438,-4.539,-4.536,-4.5338,-4.5307,-4.5297,-4.5277,-4.5277,-4.5277,-4.5277,-4.5277,-4.5277,-4.5277,-4.5277,-4.5277,-4.5277,-4.5277,-4.5277,-4.5277,-4.5277,-4.5277,-4.5277,-4.5277,-4.5277,-4.5277,-4.5277,-4.5277,-4.5277,-4.5277,-4.5277,-4.5277,-4.5277,-4.5277,-4.5277,-4.5277,-4.5277,-4.5277,-4.5277,-4.5277,-4.5277,-4.5277,-4.5277,-4.5277,-4.5277,-4.5277,-4.5277,-4.5277,-4.5277,-4.5277,-4.5277,-4.5277,-4.5277,-4.5277,-4.5258,-4.5086,-4.5258,-4.5277,-4.5277,-4.5277,-4.5277,-4.5277,-4.5277,-4.5277,-4.5277,-4.5277,-4.5277,-4.5277,-5.0683,-5.0683,-5.0683,-5.0683,-5.0683,-5.0683,-5.0683,-5.0683,-5.0683,-5.0683,-5.0683,-5.0683,-5.0683,-5.0683,-5.0683,-5.0683,-5.0683,-5.0683,-5.0683,-5.0683,-5.0683,-5.0683,-5.0683,-5.0683,-5.0683,-5.0683,-5.0635,-5.0212,-4.9298,-4.8509,-4.7663,-4.6817,-4.6086,-4.5691,-4.5594,-4.5594,-4.5594,-4.5594,-4.5594,-4.5594,-4.5594,-4.5594,-4.5594,-4.5594,-4.5594,-4.5594,-4.5568,-4.5485,-4.5419,-4.5371,-4.5341,-4.5288,-4.5277,-4.5277,-4.5277,-4.5277,-4.5277,-4.5277,-4.5277,-4.5277,-4.5277,-4.5277,-4.5277,-4.5277,-4.5277,-4.5277,-4.5277,-4.5277,-4.5277,-4.5277,-4.5277,-4.5277,-4.5277,-4.5277,-4.5277,-4.5277,-4.5277,-4.5277,-4.5277,-4.5277,-4.5277,-4.5277,-4.5277,-4.5277,-4.5277,-4.5277,-4.5277,-4.5277,-4.5277,-4.5277,-4.5277,-4.5277,-4.5277,-4.5277,-4.5277,-4.5277,-4.5277,-4.5277,-4.5277,-4.5277,-4.5277,-4.5277,-4.5277,-4.5277,-4.5277,-4.5277,-4.5277,-4.5277,-4.5277,-4.5277,-4.5277,-4.5277,-4.5277,-4.5277,-4.5277,-5.0683,-5.0683,-5.0683,-5.0683,-5.0683,-5.0683,-5.0683,-5.0683,-5.0683,-5.0683,-5.0683,-5.0683,-5.0683,-5.0683,-5.0683,-5.0683,-5.0683,-5.0683,-5.0683,-5.0683,-5.0683,-5.0683,-5.0683,-5.0683,-5.0683,-5.0683,-5.0654,-5.0289,-4.951,-4.8548,-4.7721,-4.6951,-4.6191,-4.5594,-4.5594,-4.5594,-4.5594,-4.5594,-4.5594,-4.5594,-4.5594,-4.5594,-4.5594,-4.5594,-4.5594,-4.5594,-4.5568,-4.5457,-4.541,-4.539,-4.5339,-4.5307,-4.5277,-4.5277,-4.5277,-4.5277,-4.5277,-4.5277,-4.5277,-4.5277,-4.5277,-4.5277,-4.5277,-4.5277,-4.5277,-4.5277,-4.5277,-4.5277,-4.5277,-4.5277,-4.5277,-4.5277,-4.5277,-4.5277,-4.5277,-4.5277,-4.5277,-4.5277,-4.5277,-4.5277,-4.5277,-4.5277,-4.5277,-4.5277,-4.5277,-4.5277,-4.5277,-4.5277,-4.5277,-4.5277,-4.5277,-4.5277,-4.5277,-4.5277,-4.5277,-4.5277,-4.5277,-4.5277,-4.5277,-4.5277,-4.5277,-4.5277,-4.5277,-4.5277,-4.5277,-4.5277,-4.5277,-4.5277,-4.5277,-4.5277,-4.5277,-4.5277,-4.5277,-4.5277,-4.5277,-5.0683,-5.0683,-5.0683,-5.0683,-5.0683,-5.0683,-5.0683,-5.0683,-5.0683,-5.0683,-5.0683,-5.0683,-5.0683,-5.0683,-5.0683,-5.0683,-5.0683,-5.0683,-5.0683,-5.0683,-5.0683,-5.0683,-5.0683,-5.0683,-5.0683,-5.0683,-5.0673,-5.0616,-5.026,-4.8933,-4.8144,-4.7451,-4.6287,-4.5671,-4.5594,-4.5594,-4.5594,-4.5594,-4.5594,-4.5594,-4.5594,-4.5594,-4.5594,-4.5594,-4.5594,-4.5594,-4.5586,-4.5457,-4.541,-4.541,-4.5359,-4.5307,-4.5277,-4.5277,-4.5277,-4.5277,-4.5277,-4.5277,-4.5277,-4.5277,-4.5277,-4.5277,-4.5277,-4.5277,-4.5277,-4.5277,-4.5277,-4.5277,-4.5277,-4.5277,-4.5277,-4.5277,-4.5277,-4.5277,-4.5277,-4.5277,-4.5277,-4.5277,-4.5277,-4.5277,-4.5277,-4.5277,-4.5277,-4.5277,-4.5277,-4.5277,-4.5277,-4.5277,-4.5277,-4.5277,-4.5277,-4.5277,-4.5277,-4.5277,-4.5277,-4.5277,-4.5277,-4.5277,-4.5277,-4.5277,-4.5277,-4.5277,-4.5277,-4.5277,-4.5277,-4.5277,-4.5277,-4.5277,-4.5277,-4.5277,-4.5277,-4.5277,-4.5277,-4.5277,-4.5277,-5.0692,-5.0683,-5.0683,-5.0683,-5.0683,-5.0683,-5.0683,-5.0683,-5.0683,-5.0683,-5.0683,-5.0683,-5.0683,-5.0683,-5.0683,-5.0683,-5.0683,-5.0683,-5.0683,-5.0683,-5.0683,-5.0683,-5.0683,-5.0683,-5.0683,-5.0683,-5.0683,-5.0644,-5.0558,-4.924,-4.824,-4.7355,-4.6326,-4.5748,-4.5594,-4.5594,-4.5594,-4.5594,-4.5594,-4.5594,-4.5594,-4.5594,-4.5594,-4.5594,-4.5594,-4.5605,-4.555,-4.5485,-4.5419,-4.54,-4.535,-4.5297,-4.5277,-4.5277,-4.5277,-4.5277,-4.5277,-4.5277,-4.5277,-4.5277,-4.5277,-4.5277,-4.5277,-4.5277,-4.5277,-4.5277,-4.5277,-4.5277,-4.5277,-4.5277,-4.5277,-4.5277,-4.5277,-4.5277,-4.5277,-4.5277,-4.5277,-4.5277,-4.5277,-4.5277,-4.5277,-4.5277,-4.5277,-4.5277,-4.5277,-4.5277,-4.5277,-4.5277,-4.5277,-4.5277,-4.5277,-4.5277,-4.5277,-4.5277,-4.5277,-4.5277,-4.5277,-4.5277,-4.5277,-4.5277,-4.5277,-4.5277,-4.5277,-4.5277,-4.5277,-4.5277,-4.5277,-4.5277,-4.5277,-4.5277,-4.5277,-4.5277,-4.5277,-4.5277,-4.5277,-5.0633,-5.0683,-5.0683,-5.0683,-5.0683,-5.0683,-5.0683,-5.0683,-5.0683,-5.0683,-5.0683,-5.0683,-5.0683,-5.0683,-5.0683,-5.0683,-5.0683,-5.0683,-5.0683,-5.0683,-5.0683,-5.0683,-5.0683,-5.0683,-5.0683,-5.0683,-5.0683,-5.0693,-5.0596,-4.9394,-4.8221,-4.7124,-4.6105,-4.571,-4.5594,-4.5594,-4.5594,-4.5594,-4.5594,-4.5594,-4.5594,-4.5594,-4.5594,-4.5594,-4.5594,-4.5568,-4.5513,-4.5438,-4.5419,-4.5389,-4.5338,-4.5307,-4.5277,-4.5277,-4.5277,-4.5277,-4.5277,-4.5277,-4.5277,-4.5277,-4.5277,-4.5277,-4.5277,-4.5277,-4.5277,-4.5277,-4.5277,-4.5277,-4.5277,-4.5277,-4.5277,-4.5277,-4.5277,-4.5277,-4.5277,-4.5277,-4.5277,-4.5277,-4.5277,-4.5277,-4.5277,-4.5277,-4.5277,-4.5277,-4.5277,-4.5277,-4.5277,-4.5277,-4.5277,-4.5277,-4.5277,-4.5277,-4.5277,-4.5277,-4.5277,-4.5277,-4.5277,-4.5277,-4.5277,-4.5277,-4.5277,-4.5277,-4.5277,-4.5277,-4.5277,-4.5277,-4.5277,-4.5277,-4.5277,-4.5277,-4.5277,-4.5277,-4.5277,-4.5277,-4.5277,-5.0563,-5.0642,-5.0623,-5.0643,-5.0683,-5.0683,-5.0683,-5.0683,-5.0683,-5.0683,-5.0683,-5.0683,-5.0683,-5.0683,-5.0683,-5.0683,-5.0683,-5.0683,-5.0683,-5.0683,-5.0683,-5.0683,-5.0683,-5.0683,-5.0683,-5.0683,-5.0683,-5.0664,-5.0356,-4.9356,-4.8105,-4.6923,-4.6047,-4.571,-4.5594,-4.5594,-4.5594,-4.5594,-4.5594,-4.5594,-4.5594,-4.5594,-4.5594,-4.5594,-4.5586,-4.5559,-4.5495,-4.5429,-4.5409,-4.5389,-4.5328,-4.5288,-4.5277,-4.5277,-4.5277,-4.5277,-4.5277,-4.5277,-4.5277,-4.5277,-4.5277,-4.5277,-4.5277,-4.5277,-4.5277,-4.5277,-4.5277,-4.5277,-4.5277,-4.5277,-4.5277,-4.5277,-4.5277,-4.5277,-4.5277,-4.5277,-4.5277,-4.5277,-4.5277,-4.5277,-4.5277,-4.5277,-4.5277,-4.5277,-4.5277,-4.5277,-4.5277,-4.5277,-4.5277,-4.5277,-4.5277,-4.5277,-4.5277,-4.5277,-4.5277,-4.5277,-4.5277,-4.5277,-4.5277,-4.5277,-4.5277,-4.5277,-4.5277,-4.5277,-4.5277,-4.5277,-4.5277,-4.5277,-4.5277,-4.5277,-4.5277,-4.5277,-4.5297,-4.5267,-4.5256,-5.05,-5.0572,-5.0593,-5.0633,-5.0683,-5.0683,-5.0683,-5.0683,-5.0683,-5.0683,-5.0683,-5.0683,-5.0683,-5.0683,-5.0683,-5.0683,-5.0683,-5.0683,-5.0683,-5.0683,-5.0683,-5.0683,-5.0683,-5.0683,-5.0683,-5.0683,-5.0683,-5.0683,-5.026,-4.9086,-4.7759,-4.7365,-4.6278,-4.5729,-4.5594,-4.5594,-4.5594,-4.5594,-4.5594,-4.5594,-4.5594,-4.5594,-4.5594,-4.5586,-4.5605,-4.5541,-4.5476,-4.5419,-4.539,-4.5369,-4.5298,-4.5288,-4.5277,-4.5277,-4.5277,-4.5277,-4.5277,-4.5277,-4.5277,-4.5277,-4.5277,-4.5277,-4.5277,-4.5277,-4.5277,-4.5277,-4.5277,-4.5277,-4.5277,-4.5277,-4.5277,-4.5277,-4.5277,-4.5277,-4.5277,-4.5277,-4.5277,-4.5277,-4.5277,-4.5277,-4.5277,-4.5277,-4.5277,-4.5277,-4.5277,-4.5277,-4.5277,-4.5277,-4.5277,-4.5277,-4.5277,-4.5277,-4.5277,-4.5277,-4.5277,-4.5277,-4.5277,-4.5277,-4.5277,-4.5277,-4.5277,-4.5277,-4.5277,-4.5277,-4.5277,-4.5277,-4.5277,-4.5277,-4.5277,-4.5277,-4.5297,-4.5286,-4.5275,-4.5254,-4.5213,-5.0416,-5.05,-5.0572,-5.0623,-5.0683,-5.0692,-5.0683,-5.0683,-5.0683,-5.0683,-5.0683,-5.0683,-5.0683,-5.0683,-5.0683,-5.0683,-5.0683,-5.0683,-5.0683,-5.0683,-5.0683,-5.0683,-5.0683,-5.0683,-5.0683,-5.0683,-5.0683,-5.0664,-5.024,-4.924,-4.8317,-4.8029,-4.6586,-4.5825,-4.5633,-4.5594,-4.5594,-4.5594,-4.5594,-4.5594,-4.5594,-4.5594,-4.5594,-4.5605,-4.555,-4.5476,-4.5429,-4.54,-4.5378,-4.5328,-4.5288,-4.5277,-4.5277,-4.5277,-4.5277,-4.5277,-4.5277,-4.5277,-4.5277,-4.5277,-4.5277,-4.5277,-4.5277,-4.5277,-4.5277,-4.5277,-4.5277,-4.5277,-4.5277,-4.5277,-4.5277,-4.5277,-4.5277,-4.5277,-4.5277,-4.5277,-4.5277,-4.5277,-4.5277,-4.5277,-4.5277,-4.5277,-4.5277,-4.5277,-4.5277,-4.5277,-4.5277,-4.5277,-4.5277,-4.5277,-4.5277,-4.5277,-4.5277,-4.5277,-4.5277,-4.5277,-4.5277,-4.5277,-4.5277,-4.5277,-4.5277,-4.5277,-4.5277,-4.5277,-4.5277,-4.5277,-4.5277,-4.5277,-4.5277,-4.5277,-4.5286,-4.5265,-4.5243,-4.5222,-4.5159,-5.0294,-5.0435,-5.05,-5.0572,-5.0623,-5.0642,-5.0653,-5.0683,-5.0683,-5.0683,-5.0683,-5.0683,-5.0683,-5.0683,-5.0683,-5.0683,-5.0683,-5.0683,-5.0683,-5.0683,-5.0683,-5.0683,-5.0683,-5.0683,-5.0683,-5.0683,-5.0683,-5.0664,-5.0414,-4.9586,-4.8663,-4.8048,-4.6894,-4.624,-4.5633,-4.5594,-4.5594,-4.5594,-4.5594,-4.5586,-4.5605,-4.5594,-4.5594,-4.5577,-4.5541,-4.5467,-4.5419,-4.539,-4.5359,-4.5317,-4.5307,-4.5277,-4.5277,-4.5277,-4.5277,-4.5277,-4.5277,-4.5277,-4.5277,-4.5277,-4.5277,-4.5277,-4.5277,-4.5277,-4.5277,-4.5277,-4.5277,-4.5277,-4.5277,-4.5277,-4.5277,-4.5277,-4.5277,-4.5277,-4.5277,-4.5277,-4.5277,-4.5277,-4.5277,-4.5277,-4.5277,-4.5277,-4.5277,-4.5277,-4.5277,-4.5277,-4.5277,-4.5277,-4.5277,-4.5277,-4.5277,-4.5277,-4.5277,-4.5277,-4.5277,-4.5277,-4.5277,-4.5277,-4.5277,-4.5277,-4.5277,-4.5277,-4.5277,-4.5277,-4.5277,-4.5277,-4.5277,-4.5277,-4.5277,-4.5286,-4.5246,-4.5213,-4.517,-4.5125,-4.508,-5.0219,-5.0314,-5.0404,-5.0489,-5.0542,-5.0593,-5.0623,-5.0653,-5.0673,-5.0683,-5.0683,-5.0683,-5.0683,-5.0683,-5.0683,-5.0683,-5.0683,-5.0683,-5.0683,-5.0683,-5.0683,-5.0683,-5.0683,-5.0683,-5.0683,-5.0683,-5.0683,-5.0644,-5.0548,-4.9798,-4.8913,-4.8105,-4.7298,-4.649,-4.5729,-4.5594,-4.5594,-4.5594,-4.5594,-4.5577,-4.5587,-4.5577,-4.5577,-4.5559,-4.5495,-4.5448,-4.539,-4.536,-4.5319,-4.5307,-4.5297,-4.5277,-4.5277,-4.5277,-4.5277,-4.5277,-4.5277,-4.5277,-4.5277,-4.5277,-4.5277,-4.5277,-4.5277,-4.5277,-4.5277,-4.5277,-4.5277,-4.5277,-4.5277,-4.5277,-4.5277,-4.5277,-4.5277,-4.5277,-4.5277,-4.5277,-4.5277,-4.5277,-4.5277,-4.5277,-4.5277,-4.5277,-4.5277,-4.5277,-4.5277,-4.5277,-4.5277,-4.5277,-4.5277,-4.5277,-4.5277,-4.5277,-4.5277,-4.5277,-4.5277,-4.5277,-4.5277,-4.5277,-4.5277,-4.5277,-4.5277,-4.5277,-4.5277,-4.5277,-4.5277,-4.5277,-4.5277,-4.5277,-4.5275,-4.5254,-4.5213,-4.5181,-4.5125,-4.5068,-4.5003,-5.0133,-5.0219,-5.0325,-5.0424,-5.047,-5.0542,-5.0582,-5.0603,-5.0653,-5.0683,-5.0683,-5.0683,-5.0683,-5.0683,-5.0683,-5.0683,-5.0683,-5.0683,-5.0683,-5.0683,-5.0683,-5.0683,-5.0683,-5.0683,-5.0683,-5.0683,-5.0683,-5.0683,-5.0664,-4.9817,-4.8952,-4.8105,-4.7278,-4.6471,-4.5855,-4.5594,-4.5586,-4.5577,-4.5568,-4.555,-4.555,-4.5559,-4.5522,-4.5475,-4.5448,-4.5419,-4.5389,-4.5338,-4.5288,-4.5288,-4.5277,-4.5277,-4.5277,-4.5277,-4.5277,-4.5277,-4.5277,-4.5277,-4.5277,-4.5277,-4.5277,-4.5277,-4.5277,-4.5277,-4.5277,-4.5277,-4.5277,-4.5277,-4.5277,-4.5277,-4.5277,-4.5277,-4.5277,-4.5277,-4.5277,-4.5277,-4.5277,-4.5277,-4.5277,-4.5277,-4.5277,-4.5277,-4.5277,-4.5277,-4.5277,-4.5277,-4.5277,-4.5277,-4.5277,-4.5277,-4.5277,-4.5277,-4.5277,-4.5277,-4.5277,-4.5277,-4.5277,-4.5277,-4.5277,-4.5277,-4.5277,-4.5277,-4.5277,-4.5277,-4.5277,-4.5297,-4.5267,-4.5267,-4.5246,-4.5222,-4.5148,-4.5114,-4.5049,-4.5003,-4.4955,-5.0057,-5.0219,-5.0243,-5.0314,-5.0412,-5.0435,-5.0489,-5.0593,-5.0603,-5.0643,-5.0673,-5.0683,-5.0683,-5.0683,-5.0683,-5.0683,-5.0683,-5.0683,-5.0683,-5.0683,-5.0683,-5.0683,-5.0683,-5.0683,-5.0683,-5.0683,-5.0683,-5.0683,-5.0577,-4.9817,-4.8952,-4.8105,-4.7298,-4.6509,-4.574,-4.5586,-4.5568,-4.555,-4.5504,-4.5495,-4.5467,-4.5476,-4.5457,-4.5438,-4.5409,-4.5409,-4.5398,-4.5328,-4.5307,-4.5277,-4.5277,-4.5277,-4.5277,-4.5277,-4.5277,-4.5277,-4.5277,-4.5277,-4.5277,-4.5277,-4.5277,-4.5277,-4.5277,-4.5277,-4.5277,-4.5277,-4.5277,-4.5277,-4.5277,-4.5277,-4.5277,-4.5277,-4.5277,-4.5277,-4.5277,-4.5277,-4.5277,-4.5277,-4.5277,-4.5277,-4.5277,-4.5277,-4.5277,-4.5277,-4.5277,-4.5277,-4.5277,-4.5277,-4.5277,-4.5277,-4.5277,-4.5277,-4.5277,-4.5277,-4.5277,-4.5277,-4.5277,-4.5277,-4.5277,-4.5277,-4.5277,-4.5277,-4.5277,-4.5277,-4.5297,-4.5297,-4.5267,-4.5235,-4.5203,-4.5159,-4.508,-4.5033,-4.4998,-4.4955,-4.4931]},{"header":{"parameterUnit":"m.s-1","parameterCategory":1,"la1":31.0,"la2":29.5877,"lo1":-88.7671,"lo2":-86.6584,"dy":0.0162,"dx":0.0185,"nx":115,"ny":88,"refTime":"2025-05-24T12:00:00:Z","depth":0,"parameterNumber":3,"parameterNumberName":"V-component_of_WINDS"},"data":[0.0,0.0,0.0,0.0,0.0,0.0,0.0,0.0,0.0,0.0,0.0,0.0,0.0,0.0,0.0,0.0,0.0,0.0,0.0,0.0,0.0,0.0,0.0,0.0,0.0,0.0,0.0,0.0,0.0,0.0,0.0,0.0,0.0,0.0,0.0,0.0,0.0,0.0,0.0,0.0,0.0,0.0,0.0,0.0,0.0,0.0,0.0,0.0,0.0,0.0,0.0,0.0,0.0,0.0,0.0,0.0,0.0,0.0,0.0,0.0,0.0,0.0,0.0,0.0,0.0,0.0,0.0,0.0,0.0,0.0,0.0,0.0,0.0,0.0,0.0,0.0,0.0,0.0,0.0,0.0,0.0,0.0,0.0,0.0,0.0,0.0,0.0,0.0,0.0,0.0,0.0,0.0,0.0,0.0,0.0,0.0,0.0,0.0,0.0,0.0,0.0,0.0,0.0,0.0,0.0,0.0,0.0,0.0,0.0,0.0,0.0,0.0,0.0,0.0,0.0,0.0,0.0,0.0,0.0,0.0,0.0,0.0,0.0,0.0,0.0,0.0,0.0,0.0,0.0,0.0,0.0,0.0,0.0,0.0,0.0,0.0,0.0,0.0,0.0,0.0,0.0,0.0,0.0,0.0,0.0,0.0,0.0,0.0,0.0,0.0,0.0,0.0,0.0,0.0,0.0,0.0,0.0,0.0,0.0,0.0,0.0,0.0,0.0,0.0,0.0,0.0,0.0,0.0,0.0,0.0,0.0,0.0,0.0,0.0,0.0,0.0,0.0,0.0,0.0,0.0,0.0,0.0,0.0,0.0,0.0,0.0,0.0,0.0,0.0,0.0,0.0,0.0,0.0,0.0,0.0,0.0,0.0,0.0,0.0,0.0,0.0,0.0,0.0,0.0,0.0,0.0,0.0,0.0,0.0,0.0,0.0,0.0,0.0,0.0,0.0,0.0,0.0,0.0,0.0,0.0,0.0,0.0,0.0,0.0,0.0,0.0,0.0,0.0,0.0,0.0,0.0,0.0,0.0,0.0,0.0,0.0,0.0,0.0,0.0,0.0,0.0,0.0,0.0,0.0,0.0,0.0,0.0,0.0,0.0,0.0,0.0,0.0,0.0,0.0,0.0,0.0,0.0,0.0,0.0,0.0,0.0,0.0,0.0,0.0,0.0,0.0,0.0,0.0,0.0,0.0,0.0,0.0,0.0,0.0,0.0,0.0,0.0,0.0,0.0,0.0,0.0,0.0,0.0,0.0,0.0,0.0,0.0,0.0,0.0,0.0,0.0,0.0,0.0,0.0,0.0,0.0,0.0,0.0,0.0,0.0,0.0,0.0,0.0,0.0,0.0,0.0,0.0,0.0,0.0,0.0,0.0,0.0,0.0,0.0,0.0,0.0,0.0,0.0,0.0,0.0,0.0,0.0,0.0,0.0,0.0,0.0,0.0,0.0,0.0,0.0,0.0,0.0,0.0,0.0,0.0,0.0,0.0,0.0,0.0,0.0,0.0,0.0,0.0,0.0,0.0,0.0,0.0,0.0,0.0,0.0,0.0,0.0,0.0,0.0,0.0,0.0,0.0,0.0,0.0,0.0,0.0,0.0,0.0,0.0,0.0,0.0,0.0,0.0,0.0,0.0,0.0,0.0,0.0,0.0,0.0,0.0,0.0,0.0,0.0,0.0,0.0,0.0,0.0,0.0,0.0,0.0,0.0,0.0,0.0,0.0,0.0,0.0,0.0,0.0,0.0,0.0,0.0,0.0,0.0,0.0,0.0,0.0,0.0,0.0,0.0,0.0,0.0,0.0,0.0,0.0,0.0,0.0,0.0,0.0,0.0,0.0,0.0,0.0,0.0,0.0,0.0,0.0,0.0,0.0,0.0,0.0,0.0,0.0,0.0,0.0,0.0,0.0,0.0,0.0,0.0,0.0,0.0,0.0,0.0,0.0,0.0,0.0,0.0,0.0,0.0,0.0,0.0,0.0,0.0,0.0,0.0,0.0,0.0,0.0,0.0,0.0,0.0,0.0,0.0,0.0,0.0,0.0,0.0,0.0,0.0,0.0,0.0,0.0,0.0,0.0,0.0,0.0,0.0,0.0,0.0,0.0,0.0,0.0,0.0,0.0,0.0,0.0,0.0,0.0,0.0,0.0,0.0,0.0,0.0,0.0,0.0,0.0,0.0,0.0,0.0,0.0,0.0,0.0,0.0,0.0,0.0,0.0,0.0,0.0,0.0,0.0,0.0,0.0,0.0,0.0,0.0,0.0,0.0,0.0,0.0,0.0,0.0,0.0,0.0,0.0,0.0,0.0,0.0,0.0,0.0,0.0,0.0,0.0,0.0,0.0,0.0,0.0,0.0,0.0,0.0,0.0,0.0,0.0,0.0,0.0,0.0,0.0,0.0,0.0,0.0,0.0,0.0,0.0,0.0,0.0,0.0,0.0,0.0,0.0,0.0,0.0,0.0,0.0,0.0,0.0,0.0,0.0,0.0,0.0,0.0,0.0,0.0,0.0,0.0,0.0,0.0,0.0,0.0,0.0,0.0,0.0,0.0,0.0,0.0,0.0,0.0,0.0,0.0,0.0,0.0,0.0,0.0,0.0,0.0,0.0,0.0,0.0,0.0,0.0,0.0,0.0,0.0,0.0,0.0,0.0,0.0,0.0,0.0,0.0,0.0,0.0,0.0,0.0,0.0,0.0,0.0,0.0,0.0,0.0,0.0,0.0,0.0,0.0,0.0,0.0,0.0,0.0,0.0,0.0,0.0,0.0,0.0,0.0,0.0,0.0,0.0,0.0,0.0,0.0,0.0,0.0,0.0,0.0,0.0,0.0,0.0,0.0,0.0,0.0,0.0,0.0,0.0,0.0,0.0,0.0,0.0,0.0,0.0,0.0,0.0,0.0,0.0,0.0,0.0,0.0,0.0,0.0,0.0,0.0,0.0,0.0,0.0,0.0,0.0,0.0,0.0,0.0,0.0,0.0,0.0,0.0,0.0,0.0,0.0,0.0,0.0,0.0,0.0,0.0,0.0,0.0,0.0,0.0,0.0,0.0,0.0,0.0,0.0,0.0,0.0,0.0,0.0,0.0,0.0,0.0,0.0,0.0,0.0,0.0,0.0,0.0,0.0,0.0,0.0,0.0,0.0,0.0,0.0,0.0,0.0,0.0,0.0,0.0,0.0,0.0,0.0,0.0,0.0,0.0,0.0,0.0,0.0,0.0,0.0,0.0,0.0,0.0,0.0,0.0,0.0,0.0,0.0,0.0,0.0,0.0,0.0,0.0,0.0,0.0,0.0,0.0,0.0,0.0,0.0,0.0,0.0,0.0,0.0,0.0,0.0,0.0,0.0,0.0,0.0,0.0,0.0,0.0,0.0,0.0,0.0,0.0,0.0,0.0,0.0,0.0,0.0,0.0,0.0,0.0,0.0,0.0,0.0,0.0,0.0,0.0,0.0,0.0,0.0,0.0,0.0,0.0,0.0,0.0,0.0,0.0,0.0,0.0,0.0,0.0,0.0,0.0,0.0,0.0,0.0,0.0,0.0,0.0,0.0,0.0,0.0,0.0,0.0,0.0,0.0,0.0,0.0,0.0,0.0,0.0,0.0,0.0,0.0,0.0,0.0,0.0,0.0,0.0,0.0,0.0,0.0,0.0,0.0,0.0,0.0,0.0,0.0,0.0,0.0,0.0,0.0,0.0,0.0,0.0,0.0,0.0,0.0,0.0,0.0,0.0,0.0,0.0,0.0,0.0,0.0,0.0,0.0,0.0,0.0,0.0,0.0,0.0,0.0,0.0,0.0,0.0,0.0,0.0,0.0,0.0,0.0,0.0,0.0,0.0,0.0,0.0,0.0,0.0,0.0,0.0,0.0,0.0,0.0,0.0,0.0,0.0,0.0,0.0,0.0,0.0,0.0,0.0,0.0,0.0,0.0,0.0,0.0,0.0,0.0,0.0,0.0,0.0,0.0,0.0,0.0,0.0,0.0,0.0,0.0,0.0,0.0,0.0,0.0,0.0,0.0,0.0,0.0,0.0,0.0,0.0,0.0,0.0,0.0,0.0,0.0,0.0,0.0,0.0,0.0,0.0,0.0,0.0,0.0,0.0,0.0,0.0,0.0,0.0,0.0,0.0,0.0,0.0,0.0,0.0,0.0,0.0,0.0,0.0,0.0,0.0,0.0,0.0,0.0,0.0,0.0,0.0,0.0,0.0,0.0,0.0,0.0,0.0,0.0,0.0,0.0,0.0,0.0,0.0,-0.3578,0.0,0.0,0.0,-0.6692,0.0,0.0,0.0,0.0,0.0,0.0,0.0,0.0,0.0,0.0,0.0,0.0,0.0,0.0,0.0,0.0,0.0,0.0,0.0,0.0,0.0,0.0,0.0,0.0,0.0,0.0,0.0,0.0,0.0,0.0,0.0,0.0,0.0,0.0,0.0,0.0,0.0,0.0,0.0,0.0,0.0,0.0,0.0,0.0,0.0,0.0,0.0,0.0,0.0,0.0,0.0,0.0,0.0,0.0,0.0,0.0,0.0,0.0,0.0,0.0,0.0,0.0,0.0,0.0,0.0,0.0,0.0,0.0,0.0,0.0,0.0,0.0,0.0,0.0,0.0,0.0,0.0,0.0,0.0,0.0,0.0,0.0,0.0,0.0,0.0,0.0,0.0,0.0,0.0,0.0,0.0,0.0,0.0,0.0,0.0,0.0,0.0,0.0,0.0,0.0,0.0,0.0,0.0,0.0,0.0,0.0,0.0,0.0,0.0,0.0,-0.2803,-0.3455,-0.4616,-0.565,-0.6466,0.0,0.0,0.0,0.0,0.0,0.0,0.0,0.0,0.0,0.0,0.0,0.0,0.0,0.0,0.0,0.0,0.0,0.0,0.0,0.0,0.0,0.0,0.0,0.0,0.0,0.0,0.0,0.0,0.0,0.0,0.0,0.0,0.0,0.0,0.0,0.0,0.0,0.0,0.0,0.0,0.0,0.0,0.0,0.0,0.0,0.0,0.0,0.0,0.0,0.0,0.0,0.0,0.0,0.0,0.0,0.0,0.0,0.0,0.0,0.0,0.0,0.0,0.0,0.0,0.0,0.0,0.0,0.0,0.0,0.0,0.0,0.0,0.0,0.0,0.0,0.0,0.0,0.0,0.0,0.0,0.0,0.0,0.0,0.0,0.0,0.0,0.0,0.0,0.0,0.0,0.0,0.0,0.0,0.0,0.0,0.0,0.0,0.0,0.0,0.0,0.0,0.0,0.0,0.0,0.0,0.0,0.0,0.0,0.0,0.0,0.0,0.0,-0.3984,-0.532,-0.6584,0.0,0.0,0.0,0.0,0.0,0.0,0.0,0.0,0.0,0.0,0.0,0.0,0.0,0.0,0.0,0.0,0.0,0.0,0.0,0.0,0.0,0.0,0.0,0.0,0.0,0.0,0.0,0.0,0.0,0.0,0.0,0.0,0.0,0.0,0.0,0.0,0.0,0.0,0.0,0.0,0.0,0.0,0.0,0.0,0.0,0.0,0.0,0.0,0.0,0.0,0.0,0.0,0.0,0.0,0.0,0.0,0.0,0.0,0.0,0.0,0.0,0.0,0.0,0.0,0.0,0.0,0.0,0.0,0.0,0.0,0.0,0.0,0.0,0.0,0.0,0.0,0.0,0.0,0.0,0.0,0.0,0.0,0.0,0.0,0.0,0.0,0.0,0.0,0.0,0.0,0.0,0.0,0.0,0.0,0.0,0.0,0.0,0.0,0.0,0.0,0.0,0.0,0.0,0.0,0.0,0.0,0.0,0.0,0.0,0.0,-0.1846,-0.2523,-0.3945,0.0,-0.7095,0.0,0.0,0.0,0.0,0.0,0.0,0.0,0.0,0.0,0.0,0.0,0.0,0.0,0.0,0.0,0.0,0.0,0.0,0.0,0.0,0.0,0.0,0.0,0.0,0.0,0.0,0.0,0.0,0.0,0.0,0.0,0.0,0.0,0.0,0.0,0.0,0.0,0.0,0.0,0.0,0.0,0.0,0.0,0.0,0.0,0.0,0.0,0.0,0.0,0.0,0.0,0.0,0.0,0.0,0.0,0.0,0.0,0.0,0.0,0.0,0.0,0.0,0.0,0.0,0.0,0.0,0.0,0.0,0.0,0.0,0.0,0.0,0.0,0.0,0.0,0.0,0.0,0.0,0.0,0.0,0.0,0.0,0.0,0.0,0.0,0.0,0.0,0.0,0.0,0.0,0.0,0.0,0.0,0.0,0.0,0.0,0.0,0.0,0.0,0.0,0.0,0.0,0.0,0.0,0.0,0.0,0.0,0.0,0.0,0.0,-0.1438,-0.1875,-0.3842,-0.5574,0.0,0.0,0.0,0.0,0.0,0.0,0.0,0.0,0.0,0.0,0.0,0.0,0.0,0.0,0.0,0.0,0.0,0.0,0.0,0.0,0.0,0.0,0.0,0.0,0.0,0.0,0.0,0.0,0.0,0.0,0.0,0.0,0.0,0.0,0.0,0.0,0.0,0.0,0.0,0.0,0.0,0.0,0.0,0.0,0.0,0.0,0.0,0.0,0.0,0.0,0.0,0.0,0.0,0.0,0.0,0.0,0.0,0.0,0.0,0.0,0.0,0.0,0.0,0.0,0.0,0.0,0.0,0.0,0.0,0.0,0.0,0.0,0.0,0.0,0.0,0.0,0.0,0.0,0.0,0.0,0.0,0.0,0.0,0.0,0.0,0.0,0.0,0.0,0.0,0.0,0.0,0.0,0.0,0.0,0.0,0.0,0.0,0.0,0.0,0.0,0.0,0.0,0.0,0.0,0.0,0.0,0.0,0.0,0.0,0.0,-0.0564,-0.1199,-0.1953,-0.3899,-0.5459,-0.6486,0.0,0.0,0.0,0.0,0.0,0.0,0.0,0.0,0.0,0.0,0.0,0.0,0.0,0.0,0.0,0.0,0.0,0.0,0.0,0.0,0.0,0.0,0.0,0.0,0.0,0.0,0.0,0.0,0.0,0.0,0.0,0.0,0.0,0.0,0.0,0.0,0.0,0.0,0.0,0.0,0.0,0.0,0.0,0.0,0.0,0.0,0.0,0.0,0.0,0.0,0.0,0.0,0.0,0.0,0.0,0.0,0.0,0.0,0.0,0.0,0.0,0.0,0.0,0.0,0.0,0.0,0.0,0.0,0.0,0.0,0.0,0.0,0.0,0.0,0.0,0.0,0.0,0.0,0.0,0.0,0.0,0.0,0.0,0.0,0.0,0.0,0.0,0.0,0.0,0.0,0.0,0.0,0.0,0.0,0.0,0.0,0.0,0.0,0.0,0.0,0.0,0.0,0.0,0.0,0.0,0.0,0.0,0.0,0.0,-0.0313,-0.1326,-0.2838,-0.4045,-0.5137,0.0,0.0,0.0,0.0,0.0,0.0,0.0,0.0,0.0,0.0,0.0,0.0,0.0,0.0,0.0,0.0,0.0,0.0,0.0,0.0,0.0,0.0,0.0,0.0,0.0,0.0,0.0,0.0,0.0,0.0,0.0,0.0,0.0,0.0,0.0,0.0,0.0,0.0,0.0,0.0,0.0,0.0,0.0,0.0,0.0,0.0,0.0,0.0,0.0,0.0,0.0,0.0,0.0,0.0,0.0,0.0,0.0,0.0,0.0,0.0,0.0,0.0,0.0,0.0,0.0,0.0,0.0,0.0,0.0,0.0,0.0,0.0,0.0,0.0,0.0,0.0,0.0,0.0,0.0,0.0,0.0,0.0,0.0,0.0,0.0,0.0,0.0,0.0,0.0,0.0,0.0,0.0,0.0,0.0,0.0,0.0,0.0,0.0,0.0,0.0,0.0,0.0,0.0,0.0,0.0,0.0,0.0,0.0,0.0,0.0,-0.0564,-0.1515,-0.2963,-0.3898,-0.4895,0.0,0.0,0.0,0.0,0.0,0.0,0.0,0.0,0.0,0.0,0.0,0.0,0.0,0.0,0.0,0.0,0.0,0.0,0.0,0.0,0.0,0.0,0.0,0.0,0.0,0.0,0.0,0.0,0.0,0.0,0.0,0.0,0.0,0.0,0.0,0.0,0.0,0.0,0.0,0.0,0.0,0.0,0.0,0.0,0.0,0.0,0.0,0.0,0.0,0.0,0.0,0.0,0.0,0.0,0.0,0.0,0.0,0.0,0.0,0.0,0.0,0.0,0.0,0.0,0.0,0.0,0.0,0.0,0.0,0.0,0.0,0.0,0.0,0.0,0.0,0.0,0.0,0.0,0.0,0.0,0.0,0.0,0.0,0.0,0.0,0.0,0.0,0.0,0.0,0.0,0.0,0.0,0.0,0.0,0.0,0.0,0.0,0.0,0.0,0.0,0.0,0.0,0.0,0.0,0.0,0.0,0.0,0.0,0.0,0.0,0.0,-0.1382,-0.2647,-0.3473,-0.4496,0.0,0.0,0.0,0.0,0.0,0.0,0.0,0.0,0.0,0.0,0.0,0.0,0.0,0.0,0.0,0.0,0.0,0.0,0.0,0.0,0.0,0.0,0.0,0.0,0.0,0.0,0.0,0.0,0.0,0.0,0.0,0.0,0.0,0.0,0.0,0.0,0.0,0.0,0.0,0.0,0.0,0.0,0.0,0.0,0.0,0.0,0.0,0.0,0.0,0.0,0.0,0.0,0.0,0.0,0.0,0.0,0.0,0.0,0.0,0.0,0.0,0.0,0.0,0.0,0.0,0.0,0.0,0.0,0.0,0.0,0.0,0.0,0.0,0.0,0.0,0.0,0.0,0.0,0.0,0.0,0.0,0.0,0.0,0.0,0.0,0.0,0.0,0.0,0.0,0.0,0.0,0.0,0.0,0.0,0.0,0.0,0.0,0.0,0.0,0.0,0.0,0.0,0.0,0.0,0.0,0.0,0.0,0.0,0.0,0.0,-0.0311,-0.0995,-0.1951,-0.2777,-0.3945,0.0,0.0,0.0,0.0,0.0,0.0,0.0,0.0,0.0,0.0,0.0,0.0,0.0,0.0,0.0,0.0,0.0,0.0,0.0,0.0,0.0,0.0,0.0,0.0,0.0,0.0,0.0,0.0,0.0,0.0,0.0,0.0,0.0,0.0,0.0,0.0,0.0,0.0,0.0,0.0,0.0,0.0,0.0,0.0,0.0,0.0,0.0,0.0,0.0,0.0,0.0,0.0,0.0,0.0,0.0,0.0,0.0,0.0,0.0,0.0,0.0,0.0,0.0,0.0,0.0,0.0,0.0,0.0,0.0,0.0,0.0,0.0,0.0,0.0,0.0,0.0,0.0,0.0,0.0,0.0,0.0,0.0,0.0,0.0,0.0,0.0,0.0,0.0,0.0,0.0,0.0,0.0,0.0,0.0,0.0,0.0,0.0,0.0,0.0,0.0,0.0,0.0,0.0,0.0,0.0,0.0,0.0,0.0,0.0,0.0,-0.0309,-0.0866,-0.1613,-0.2727,-0.3863,0.0,0.0,0.0,0.0,0.0,0.0,0.0,0.0,0.0,0.0,0.0,0.0,0.0,0.0,0.0,0.0,0.0,0.0,0.0,0.0,0.0,0.0,0.0,0.0,0.0,0.0,0.0,0.0,0.0,0.0,0.0,0.0,0.0,0.0,0.0,0.0,0.0,0.0,0.0,0.0,0.0,0.0,0.0,0.0,0.0,0.0,0.0,0.0,0.0,0.0,0.0,0.0,0.0,0.0,0.0,0.0,0.0,0.0,0.0,0.0,0.0,0.0,0.0,0.0,0.0,0.0,0.0,0.0,0.0,0.0,0.0,0.0,0.0,0.0,0.0,0.0,0.0,0.0,0.0,0.0,0.0,0.0,0.0,0.0,0.0,0.0,0.0,0.0,0.0,0.0,0.0,0.0,0.0,0.0,0.0,0.0,0.0,0.0,0.0,0.0,0.0,0.0,0.0,0.0,0.0,0.0,0.0,0.0,0.0,0.0,-0.0187,-0.0685,-0.1492,-0.2449,-0.3547,-0.4879,0.0,0.0,0.0,0.0,0.0,0.0,0.0,0.0,0.0,0.0,0.0,0.0,0.0,0.0,0.0,0.0,0.0,0.0,0.0,0.0,0.0,0.0,0.0,0.0,0.0,0.0,0.0,0.0,0.0,0.0,0.0,0.0,0.0,0.0,0.0,0.0,0.0,0.0,0.0,0.0,0.0,0.0,0.0,0.0,0.0,0.0,0.0,0.0,0.0,0.0,0.0,0.0,0.0,0.0,0.0,0.0,0.0,0.0,0.0,0.0,0.0,0.0,0.0,0.0,0.0,0.0,0.0,0.0,0.0,0.0,0.0,0.0,0.0,0.0,0.0,0.0,0.0,0.0,0.0,0.0,0.0,0.0,0.0,0.0,0.0,0.0,0.0,0.0,0.0,0.0,0.0,0.0,0.0,0.0,0.0,0.0,0.0,0.0,0.0,0.0,0.0,0.0,0.0,0.0,0.0,0.0,0.0,0.0,0.0,0.0,-0.0506,-0.145,-0.2053,-0.3041,0.0,0.0,0.0,0.0,0.0,0.0,0.0,0.0,0.0,0.0,0.0,0.0,0.0,0.0,0.0,0.0,0.0,0.0,0.0,0.0,0.0,0.0,0.0,0.0,0.0,0.0,0.0,0.0,0.0,0.0,0.0,0.0,0.0,0.0,0.0,0.0,0.0,0.0,0.0,0.0,0.0,0.0,0.0,0.0,0.0,0.0,0.0,0.0,0.0,0.0,0.0,0.0,0.0,0.0,0.0,0.0,0.0,0.0,0.0,0.0,0.0,0.0,0.0,0.0,0.0,0.0,0.0,0.0,0.0,0.0,0.0,0.0,0.0,0.0,0.0,0.0,0.0,0.0,0.0,0.0,0.0,0.0,0.0,0.0,0.0,0.0,0.0,0.0,0.0,0.0,0.0,0.0,0.0,0.0,0.0,0.0,0.0,0.0,0.0,0.0,0.0,0.0,0.0,0.0,0.0,0.0,0.0,0.0,0.0,0.0,0.0,-0.0387,-0.1137,-0.2011,-0.3012,0.0,0.0,0.0,0.0,0.0,0.0,0.0,0.0,0.0,0.0,0.0,0.0,0.0,0.0,0.0,0.0,0.0,0.0,0.0,0.0,0.0,0.0,0.0,0.0,0.0,0.0,0.0,0.0,0.0,0.0,0.0,0.0,0.0,0.0,0.0,0.0,0.0,0.0,0.0,0.0,0.0,0.0,0.0,0.0,0.0,0.0,0.0,0.0,0.0,0.0,0.0,0.0,0.0,0.0,0.0,0.0,0.0,0.0,0.0,0.0,0.0,0.0,0.0,0.0,0.0,0.0,0.0,0.0,0.0,0.0,0.0,0.0,0.0,0.0,0.0,0.0,0.0,0.0,0.0,0.0,0.0,0.0,0.0,0.0,0.0,0.0,0.0,0.0,0.0,0.0,0.0,0.0,0.0,0.0,0.0,0.0,0.0,0.0,0.0,0.0,0.0,0.0,0.0,0.0,0.0,0.0,0.0,0.0,0.0,0.0,0.0,-0.0261,-0.0766,-0.1783,-0.2742,0.0,0.0,0.0,0.0,0.0,0.0,0.0,0.0,0.0,0.0,0.0,0.0,0.0,0.0,0.0,0.0,0.0,0.0,0.0,0.0,0.0,0.0,0.0,0.0,0.0,0.0,0.0,0.0,0.0,0.0,0.0,0.0,0.0,0.0,0.0,0.0,0.0,0.0,0.0,0.0,0.0,0.0,0.0,0.0,0.0,0.0,0.0,0.0,0.0,0.0,0.0,0.0,0.0,0.0,0.0,0.0,0.0,0.0,0.0,0.0,0.0,0.0,0.0,0.0,0.0,0.0,0.0,0.0,0.0,0.0,0.0,0.0,0.0,0.0,0.0,0.0,0.0,0.0,0.0,0.0,0.0,0.0,0.0,0.0,0.0,0.0,0.0,0.0,0.0,0.0,0.0,0.0,0.0,0.0,0.0,0.0,0.0,0.0,0.0,0.0,0.0,0.0,0.0,0.0,0.0,0.0,0.0,0.0,0.0,0.0,0.0,-0.0131,-0.0452,-0.1419,-0.2336,0.0,0.0,0.0,0.0,0.0,0.0,0.0,0.0,0.0,0.0,0.0,0.0,0.0,0.0,0.0,0.0,0.0,0.0,0.0,0.0,0.0,0.0,0.0,0.0,0.0,0.0,0.0,0.0,0.0,0.0,0.0,0.0,0.0,0.0,0.0,0.0,0.0,0.0,0.0,0.0,0.0,0.0,0.0,0.0,0.0,0.0,0.0,0.0,0.0,0.0,0.0,0.0,0.0,0.0,0.0,0.0,0.0,0.0,0.0,0.0,0.0,0.0,0.0,0.0,0.0,0.0,0.0,0.0,0.0,0.0,0.0,0.0,0.0,0.0,0.0,0.0,0.0,0.0,0.0,0.0,0.0,0.0,0.0,0.0,0.0,0.0,0.0,0.0,0.0,0.0,0.0,0.0,0.0,0.0,0.0,0.0,0.0,0.0,0.0,0.0,0.0,0.0,0.0,0.0,0.0,0.0,0.0,0.0,0.0,0.0,0.0,-0.0066,-0.0129,-0.1097,-0.202,0.0,0.0,0.0,0.0,0.0,0.0,0.0,0.0,0.0,0.0,0.0,0.0,0.0,0.0,0.0,0.0,0.0,0.0,0.0,0.0,0.0,0.0,0.0,0.0,0.0,0.0,0.0,0.0,0.0,0.0,0.0,0.0,0.0,0.0,0.0,0.0,0.0,0.0,0.0,0.0,0.0,0.0,0.0,0.0,0.0,0.0,0.0,0.0,-0.0675,0.0,0.0,0.0,0.0,0.0,0.0,0.0,0.0,0.0,0.0,0.0,0.0,0.0,0.0,0.0,0.0,0.0,0.0,0.0,0.0,0.0,0.0,0.0,0.0,0.0,0.0,0.0,0.0,0.0,0.0,0.0,0.0,0.0,0.0,0.0,0.0,0.0,0.0,0.0,0.0,0.0,0.0,0.0,0.0,0.0,0.0,0.0,0.0,0.0,0.0,0.0,0.0,0.0,0.0,0.0,0.0,0.0,0.0,0.0,0.0,0.0,0.0,0.0,0.0,-0.0641,-0.1448,0.0,0.0,0.0,0.0,0.0,0.0,0.0,0.0,0.0,0.0,0.0,0.0,0.0,0.0,0.0,0.0,0.0,0.0,0.0,0.0,0.0,0.0,0.0,0.0,0.0,0.0,0.0,0.0,0.0,0.0,0.0,0.0,0.0,0.0,0.0,0.0,0.0,0.0,0.0,0.0,0.0,0.0,0.0,0.0,0.0,0.0,0.0,0.0,0.0,0.0,0.0,0.0,0.0,0.0,0.0,0.0,0.0,0.0,0.0,0.0,0.0,0.0,0.0,0.0,0.0,0.0,0.0,0.0,0.0,0.0,0.0,0.0,0.0,0.0,0.0,0.0,0.0,0.0,0.0,0.0,0.0,0.0,0.0,0.0,0.0,0.0,0.0,0.0,0.0,0.0,0.0,0.0,0.0,0.0,0.0,0.0,0.0,0.0,0.0,0.0,0.0,0.0,0.0,0.0,0.0,0.0,0.0,0.0,0.0,0.0,0.0,0.0,0.0,-0.0254,-0.0815,-0.1727,0.0,0.0,0.0,0.0,0.0,0.0,0.0,0.0,0.0,0.0,0.0,0.0,0.0,0.0,0.0,0.0,0.0,0.0,0.0,0.0,0.0,0.0,0.0,0.0,0.0,0.0,0.0,0.0,0.0,0.0,0.0,0.0,0.0,0.0,0.0,0.0,0.0,0.0,0.1071,0.0986,0.0,0.0,0.0,0.0,0.0,0.0,0.0,0.0,-0.0432,0.0,0.0,0.0,0.0,0.0,0.0,0.0,0.0,0.0,0.0,0.0,0.0,0.0,0.0,0.0,0.0,0.0,0.0,0.0,0.0,0.0,0.0,0.0,0.0,0.0,0.0,0.0,0.0,0.0,0.0,0.0,0.0,0.0,0.0,0.0,0.0,0.0,0.0,0.0,0.0,0.0,0.0,0.0,0.0,0.0,0.0,0.0,0.0,0.0,0.0,0.0,0.0,0.0,0.0,0.0,0.0,0.0,0.0,0.0,0.0,0.0,0.0,0.0,-0.0063,-0.0251,-0.0741,0.0,0.0,0.0,0.0,0.0,0.0,0.0,0.0,0.0,0.0,0.0,0.0,0.0,0.0,0.0,0.0,0.0,0.0,0.0,0.0,0.0,0.0,0.0,0.0,0.0,0.0,0.0,0.0,0.0,0.0,0.0,0.0,0.0,0.0,0.0,0.0,0.0,0.0,0.0,0.1485,0.1331,0.0,0.0,0.0,0.0,0.0,0.0,0.0,0.0,-0.0247,0.0,0.0,0.0,0.0,0.0,0.0,0.0,0.0,0.0,0.0,0.0,0.0,0.0,0.0,0.0,0.0,0.0,0.0,0.0,0.0,0.0,0.0,0.0,0.0,0.0,0.0,0.0,0.0,0.0,0.0,0.0,0.0,0.0,0.0,0.0,0.0,0.0,0.0,0.0,0.0,0.0,0.0,0.0,0.0,0.0,0.0,0.0,0.0,0.0,0.0,0.0,0.0,0.0,0.0,0.0,0.0,0.0,0.0,0.0,0.0,0.0,0.0,0.0,-0.0184,0.0,0.0,0.0,0.0,0.0,0.0,0.0,0.0,0.0,0.0,0.0,0.0,0.0,0.0,0.0,0.0,0.0,0.0,0.0,0.0,0.0,0.0,0.0,0.0,0.0,0.0,0.0,0.0,0.0,0.0,0.0,0.0,0.0,0.0,0.0,0.0,0.0,0.0,0.0,0.0,0.1732,0.1699,0.1726,0.0,0.0,0.0,0.0,0.0,0.0,0.0371,0.0185,0.0,0.0,0.0,0.0,0.0,0.0,0.0,0.0,0.0,0.0,0.0,0.0,0.0,0.0,0.0,0.0,0.0,0.0,0.0,0.0,0.0,0.0,0.0,0.0,0.0,0.0,0.0,0.0,0.0,0.0,0.0,0.0,0.0,0.0,0.0,0.0,0.0,0.0,0.0,0.0,0.0,0.0,0.0,0.0,0.0,0.0,0.0,0.0,0.0,0.0,0.0,0.0,0.0,0.0,0.0,0.0,0.0,0.0,0.0,0.0,0.0,0.0,0.0,-0.012,0.0,0.0,0.0,0.0,0.0,0.0,0.0,0.0,0.0,0.0,0.0,0.0,0.0,0.0,0.0,0.0,0.0,0.0,0.0,0.0,0.0,0.0,0.0,0.0,0.0,0.0,0.0,0.0,0.0,0.0,0.0,0.0,0.0,0.0,0.0,0.0,0.0,0.0,0.0,0.0,0.0,0.1949,0.1973,0.1791,0.0,0.0,0.0,0.0,0.0988,0.0741,0.0,0.0,0.0,0.0,0.0,0.0,0.0,0.0,0.0,0.0,0.0,0.0,0.0,0.0,0.0,0.0,0.0,0.0,0.0,0.0,0.0,0.0,0.0,0.0,0.0,0.0,0.0,0.0,0.0,0.0,0.0,0.0,0.0,0.0,0.0,0.0,0.0,0.0,0.0,0.0,0.0,0.0,0.0,0.0,0.0,0.0,0.0,0.0,0.0,0.0,0.0,0.0,0.0,0.0,0.0,0.0,0.0,0.0,0.0,0.0,0.0,0.0,0.0,0.0,0.0,0.0,0.0,0.0,0.0,0.0,0.0,0.0,0.0,0.0,0.0,0.0,0.0,0.0,0.0,0.0,0.0,0.0,0.0,0.0,0.0,0.0,0.0,0.0,0.0,0.0,0.0,0.0,0.0,0.0,0.0,0.0,0.0,0.0,0.0,0.0,0.0,0.0,0.0,0.0,0.0,0.0,0.1973,0.1976,0.1977,0.1853,0.0,0.0,0.1359,0.105,0.0988,0.0,0.0,0.0,0.0,0.0,0.0,0.0,0.0,0.0,0.0,0.0,0.0,0.0,0.0,0.0,0.0,0.0,0.0,0.0,0.0,0.0,0.0,0.0,0.0,0.0,0.0,0.0,0.0,0.0,0.0,0.0,0.0,0.0,0.0,0.0,0.0,0.0,0.0,0.0,0.0,0.0,0.0,0.0,0.0,0.0,0.0,0.0,0.0,0.0,0.0,0.0,0.0,0.0,0.0,0.0,0.0,0.0,0.0,0.0,0.0,0.0,0.0,0.0,0.0,0.0,0.0,0.0,0.0,0.0,0.0,0.0,0.0,0.0,0.0,0.0,0.0,0.0,0.0,0.0,0.0,0.0,0.0,0.0,0.0,0.0,0.0,0.0,0.0,0.0,0.0,0.0,0.0,0.0,0.0,0.0,0.0,0.0,0.0,0.0,0.0,0.0,0.0,0.0,0.0,0.0,0.0,0.0,0.2038,0.2038,0.0,0.0,0.0,0.173,0.1606,0.0,0.0,0.0,0.0,0.0,0.0,0.0,0.0,0.0,0.0,0.0,0.0,0.0,0.0,0.0,0.0,0.0,0.0,0.0,0.0,0.0,0.0,0.0,0.0,0.0,0.0,0.0,0.0,0.0,0.0,0.0,0.0,0.0,0.0,0.0,0.0,0.0,0.0,0.0,0.0,0.0,0.0,0.0,0.0,0.0,0.0,0.0,0.0,0.0,0.0,0.0,0.0,0.0,0.0,0.0,0.0,0.0,0.0117,0.0119,0.006,0.006,0.006,0.0,0.0,0.0,0.0,0.0,0.0,0.0,0.0,0.0,0.0,0.0,0.0,0.0,0.0,0.0,0.0,0.0,0.0,0.0,0.0,0.0,0.0,0.0,0.0,0.0,0.0,0.0,0.0,0.0,0.0,0.1105,0.0,0.0,0.0,0.0,0.0,0.0,0.0,0.0,0.0,0.0,0.0,0.0,0.0,0.0,0.2038,0.2038,0.2038,0.2038,0.0,0.0,0.1974,0.1967,0.1703,0.1507,0.0,0.0,0.0,0.0,0.0,0.0,0.0,0.0,0.0,0.0,0.0,0.0,0.0,0.0,0.0,0.0,0.0,0.0,0.0,0.0,0.0,0.0,0.0,0.0,0.0,0.0,0.0,0.0,0.0,0.0,0.0,0.0,0.0,0.0,0.0,0.0,0.0,0.0,0.0,0.0,0.0,0.0,0.0,0.0,0.0,0.0,0.0,0.0,0.0,0.0,0.0,0.0,0.0,0.0,0.0403,0.0346,0.0351,0.0354,0.0354,0.0118,0.0,0.0,0.0,0.0,0.0,0.0,0.0,0.0,0.0,0.0,0.0,0.0,0.0,0.0,0.0,0.0,0.0,0.0,0.0,0.0,0.0,0.0,0.0,0.0,0.0,0.0,0.0,0.0,0.0,0.0,0.0,0.0,0.0,0.0,0.0,0.0,0.0,0.0,0.0,0.0,0.0,0.0,0.0,0.0,0.0,0.2038,0.2038,0.2038,0.2038,0.0,0.2038,0.1967,0.1939,0.1872,0.1862,0.1834,0.0,0.0,0.0,0.0,0.0,0.0,0.0,0.0,0.0,0.0,0.0,0.0,0.0,0.0,0.0,0.0,0.0,0.0,0.0,0.0,0.0,0.0,0.0,0.0,0.0,0.0,0.0,0.0,0.0,0.0,0.0,0.0,0.0,0.0,0.0,0.0,0.0,0.0,0.0,0.0,0.0,0.0,0.0,0.0,0.0,0.0,0.0,0.0,0.0,0.0,0.0,0.0,0.0,0.051,0.068,0.0691,0.0696,0.0697,0.0406,0.0231,0.023,0.0114,0.0,0.0,0.0,0.0,0.0,0.0,0.0,0.0,0.0,0.0,0.0,0.0,0.0,0.0,0.0,0.0,0.0,0.0,0.0,0.0,0.0,0.0,0.0,0.0,0.0,0.0,0.0,0.0,0.0,0.1778,0.1782,0.1793,0.0,0.0,0.0,0.0,0.0,0.0,0.0,0.0,0.0,0.0,0.1949,0.1948,0.1964,0.0,0.0,0.2038,0.1973,0.1961,0.1928,0.19,0.1887,0.1739,0.0,0.0,0.0,0.0,0.0,0.0,0.0,0.0,0.0,0.0,0.0,0.0,0.0,0.0,0.0,0.0,0.0,0.0,0.0,0.0,0.0,0.0,0.0,0.0,0.0,0.0,0.0,0.0,0.0,0.0,0.0,0.0,0.0,0.0,0.0,0.0,0.0,0.0,0.0,0.0,0.0,0.0,0.0,0.0,0.0,0.0,0.0,0.0,0.0,0.0,0.0,0.0,0.0785,0.1009,0.1021,0.1027,0.1027,0.0742,0.0571,0.0513,0.0393,0.0221,0.0,0.0,0.0,0.0,0.0,0.0,0.0,0.0,0.0,0.0,0.0,0.0,0.0,0.0,0.0,0.0,0.0,0.0,0.0,0.0,0.0,0.0,0.0,0.0,0.0,0.0,0.0,0.0,0.1795,0.1795,0.1795,0.0,0.0,0.0,0.0,0.0,0.0,0.0,0.0,0.0,0.0,0.1917,0.1918,0.1943,0.1963,0.1963,0.1971,0.1974,0.1964,0.1919,0.1882,0.1874,0.0,0.0,0.0,0.0,0.0,0.0,0.0,0.0,0.0,0.0,0.0,0.0,0.0,0.0,0.0,0.0,0.0,0.0,0.0,0.0,0.0,0.0,0.0,0.0,0.0,0.0,0.0,0.0,0.0,0.0,0.0,0.0,0.0,0.0,0.0,0.0,0.0,0.0,0.0,0.0,0.0,0.0,0.0,0.0,0.0,0.0,0.0,0.0,0.0,0.0,0.0,0.0,0.0,0.129,0.129,0.1291,0.1291,0.1291,0.101,0.0898,0.0897,0.0883,0.0711,0.0438,0.0,0.0,0.0,0.0,0.0,0.0,0.0,0.0,0.0,0.0,0.0,0.0,0.0,0.0,0.0,0.0,0.0,0.0,0.0,0.0,0.0,0.0,0.0,0.0,0.0,0.0,0.1795,0.1795,0.1795,0.0,0.0,0.0,0.0,0.0,0.0,0.0,0.0,0.0,0.0,0.1867,0.1887,0.1887,0.1913,0.1934,0.1872,0.1957,0.1967,0.1938,0.1907,0.1876,0.0,0.0,0.0,0.0,0.0,0.0,0.0,0.0,0.0,0.0,0.0,0.0,0.0,0.0,0.0,0.0,0.0,0.0,0.0,0.0,0.0,0.0,0.0,0.0,0.0,0.0,0.0,0.0631,0.0637,0.0,0.0,0.0,0.0,0.0,0.0,0.0,0.0,0.0,0.0,0.0,0.0897,0.0897,0.0,0.0,0.0,0.0,0.0,0.0,0.0,0.0,0.0,0.0,0.0,0.0,0.1402,0.1627,0.1627,0.1617,0.1655,0.1324,0.1152,0.1193,0.0971,0.0753,0.0646,0.0,0.0,0.0,0.0,0.0,0.0,0.0,0.0,0.0,0.0,0.0,0.0,0.0,0.0,0.0,0.0,0.0,0.0,0.0,0.0,0.0,0.0,0.0,0.0,0.0,0.1795,0.0,0.0,0.0,0.0,0.0,0.0,0.0,0.0,0.0,0.0,0.0,0.181,0.181,0.1836,0.1855,0.1855,0.184,0.1871,0.0,0.0,0.0,0.0,0.0,0.0,0.0,0.0,0.0,0.0,0.0,0.0,0.0,0.0,0.1923,0.1942,0.1922,0.1895,0.1816,0.0,0.0,0.0,0.0,0.0,0.0,0.0,0.0,0.0,0.0,0.0,0.0,0.0,0.0,0.1032,0.0,0.0744,0.0,0.0,0.0,0.0,0.0,0.0,0.0,0.0,0.0953,0.1121,0.1234,0.1234,0.1234,0.0,0.1234,0.1234,0.0,0.0,0.0,0.0,0.0,0.0,0.0,0.0,0.1566,0.1779,0.1779,0.1819,0.1735,0.1572,0.1455,0.1438,0.1113,0.0951,0.0951,0.0873,0.0813,0.0,0.0,0.0,0.0,0.0,0.0,0.0,0.0,0.0,0.0,0.0,0.0,0.0,0.0,0.0,0.0,0.0,0.0,0.0,0.0,0.0,0.0,0.0,0.1795,0.0,0.0,0.0,0.0,0.0,0.0,0.0,0.0,0.0,0.1795,0.1795,0.1795,0.1795,0.1812,0.1824,0.1824,0.0,0.0,0.0,0.0,0.0,0.0,0.0,0.1864,0.1786,0.1815,0.1795,0.1795,0.1821,0.1783,0.1783,0.0,0.0,0.191,0.1891,0.1864,0.1786,0.1783,0.1774,0.1801,0.1804,0.1808,0.0,0.0,0.0,0.0,0.0,0.0,0.0,0.0,0.1404,0.1237,0.0,0.0956,0.0,0.0,0.0,0.0,0.0,0.0897,0.0,0.0,0.129,0.1458,0.1795,0.1795,0.1795,0.1795,0.1795,0.1795,0.1739,0.1458,0.0,0.0,0.0,0.0,0.0,0.0,0.1779,0.1806,0.1804,0.1788,0.1704,0.1703,0.1702,0.1701,0.1466,0.1298,0.1298,0.102,0.0808,0.0808,0.0859,0.0,0.0,0.0,0.0,0.0,0.0,0.0,0.0,0.0,0.0,0.0,0.0,0.0,0.0,0.0,0.0,0.0,0.0,0.0,0.0,0.1795,0.0,0.0,0.0,0.0,0.0,0.0,0.0,0.0,0.0,0.0,0.1795,0.1795,0.1795,0.1795,0.0,0.0,0.0,0.0,0.1784,0.1784,0.1866,0.1886,0.1944,0.1859,0.184,0.1839,0.0,0.0,0.1851,0.1819,0.1838,0.1839,0.1838,0.1848,0.1935,0.1859,0.1782,0.178,0.178,0.1828,0.1804,0.1815,0.1826,0.5677,0.0,0.0,0.0,0.0,0.3202,0.3047,0.291,0.2738,0.2355,0.1859,0.1665,0.0,0.0,0.0,0.0,0.0,0.0,0.1234,0.1346,0.157,0.1739,0.1795,0.1795,0.1795,0.1795,0.1795,0.1795,0.1795,0.1683,0.1683,0.1683,0.0,0.0,0.0,0.0,0.1813,0.1804,0.1728,0.1703,0.1727,0.1726,0.1726,0.1726,0.1594,0.1538,0.1557,0.1429,0.1364,0.1364,0.1364,0.0,0.0,0.0,0.0,0.0,0.0,0.0,0.0,0.0,0.0,0.0,0.0,0.0,0.0,0.0,0.0,0.0,0.0,0.0,0.1794,0.1795,0.1795,0.0,0.0,0.0,0.0,0.0,0.0,0.0,0.0,0.0,0.1795,0.1795,0.1795,0.0,0.0,0.1795,0.1795,0.1821,0.1783,0.1783,0.1866,0.0,0.0,0.2193,0.2234,0.2435,0.242,0.2412,0.2468,0.2479,0.243,0.2431,0.243,0.2434,0.2443,0.2098,0.1808,0.1808,0.1808,0.1806,0.1798,0.1803,0.1806,0.7511,0.6044,0.5443,0.5123,0.4972,0.4604,0.4337,0.4093,0.3694,0.3204,0.2599,0.2288,0.1993,0.1708,0.1409,0.0,0.0,0.0,0.1514,0.1514,0.1739,0.1795,0.1795,0.1795,0.1795,0.1795,0.1795,0.1795,0.1795,0.1795,0.1789,0.1778,0.0,0.0,0.1777,0.1814,0.1792,0.1769,0.1697,0.1673,0.1645,0.1644,0.1701,0.1712,0.1633,0.1631,0.1712,0.1633,0.1566,0.1566,0.1566,0.1566,0.0,0.0,0.0,0.0,0.0,0.0,0.0,0.0,0.0,0.0,0.0,0.1704,0.1818,0.0,0.0,0.0,0.1784,0.179,0.1778,0.1788,0.0,0.0,0.0,0.0,0.0,0.0,0.0,0.1795,0.1795,0.1795,0.1795,0.1907,0.1907,0.1795,0.1795,0.1795,0.1795,0.0,0.1936,0.1993,0.2125,0.2247,0.2453,0.245,0.2555,0.2641,0.2693,0.2693,0.2693,0.2693,0.2693,0.2693,0.2693,0.2693,0.2693,0.2412,0.2132,0.2132,0.2132,0.2132,0.2132,0.2132,0.2132,0.8959,0.823,0.7172,0.6667,0.6583,0.6095,0.5601,0.4975,0.4419,0.3808,0.3193,0.2917,0.2581,0.2244,0.1963,0.0,0.1851,0.1851,0.1795,0.1795,0.1795,0.1795,0.1795,0.1795,0.1795,0.1795,0.1795,0.1795,0.1795,0.1792,0.1778,0.1807,0.1777,0.1777,0.1806,0.1804,0.1777,0.1723,0.1717,0.17,0.1618,0.1619,0.1635,0.1717,0.1639,0.1637,0.1716,0.1637,0.162,0.162,0.1618,0.1618,0.162,0.0,0.0,0.0,0.0,0.0,0.0,0.0,0.0,0.0,0.0,0.0,0.0,0.0,0.0,0.1791,0.1791,0.0,0.1804,0.1775,0.0,0.0,0.0,0.1795,0.1795,0.1795,0.1795,0.1795,0.0,0.0,0.1851,0.2075,0.213,0.1904,0.1848,0.1847,0.1847,0.2068,0.2235,0.2232,0.2518,0.2744,0.28,0.2862,0.2921,0.2975,0.2862,0.2917,0.2917,0.2917,0.2862,0.2917,0.2862,0.2862,0.2806,0.2862,0.2806,0.2806,0.2693,0.2693,0.2637,0.2637,0.2637,0.9559,0.9392,0.9038,0.832,0.7502,0.7136,0.6735,0.6212,0.5596,0.4758,0.3751,0.3475,0.3085,0.2581,0.2524,0.2356,0.2132,0.2132,0.2019,0.1795,0.1795,0.1795,0.1795,0.1795,0.1795,0.1795,0.1795,0.1795,0.1793,0.1827,0.1811,0.1805,0.1812,0.1811,0.1805,0.1804,0.1798,0.1783,0.1738,0.1699,0.1619,0.1639,0.1665,0.1693,0.1687,0.1687,0.1694,0.1667,0.1703,0.1702,0.1629,0.1628,0.1702,0.1629,0.0,0.0,0.0,0.0,0.0,0.0,0.0,0.0,0.0,0.172,0.1812,0.0,0.1815,0.0,0.1815,0.1748,0.1718,0.1763,0.0,0.0,0.178,0.1795,0.1795,0.1795,0.1795,0.1795,0.1963,0.2076,0.2132,0.2356,0.2513,0.2426,0.2421,0.2421,0.2421,0.2393,0.2428,0.2486,0.2728,0.3024,0.3302,0.3725,0.4029,0.4033,0.4089,0.4089,0.4089,0.4089,0.4089,0.4089,0.4089,0.3977,0.3698,0.3701,0.3587,0.3421,0.3029,0.2693,0.2693,0.2693,0.2693,0.9819,0.9812,0.9737,0.9235,0.8501,0.8157,0.7607,0.7049,0.6434,0.5596,0.4587,0.3923,0.3421,0.3085,0.2806,0.2581,0.2412,0.2412,0.2244,0.1963,0.1963,0.1907,0.1795,0.1795,0.1795,0.1795,0.1795,0.1795,0.1793,0.182,0.1797,0.1784,0.1797,0.1797,0.173,0.1797,0.1797,0.1729,0.1698,0.1673,0.1657,0.1672,0.1688,0.1703,0.1704,0.1699,0.1686,0.1723,0.1656,0.1643,0.1639,0.1645,0.1712,0.1698,0.1637,0.0,0.0,0.0,0.0,0.0,0.0,0.0,0.0,0.0,0.0,0.0,0.1783,0.1729,0.1729,0.1722,0.1705,0.1735,0.1753,0.1805,0.182,0.1836,0.1961,0.1963,0.2019,0.2188,0.2356,0.2412,0.2412,0.2676,0.2931,0.3009,0.302,0.3,0.2805,0.2839,0.2929,0.309,0.3329,0.3618,0.3942,0.4407,0.4707,0.4709,0.4707,0.4709,0.4707,0.4707,0.4653,0.4598,0.4544,0.4435,0.4166,0.4057,0.4002,0.3891,0.3618,0.3308,0.3131,0.3085,0.3085,0.9819,0.9819,0.9819,0.9663,0.9398,0.8963,0.8357,0.7607,0.7049,0.6265,0.5316,0.4258,0.3755,0.3699,0.3142,0.2862,0.2806,0.2806,0.2581,0.2244,0.2244,0.2075,0.1851,0.1851,0.1795,0.1795,0.1795,0.1795,0.1794,0.1815,0.1784,0.1705,0.1781,0.1779,0.1701,0.1783,0.1787,0.171,0.171,0.1708,0.1704,0.1708,0.171,0.171,0.1714,0.1701,0.1721,0.1719,0.1654,0.1626,0.17,0.1716,0.1719,0.1719,0.1718,0.0,0.1637,0.0,0.0,0.0,0.0,0.0,0.0,0.0,0.0,0.1717,0.1703,0.1699,0.1702,0.1701,0.1694,0.1699,0.1766,0.1843,0.185,0.1974,0.2224,0.223,0.2341,0.262,0.2733,0.2732,0.2728,0.3026,0.3269,0.3463,0.3651,0.3656,0.3268,0.3379,0.3585,0.3859,0.4133,0.4459,0.4737,0.5006,0.5222,0.5163,0.5278,0.5212,0.5222,0.522,0.5112,0.4845,0.4797,0.4741,0.4418,0.4372,0.4317,0.4271,0.4166,0.3988,0.3695,0.3553,0.3622,0.9819,0.9819,0.9819,0.9724,0.9554,0.9347,0.8729,0.7881,0.7551,0.6657,0.5371,0.4871,0.4536,0.4313,0.3924,0.3646,0.3419,0.3138,0.2859,0.2581,0.23,0.2188,0.2132,0.1907,0.1795,0.1795,0.1795,0.1795,0.1793,0.174,0.171,0.1703,0.1687,0.1728,0.1724,0.0,0.0,0.0,0.1795,0.1729,0.1707,0.1782,0.1795,0.1796,0.1765,0.0,0.17,0.1696,0.1683,0.1656,0.1711,0.0,0.0,0.0,0.0,0.0,0.0,0.0,0.0,0.0,0.0,0.0,0.1622,0.1641,0.1728,0.1695,0.1695,0.1726,0.1691,0.1684,0.1639,0.1886,0.2015,0.2047,0.2229,0.2413,0.2421,0.2477,0.2476,0.2529,0.28,0.2962,0.2964,0.3378,0.3673,0.3733,0.406,0.4334,0.4438,0.4287,0.4231,0.4335,0.4803,0.5287,0.5624,0.5888,0.6035,0.6054,0.6217,0.6263,0.6097,0.6047,0.5946,0.5677,0.5636,0.5576,0.5259,0.5106,0.4831,0.4572,0.436,0.4108,0.3813,0.3764,0.3725,0.9819,0.0,0.9819,0.9741,0.0,0.9445,0.902,0.8308,0.7964,0.7102,0.5986,0.5429,0.5094,0.4925,0.448,0.4091,0.3813,0.3643,0.3307,0.2915,0.2748,0.2579,0.2468,0.23,0.2132,0.2019,0.2019,0.1907,0.1793,0.1749,0.1719,0.1704,0.169,0.1728,0.1716,0.169,0.172,0.1804,0.1804,0.1804,0.1749,0.1764,0.182,0.1806,0.0,0.0,0.0,0.0,0.0,0.0,0.0,0.0,0.0,0.0,0.0,0.1715,0.17,0.1633,0.1618,0.1566,0.1566,0.1566,0.1566,0.1623,0.1639,0.1667,0.1671,0.1643,0.1756,0.1804,0.1825,0.2054,0.2231,0.2334,0.2406,0.2532,0.2713,0.277,0.2825,0.2931,0.3196,0.3409,0.3409,0.3696,0.4033,0.4252,0.4471,0.4841,0.5249,0.5039,0.4841,0.514,0.5682,0.6144,0.6349,0.6567,0.6773,0.677,0.6876,0.6876,0.677,0.6719,0.667,0.6416,0.6262,0.6056,0.5798,0.5541,0.5281,0.5126,0.487,0.4614,0.4359,0.4152,0.395,0.9819,0.9819,0.9819,0.9737,0.9598,0.9445,0.9107,0.8655,0.0,0.0,0.0,0.5986,0.5594,0.5541,0.4927,0.4536,0.426,0.4148,0.3811,0.325,0.3194,0.3027,0.275,0.2693,0.2581,0.23,0.23,0.2188,0.1961,0.1979,0.1945,0.1865,0.18,0.1729,0.1658,0.1677,0.1704,0.1787,0.1793,0.1754,0.1778,0.1779,0.1767,0.1797,0.1796,0.177,0.1717,0.1714,0.17,0.162,0.1697,0.1714,0.1714,0.1719,0.1719,0.1713,0.1639,0.1622,0.1618,0.1566,0.1566,0.1566,0.1617,0.1667,0.1617,0.1691,0.1747,0.1669,0.192,0.2071,0.2071,0.2323,0.2487,0.2525,0.2581,0.2753,0.3001,0.3063,0.3215,0.3433,0.3633,0.3848,0.3895,0.411,0.4382,0.4836,0.5035,0.5336,0.5939,0.5839,0.5691,0.6142,0.6553,0.6851,0.6945,0.7156,0.7338,0.7409,0.75,0.7484,0.7437,0.7388,0.7238,0.6962,0.6739,0.6498,0.6245,0.6004,0.5787,0.5737,0.5539,0.524,0.5,0.4696,0.4425,0.9819,0.9819,0.9819,0.9737,0.9598,0.9445,0.9047,0.8461,0.789,0.7438,0.7099,0.6712,0.6381,0.6161,0.5543,0.526,0.5204,0.4704,0.4201,0.0,0.3643,0.3362,0.3026,0.2805,0.2693,0.2637,0.2637,0.2637,0.2573,0.25,0.251,0.2443,0.2119,0.1831,0.1624,0.1627,0.1644,0.1726,0.1699,0.1713,0.1717,0.1717,0.1715,0.1711,0.171,0.1696,0.1717,0.1714,0.1648,0.162,0.1698,0.1714,0.1715,0.1736,0.1688,0.1717,0.171,0.1644,0.1619,0.1566,0.1566,0.1617,0.1819,0.1869,0.1617,0.1823,0.1925,0.197,0.2171,0.2371,0.2371,0.2573,0.2729,0.2786,0.299,0.3147,0.3212,0.3365,0.3519,0.3571,0.3813,0.407,0.428,0.4519,0.4813,0.5212,0.5754,0.6384,0.6789,0.6792,0.6742,0.6939,0.7089,0.7238,0.7484,0.7736,0.7935,0.8184,0.8379,0.8379,0.8184,0.7985,0.7786,0.7534,0.7282,0.7086,0.6989,0.6792,0.6539,0.6337,0.6089,0.5789,0.5536,0.5422,0.5112,0.9819,0.9819,0.9819,0.9737,0.9591,0.9357,0.908,0.8716,0.8266,0.7826,0.7382,0.7102,0.6824,0.6495,0.6102,0.5708,0.5371,0.5093,0.4704,0.4314,0.4145,0.3923,0.3587,0.3477,0.3198,0.2973,0.2915,0.2859,0.2687,0.2626,0.2581,0.2607,0.2313,0.217,0.2019,0.2019,0.2078,0.2046,0.1977,0.1899,0.1916,0.2077,0.212,0.2101,0.2152,0.2134,0.2097,0.2096,0.2088,0.202,0.2035,0.2097,0.2097,0.2061,0.2114,0.2097,0.2096,0.2089,0.2021,0.2019,0.2019,0.2019,0.2121,0.2171,0.2019,0.217,0.2221,0.2222,0.2472,0.2624,0.2624,0.2876,0.3029,0.3029,0.3282,0.3383,0.3433,0.3633,0.3784,0.3835,0.4183,0.4485,0.4585,0.4985,0.5386,0.5839,0.6539,0.7188,0.7587,0.7686,0.764,0.764,0.7885,0.8081,0.8226,0.8329,0.8478,0.8627,0.8726,0.8726,0.8627,0.8482,0.8382,0.823,0.7932,0.7637,0.7637,0.7291,0.6989,0.6886,0.6639,0.6339,0.6087,0.5834,0.5404,0.9819,0.9819,0.9819,0.972,0.9534,0.9232,0.9039,0.8885,0.8654,0.8322,0.7826,0.7435,0.7157,0.6882,0.655,0.6158,0.5708,0.5539,0.5204,0.4702,0.4648,0.4424,0.4148,0.4092,0.3867,0.3417,0.3361,0.3191,0.2952,0.2852,0.2742,0.2631,0.2559,0.2472,0.2422,0.2422,0.2422,0.2424,0.2302,0.2231,0.2156,0.2368,0.2457,0.2478,0.2474,0.2457,0.2424,0.2422,0.2422,0.2422,0.2422,0.2422,0.2422,0.2422,0.2422,0.2422,0.2422,0.2422,0.2422,0.2422,0.2422,0.2422,0.2472,0.2522,0.2472,0.2522,0.2573,0.2522,0.2725,0.2876,0.2927,0.313,0.3282,0.3332,0.3534,0.3685,0.3736,0.3982,0.4183,0.4234,0.4634,0.4985,0.5183,0.5534,0.6034,0.6736,0.7291,0.7793,0.8134,0.8432,0.8485,0.8435,0.8581,0.8775,0.8878,0.8878,0.8928,0.8973,0.9027,0.9027,0.8977,0.8977,0.8878,0.8779,0.8482,0.8237,0.8134,0.7836,0.7537,0.7385,0.7138,0.6895,0.6637,0.6184,0.5687,0.9819,0.9819,0.9819,0.9659,0.9384,0.9089,0.8954,0.8885,0.8881,0.8712,0.8377,0.7826,0.7551,0.744,0.6937,0.6659,0.649,0.5989,0.5596,0.5316,0.4983,0.4706,0.4479,0.448,0.4424,0.4313,0.4033,0.3835,0.373,0.345,0.3153,0.28,0.2779,0.2675,0.2422,0.2422,0.2422,0.2422,0.2628,0.2632,0.2382,0.2383,0.2432,0.2428,0.2428,0.2426,0.2422,0.2422,0.2422,0.2422,0.2422,0.2422,0.2422,0.2422,0.2422,0.2422,0.2422,0.2422,0.2422,0.2422,0.2422,0.2422,0.2675,0.2775,0.2775,0.2978,0.3029,0.2876,0.3029,0.313,0.318,0.3433,0.3584,0.3584,0.3833,0.3984,0.4033,0.4435,0.4734,0.4734,0.5186,0.5687,0.6034,0.6284,0.6734,0.7537,0.7839,0.8184,0.8581,0.8882,0.9084,0.8985,0.8981,0.8928,0.9084,0.9187,0.9232,0.943,0.9525,0.9476,0.9426,0.9282,0.9137,0.9133,0.8931,0.873,0.863,0.8478,0.8184,0.7935,0.769,0.7444,0.7138,0.6686,0.6187,0.9819,0.9819,0.9819,0.9652,0.9357,0.9066,0.8937,0.8937,0.8937,0.8826,0.8712,0.8325,0.8045,0.7826,0.7382,0.716,0.6935,0.6546,0.6156,0.5933,0.5599,0.5264,0.5037,0.4815,0.465,0.4475,0.4273,0.4128,0.4086,0.3936,0.3727,0.349,0.3381,0.323,0.3079,0.2928,0.2876,0.2876,0.313,0.323,0.313,0.2978,0.2876,0.2876,0.2876,0.2876,0.2876,0.2876,0.2876,0.2876,0.2876,0.2876,0.2876,0.2876,0.2876,0.2876,0.2876,0.2876,0.2876,0.2876,0.2876,0.2876,0.313,0.3282,0.3282,0.3531,0.3632,0.353,0.3482,0.3482,0.3632,0.3783,0.3835,0.3885,0.4185,0.4483,0.4483,0.4935,0.5286,0.5284,0.5737,0.6134,0.6437,0.6986,0.7487,0.7988,0.8237,0.863,0.8981,0.9137,0.9236,0.9385,0.9327,0.9327,0.943,0.943,0.948,0.9579,0.9624,0.9624,0.9579,0.9529,0.943,0.9434,0.9232,0.908,0.9034,0.8829,0.8577,0.8382,0.8088,0.7743,0.749,0.7138,0.6789,0.9819,0.9808,0.9741,0.9574,0.9357,0.9062,0.8937,0.8937,0.8937,0.8937,0.8881,0.8709,0.8488,0.8211,0.7881,0.7549,0.7268,0.699,0.6659,0.6383,0.6047,0.5822,0.5654,0.5433,0.5208,0.4972,0.4737,0.4461,0.425,0.4132,0.4036,0.3939,0.3784,0.3734,0.3685,0.3484,0.343,0.3432,0.3635,0.3684,0.3685,0.3533,0.343,0.3432,0.343,0.343,0.3432,0.3432,0.343,0.3432,0.343,0.343,0.343,0.3432,0.343,0.343,0.3432,0.3432,0.343,0.343,0.3432,0.343,0.3583,0.3684,0.3734,0.3883,0.4083,0.4182,0.4036,0.3984,0.3984,0.4133,0.4234,0.4284,0.4684,0.5035,0.5033,0.5486,0.5837,0.5884,0.6284,0.6686,0.6886,0.7537,0.8137,0.8386,0.8684,0.9031,0.9232,0.9335,0.9381,0.9579,0.9575,0.9575,0.9624,0.9579,0.9624,0.9624,0.9624,0.9624,0.9624,0.9575,0.9575,0.9529,0.9385,0.9335,0.9282,0.913,0.8878,0.8726,0.8482,0.8141,0.7889,0.759,0.7441,0.9819,0.9781,0.952,0.9405,0.9354,0.9006,0.8937,0.8937,0.8937,0.8937,0.8937,0.8881,0.8881,0.8774,0.8269,0.7826,0.7549,0.7324,0.7046,0.6715,0.6439,0.6272,0.6272,0.6216,0.6216,0.5984,0.544,0.4828,0.4216,0.408,0.3986,0.4033,0.4033,0.4034,0.3984,0.3982,0.3934,0.3934,0.3982,0.4034,0.3984,0.3984,0.3982,0.4033,0.3982,0.3934,0.3934,0.3934,0.3934,0.3984,0.3934,0.3934,0.3934,0.3934,0.3934,0.3934,0.3934,0.3934,0.3934,0.3934,0.3932,0.3982,0.4034,0.4034,0.4085,0.4133,0.4334,0.4734,0.4734,0.4535,0.4284,0.4533,0.4734,0.4784,0.5236,0.5534,0.5586,0.6034,0.6337,0.6437,0.6836,0.7338,0.7839,0.8187,0.8584,0.8935,0.9137,0.9286,0.948,0.9579,0.9579,0.9579,0.9624,0.9624,0.9624,0.9624,0.9624,0.9624,0.9624,0.9624,0.9624,0.9624,0.9624,0.9624,0.9579,0.9529,0.9529,0.9377,0.9126,0.8928,0.8829,0.8581,0.8287,0.8141,0.7988,0.9819,0.9791,0.9503,0.9381,0.9347,0.901,0.8937,0.8937,0.8937,0.8937,0.8937,0.8937,0.8937,0.8881,0.866,0.8436,0.8156,0.7878,0.7546,0.7271,0.6993,0.6771,0.655,0.6383,0.6272,0.6248,0.5881,0.5483,0.5103,0.505,0.5035,0.4985,0.4836,0.4686,0.4485,0.4336,0.4237,0.4286,0.4435,0.4585,0.4738,0.4935,0.5035,0.4985,0.4334,0.3984,0.3984,0.3984,0.3984,0.3984,0.3984,0.3984,0.3984,0.3984,0.3984,0.3984,0.3984,0.4085,0.4237,0.4237,0.4334,0.4533,0.4686,0.4738,0.4788,0.4935,0.5135,0.5284,0.5336,0.5238,0.5288,0.5336,0.5334,0.5384,0.5784,0.6134,0.6187,0.6587,0.6886,0.6986,0.7388,0.7935,0.8382,0.8733,0.8985,0.9183,0.9331,0.948,0.9579,0.9624,0.9624,0.9624,0.9624,0.9624,0.9624,0.9624,0.9624,0.9624,0.9624,0.9624,0.9624,0.9624,0.9624,0.9624,0.9624,0.9628,0.9579,0.9529,0.9278,0.913,0.9031,0.8928,0.868,0.8535,0.8432,0.9819,0.9774,0.9503,0.9381,0.9347,0.901,0.8937,0.8937,0.8937,0.8937,0.8937,0.8937,0.8937,0.8937,0.8937,0.8823,0.8598,0.8318,0.7989,0.7715,0.7546,0.7324,0.7102,0.6829,0.6717,0.6684,0.6324,0.5947,0.5605,0.5584,0.5584,0.5536,0.5438,0.5236,0.5035,0.4887,0.4788,0.4839,0.4987,0.5135,0.534,0.5486,0.5584,0.5486,0.4885,0.4533,0.4533,0.4533,0.4535,0.4533,0.4533,0.4533,0.4533,0.4483,0.4533,0.4533,0.4533,0.4585,0.4736,0.4788,0.4887,0.5035,0.5186,0.534,0.5438,0.5639,0.5789,0.5937,0.5987,0.6089,0.6287,0.6237,0.6084,0.6037,0.6387,0.6637,0.6686,0.7138,0.7484,0.7733,0.8031,0.8432,0.8829,0.9034,0.9236,0.9335,0.948,0.9628,0.9624,0.9624,0.9624,0.9624,0.9624,0.9624,0.9624,0.9624,0.9624,0.9624,0.9624,0.9624,0.9624,0.9624,0.9624,0.9624,0.9624,0.9624,0.9624,0.9624,0.9529,0.9331,0.9282,0.9229,0.908,0.8931,0.8829,0.9819,0.9781,0.9503,0.9381,0.934,0.9066,0.8937,0.8937,0.8937,0.8937,0.8937,0.8937,0.8937,0.8937,0.8937,0.8881,0.8823,0.8598,0.8318,0.8045,0.7989,0.7934,0.7881,0.7604,0.747,0.7448,0.68,0.6152,0.5796,0.5734,0.5734,0.5636,0.5687,0.5636,0.5586,0.5536,0.5536,0.5536,0.5536,0.5584,0.5636,0.5687,0.5737,0.5687,0.5634,0.5636,0.5584,0.5534,0.5436,0.5486,0.5486,0.5534,0.5484,0.5486,0.5536,0.5486,0.5534,0.5584,0.5586,0.5586,0.5636,0.5687,0.5634,0.5839,0.6039,0.6089,0.6292,0.6642,0.6742,0.6892,0.7089,0.7138,0.6989,0.6892,0.7039,0.7188,0.7288,0.7686,0.8187,0.8581,0.873,0.8882,0.9137,0.9236,0.9335,0.9484,0.9579,0.9624,0.9624,0.9624,0.9624,0.9624,0.9624,0.9624,0.9624,0.9624,0.9624,0.9624,0.9624,0.9624,0.9624,0.9624,0.9624,0.9624,0.9624,0.9624,0.9624,0.9624,0.9624,0.948,0.9525,0.9476,0.9327,0.9179,0.908,0.9819,0.9785,0.9503,0.9381,0.9344,0.9062,0.8937,0.8937,0.8937,0.8937,0.8937,0.8937,0.8937,0.8937,0.8937,0.8937,0.8881,0.8823,0.8598,0.8377,0.8322,0.8211,0.8045,0.7934,0.7786,0.7573,0.7372,0.7038,0.6679,0.6487,0.6439,0.6389,0.6237,0.6037,0.5889,0.5889,0.5889,0.5889,0.5889,0.5937,0.6137,0.6339,0.6442,0.6439,0.6587,0.6686,0.6686,0.5987,0.5586,0.5634,0.5584,0.5584,0.5636,0.5789,0.5839,0.5889,0.6037,0.6239,0.6389,0.6389,0.6489,0.6637,0.6686,0.6739,0.6789,0.6839,0.6889,0.7089,0.7089,0.7238,0.7637,0.7739,0.7587,0.7138,0.749,0.7739,0.7839,0.823,0.863,0.8985,0.9084,0.9183,0.9381,0.948,0.948,0.9579,0.9624,0.9624,0.9624,0.9624,0.9624,0.9624,0.9624,0.9624,0.9624,0.9624,0.9624,0.9624,0.9624,0.9624,0.9624,0.9624,0.9624,0.9624,0.9624,0.9624,0.9624,0.9624,0.9624,0.9624,0.9575,0.9529,0.948,0.943,0.9278,0.9819,0.9788,0.9507,0.9381,0.9347,0.9066,0.8937,0.8937,0.8937,0.8937,0.8937,0.8937,0.8937,0.8937,0.8937,0.8937,0.8937,0.8937,0.8823,0.8654,0.8654,0.8546,0.8322,0.8211,0.7959,0.764,0.7598,0.7455,0.7197,0.7039,0.6939,0.6892,0.6789,0.6639,0.6439,0.6442,0.6442,0.6439,0.6439,0.6539,0.6686,0.6889,0.6942,0.6992,0.7141,0.7185,0.7138,0.6537,0.6187,0.6184,0.6187,0.6184,0.6187,0.6389,0.6439,0.6489,0.6589,0.6789,0.6942,0.6939,0.7042,0.7188,0.7285,0.7385,0.7487,0.7537,0.7683,0.7783,0.7832,0.7935,0.8237,0.8283,0.8131,0.7882,0.8084,0.8336,0.8489,0.8733,0.9027,0.9282,0.9331,0.9434,0.9529,0.9624,0.9624,0.9624,0.9624,0.9624,0.9624,0.9624,0.9624,0.9624,0.9624,0.9624,0.9624,0.9624,0.9624,0.9624,0.9624,0.9624,0.9624,0.9624,0.9624,0.9624,0.9624,0.9624,0.9624,0.9624,0.9624,0.9624,0.9624,0.9579,0.9579,0.9579,0.9476,0.9819,0.9785,0.9503,0.9381,0.9344,0.9066,0.8937,0.8937,0.8937,0.8937,0.8937,0.8937,0.8937,0.8937,0.8937,0.8937,0.8937,0.8937,0.8881,0.8881,0.8881,0.8826,0.8771,0.8598,0.8227,0.7787,0.77,0.7549,0.735,0.7238,0.7235,0.7188,0.7188,0.7188,0.7086,0.7188,0.7086,0.7086,0.7135,0.7138,0.7138,0.7238,0.7238,0.7238,0.7288,0.7335,0.7288,0.7188,0.7135,0.7188,0.7086,0.7036,0.7135,0.7188,0.7138,0.7138,0.7238,0.7288,0.7285,0.7437,0.7437,0.7484,0.7633,0.7783,0.8035,0.8184,0.8379,0.8577,0.8627,0.8726,0.8779,0.8779,0.8779,0.8825,0.8775,0.8882,0.9137,0.9236,0.9331,0.9529,0.9624,0.9624,0.9575,0.9624,0.9624,0.9624,0.9624,0.9624,0.9624,0.9624,0.9624,0.9624,0.9624,0.9624,0.9624,0.9624,0.9624,0.9624,0.9624,0.9624,0.9624,0.9624,0.9624,0.9624,0.9624,0.9624,0.9624,0.9624,0.9624,0.9624,0.9624,0.9624,0.9624,0.9624,0.9628,0.9819,0.9788,0.9503,0.9381,0.934,0.901,0.8937,0.8937,0.8937,0.8937,0.8937,0.8937,0.8937,0.8937,0.8937,0.8937,0.8937,0.8937,0.8937,0.8937,0.8937,0.8937,0.8881,0.8819,0.8618,0.8263,0.822,0.8072,0.7809,0.7596,0.749,0.749,0.7338,0.7235,0.7185,0.7235,0.7185,0.7185,0.7185,0.7235,0.7235,0.7391,0.749,0.7543,0.764,0.7739,0.7789,0.7789,0.759,0.7235,0.7185,0.7185,0.7235,0.7441,0.754,0.759,0.7885,0.8084,0.8081,0.823,0.8329,0.8379,0.8379,0.8524,0.8577,0.868,0.8726,0.8775,0.8775,0.8878,0.9031,0.9084,0.9183,0.9327,0.9179,0.9179,0.943,0.9529,0.9529,0.9575,0.9624,0.9624,0.9624,0.9624,0.9624,0.9624,0.9624,0.9624,0.9624,0.9624,0.9624,0.9624,0.9624,0.9624,0.9624,0.9624,0.9624,0.9624,0.9624,0.9624,0.9624,0.9624,0.9624,0.9624,0.9624,0.9624,0.9624,0.9624,0.9624,0.9624,0.9624,0.9624,0.9624,0.9624,0.9624,0.9819,0.9795,0.9503,0.9381,0.9344,0.9066,0.8937,0.8937,0.8937,0.8937,0.8937,0.8937,0.8937,0.8937,0.8937,0.8937,0.8937,0.8937,0.8937,0.8937,0.8937,0.8937,0.8881,0.8878,0.8811,0.8594,0.8513,0.8353,0.811,0.7879,0.7796,0.7739,0.759,0.7537,0.7587,0.7537,0.7537,0.7537,0.7537,0.7537,0.7537,0.769,0.7739,0.7793,0.7942,0.7988,0.7988,0.7988,0.7839,0.7587,0.7537,0.7537,0.754,0.7789,0.7942,0.7942,0.8336,0.8577,0.8581,0.8726,0.8775,0.8825,0.8878,0.8981,0.8981,0.9076,0.9126,0.9175,0.9122,0.9225,0.9331,0.9381,0.943,0.9525,0.943,0.943,0.9575,0.9624,0.9624,0.9624,0.9624,0.9624,0.9624,0.9624,0.9624,0.9624,0.9624,0.9624,0.9624,0.9624,0.9624,0.9624,0.9624,0.9624,0.9624,0.9624,0.9624,0.9624,0.9624,0.9624,0.9624,0.9624,0.9624,0.9624,0.9624,0.9624,0.9624,0.9624,0.9624,0.9624,0.9624,0.9624,0.9624,0.9624,0.9624,0.9812,0.9774,0.9496,0.9371,0.931,0.9062,0.8937,0.8937,0.8937,0.8937,0.8937,0.8937,0.8937,0.8937,0.8937,0.8937,0.8937,0.8937,0.8937,0.8937,0.8937,0.8937,0.8937,0.8937,0.8845,0.8686,0.8554,0.8404,0.8245,0.8059,0.7995,0.7939,0.7939,0.7988,0.7889,0.7942,0.7988,0.7939,0.7889,0.7889,0.7889,0.7939,0.7939,0.7939,0.7939,0.7988,0.7988,0.7988,0.7988,0.7988,0.7988,0.7988,0.8038,0.8283,0.8382,0.8435,0.868,0.8829,0.8878,0.8878,0.8928,0.8977,0.9133,0.9236,0.9282,0.9377,0.9525,0.9525,0.9624,0.9529,0.9579,0.9579,0.9579,0.9575,0.9579,0.9628,0.9624,0.9624,0.9624,0.9624,0.9624,0.9624,0.9624,0.9624,0.9624,0.9624,0.9624,0.9624,0.9624,0.9624,0.9624,0.9624,0.9624,0.9624,0.9624,0.9624,0.9624,0.9624,0.9624,0.9624,0.9624,0.9624,0.9624,0.9624,0.9624,0.9624,0.9624,0.9624,0.9624,0.9624,0.9624,0.9624,0.9624,0.9624,0.9624,0.9758,0.9642,0.9456,0.9371,0.9184,0.9015,0.8937,0.8937,0.8937,0.8937,0.8937,0.8937,0.8937,0.8937,0.8937,0.8937,0.8937,0.8937,0.8937,0.8937,0.8937,0.8937,0.8937,0.8937,0.8801,0.8713,0.8557,0.8411,0.8269,0.8133,0.7988,0.7988,0.7988,0.7988,0.7988,0.7988,0.7988,0.7988,0.7988,0.7988,0.7988,0.7988,0.7988,0.7988,0.7988,0.7988,0.7988,0.7988,0.7988,0.7988,0.8038,0.8084,0.8283,0.8382,0.8531,0.873,0.8931,0.9133,0.9133,0.9278,0.9426,0.9377,0.9426,0.9529,0.9529,0.9575,0.9624,0.9624,0.9624,0.9624,0.9624,0.9624,0.9624,0.9624,0.9624,0.9624,0.9624,0.9624,0.9624,0.9624,0.9624,0.9624,0.9624,0.9624,0.9624,0.9624,0.9624,0.9624,0.9624,0.9624,0.9624,0.9624,0.9624,0.9624,0.9624,0.9616,0.96,0.9571,0.9567,0.9571,0.9571,0.9592,0.9579,0.96,0.9624,0.9624,0.9624,0.9624,0.9624,0.9624,0.9624,0.9624,0.9624,0.9624,0.9624,0.9737,0.9598,0.9445,0.9293,0.92,0.9005,0.8937,0.8937,0.8937,0.8937,0.8937,0.8937,0.8937,0.8937,0.8937,0.8937,0.8937,0.8937,0.8937,0.8937,0.8937,0.8937,0.8937,0.8881,0.8828,0.873,0.8581,0.8442,0.8333,0.816,0.7988,0.7988,0.7988,0.7988,0.7988,0.7988,0.7988,0.7988,0.7988,0.7988,0.7988,0.7988,0.7988,0.7988,0.7988,0.7988,0.7988,0.7988,0.7988,0.8038,0.8137,0.8237,0.8432,0.8634,0.8832,0.8981,0.9229,0.9381,0.9434,0.9529,0.9575,0.9624,0.9624,0.9624,0.9624,0.9624,0.9624,0.9624,0.9624,0.9624,0.9624,0.9624,0.9624,0.9624,0.9624,0.9624,0.9624,0.9624,0.9624,0.9624,0.9624,0.9624,0.9624,0.9624,0.9624,0.9624,0.9624,0.9624,0.9624,0.9624,0.9624,0.9624,0.9624,0.9624,0.9624,0.9608,0.9563,0.9514,0.9458,0.9506,0.9506,0.949,0.9518,0.9567,0.9624,0.9624,0.9624,0.9624,0.9624,0.9624,0.9624,0.9624,0.9624,0.9624,0.9624,0.9724,0.9564,0.9435,0.934,0.9113,0.8991,0.8937,0.8937,0.8937,0.8937,0.8937,0.8937,0.8937,0.8937,0.8937,0.8937,0.8937,0.8937,0.8937,0.8937,0.8937,0.8937,0.8937,0.8881,0.8875,0.8848,0.8628,0.8482,0.8394,0.8204,0.7995,0.7988,0.7988,0.7988,0.7988,0.7988,0.7988,0.7988,0.7988,0.7988,0.7988,0.7988,0.7988,0.7988,0.7988,0.7988,0.7988,0.7988,0.8038,0.8091,0.8333,0.8482,0.8634,0.8886,0.9236,0.9236,0.943,0.9529,0.9579,0.9579,0.9624,0.9624,0.9624,0.9624,0.9624,0.9624,0.9624,0.9624,0.9624,0.9624,0.9624,0.9624,0.9624,0.9624,0.9624,0.9624,0.9624,0.9624,0.9624,0.9624,0.9624,0.9624,0.9624,0.9624,0.9624,0.9624,0.9624,0.9624,0.9624,0.9624,0.9624,0.9624,0.9624,0.9624,0.9624,0.9535,0.9502,0.9433,0.9408,0.9371,0.938,0.9445,0.9458,0.9575,0.9624,0.9624,0.9624,0.9624,0.9624,0.9624,0.9624,0.9624,0.9624,0.9624,0.9624,0.9666,0.9418,0.9395,0.9225,0.8991,0.8892,0.8937,0.8937,0.8937,0.8937,0.8937,0.8937,0.8937,0.8937,0.8937,0.8937,0.8937,0.8937,0.8937,0.8937,0.8937,0.8937,0.8937,0.8937,0.8937,0.8801,0.8638,0.8538,0.8414,0.8201,0.8002,0.7988,0.7988,0.7988,0.7988,0.7988,0.7988,0.7988,0.7988,0.7988,0.7988,0.7988,0.7988,0.7988,0.7988,0.7988,0.7988,0.7988,0.8088,0.8336,0.8577,0.8829,0.8985,0.9137,0.9335,0.948,0.9529,0.9624,0.9624,0.9624,0.9624,0.9624,0.9624,0.9624,0.9624,0.9624,0.9624,0.9624,0.9624,0.9624,0.9624,0.9624,0.9624,0.9624,0.9624,0.9624,0.9624,0.9624,0.9624,0.9624,0.9624,0.9624,0.9624,0.9624,0.9624,0.9624,0.9624,0.9624,0.9624,0.9624,0.9624,0.9624,0.9624,0.9624,0.9624,0.9498,0.9457,0.9336,0.9259,0.9165,0.9245,0.9347,0.9445,0.9502,0.9592,0.9624,0.9624,0.9624,0.9624,0.9624,0.9624,0.9624,0.9624,0.9624,0.9624,0.9581,0.9374,0.9354,0.914,0.8905,0.8937,0.8937,0.8937,0.8937,0.8937,0.8937,0.8937,0.8937,0.8937,0.8937,0.8937,0.8937,0.8937,0.8937,0.8937,0.8937,0.8937,0.8937,0.8937,0.8937,0.8855,0.8642,0.8538,0.8504,0.8184,0.8005,0.7988,0.7988,0.7988,0.7988,0.7988,0.7988,0.7988,0.7988,0.7988,0.7988,0.7988,0.7988,0.7988,0.7988,0.7988,0.7988,0.7988,0.8137,0.8386,0.868,0.8931,0.9133,0.9331,0.9484,0.9579,0.9624,0.9624,0.9624,0.9624,0.9624,0.9624,0.9624,0.9624,0.9624,0.9624,0.9624,0.9624,0.9624,0.9624,0.9624,0.9624,0.9624,0.9624,0.9624,0.9624,0.9624,0.9624,0.9624,0.9624,0.9624,0.9624,0.9624,0.9624,0.9624,0.9624,0.9624,0.9624,0.9624,0.9624,0.9624,0.9624,0.9624,0.9624,0.9612,0.951,0.942,0.9331,0.919,0.9096,0.9056,0.9153,0.9331,0.9409,0.9494,0.9616,0.9624,0.9624,0.9624,0.9624,0.9624,0.9624,0.9624,0.9624,0.9624,0.9503,0.9323,0.9262,0.9069,0.895,0.8937,0.8937,0.8937,0.8937,0.8937,0.8937,0.8937,0.8937,0.8937,0.8937,0.8937,0.8937,0.8937,0.8937,0.8937,0.8937,0.8937,0.8937,0.8937,0.8937,0.8841,0.8689,0.8516,0.8428,0.8184,0.8008,0.7988,0.7988,0.7988,0.7988,0.7988,0.7988,0.7988,0.7988,0.7988,0.7988,0.7988,0.7988,0.7988,0.7988,0.7988,0.7988,0.7988,0.8184,0.8432,0.8726,0.8924,0.9282,0.948,0.9575,0.9624,0.9624,0.9624,0.9624,0.9624,0.9624,0.9624,0.9624,0.9624,0.9624,0.9624,0.9624,0.9624,0.9624,0.9624,0.9624,0.9624,0.9624,0.9624,0.9624,0.9624,0.9624,0.9624,0.9624,0.9624,0.9624,0.9624,0.9624,0.9624,0.9624,0.9624,0.9624,0.9624,0.9624,0.9624,0.9624,0.9624,0.9624,0.9624,0.96,0.9547,0.9409,0.9331,0.9185,0.9088,0.9027,0.9007,0.9173,0.9376,0.9518,0.9624,0.9624,0.9624,0.9624,0.9624,0.9624,0.9624,0.9624,0.9624,0.9624,0.9442,0.9234,0.9217,0.9069,0.8895,0.8937,0.8937,0.8937,0.8937,0.8937,0.8937,0.8937,0.8937,0.8937,0.8937,0.8937,0.8937,0.8937,0.8937,0.8937,0.8937,0.8937,0.8937,0.8937,0.8937,0.8851,0.8757,0.8615,0.8455,0.8191,0.7998,0.7992,0.7988,0.7988,0.7988,0.7988,0.7988,0.7988,0.7988,0.7988,0.7988,0.7988,0.7988,0.7988,0.7988,0.7988,0.7988,0.8038,0.8233,0.8676,0.8775,0.9076,0.948,0.9575,0.9624,0.9624,0.9624,0.9624,0.9624,0.9624,0.9624,0.9624,0.9624,0.9624,0.9624,0.9624,0.9624,0.9624,0.9624,0.9624,0.9624,0.9624,0.9624,0.9624,0.9624,0.9624,0.9624,0.9624,0.9624,0.9624,0.9624,0.9624,0.9624,0.9624,0.9624,0.9624,0.9624,0.9624,0.9624,0.9624,0.9624,0.9624,0.9624,0.9624,0.9616,0.9559,0.9453,0.9359,0.9269,0.9116,0.906,0.9051,0.9202,0.9388,0.9522,0.9616,0.9624,0.9624,0.9624,0.9624,0.9624,0.9624,0.9624,0.9624,0.9624,0.933,0.9204,0.9066,0.8998,0.8885,0.8937,0.8937,0.8937,0.8937,0.8937,0.8937,0.8937,0.8937,0.8937,0.8937,0.8937,0.8937,0.8937,0.8937,0.8937,0.8937,0.8937,0.8937,0.8937,0.8937,0.8899,0.8784,0.8621,0.8455,0.8289,0.814,0.7992,0.7988,0.7988,0.7988,0.7988,0.7988,0.7988,0.7988,0.7988,0.7988,0.7988,0.7988,0.7988,0.7988,0.7988,0.8038,0.8187,0.8382,0.8779,0.8928,0.9229,0.9525,0.9624,0.9624,0.9624,0.9624,0.9624,0.9624,0.9624,0.9624,0.9624,0.9624,0.9624,0.9624,0.9624,0.9624,0.9624,0.9624,0.9624,0.9624,0.9624,0.9624,0.9624,0.9624,0.9624,0.9624,0.9624,0.9624,0.9624,0.9624,0.9624,0.9624,0.9624,0.9624,0.9624,0.9624,0.9624,0.9624,0.9624,0.9624,0.9624,0.9624,0.9624,0.962,0.9587,0.9502,0.9437,0.9388,0.9282,0.9133,0.9157,0.9299,0.9404,0.9421,0.9506,0.9592,0.9624,0.9624,0.9624,0.9624,0.9624,0.9624,0.9624,0.9624,0.91,0.9086,0.8981,0.8937,0.8937,0.8937,0.8937,0.8937,0.8937,0.8937,0.8937,0.8937,0.8937,0.8937,0.8937,0.8937,0.8937,0.8937,0.8937,0.8937,0.8937,0.8937,0.8937,0.8937,0.8937,0.8937,0.8849,0.8676,0.8503,0.8364,0.8228,0.8002,0.7988,0.7988,0.7988,0.7988,0.7988,0.7988,0.7988,0.7988,0.7988,0.7988,0.7988,0.7988,0.7988,0.7988,0.8038,0.8237,0.8531,0.8779,0.9034,0.9282,0.9529,0.9624,0.9624,0.9624,0.9624,0.9624,0.9624,0.9624,0.9624,0.9624,0.9624,0.9624,0.9624,0.9624,0.9624,0.9624,0.9624,0.9624,0.9624,0.9624,0.9624,0.9624,0.9624,0.9624,0.9624,0.9624,0.9624,0.9624,0.9624,0.9624,0.9624,0.9624,0.9624,0.9624,0.9624,0.9624,0.9624,0.9624,0.9624,0.9624,0.9624,0.9624,0.962,0.9592,0.951,0.9522,0.9473,0.9441,0.9315,0.9299,0.9388,0.9405,0.9405,0.9486,0.9571,0.9624,0.9624,0.9624,0.9624,0.9624,0.9624,0.9624,0.9624,0.8954,0.8895,0.8944,0.8937,0.8937,0.8937,0.8937,0.8937,0.8937,0.8937,0.8937,0.8937,0.8937,0.8937,0.8937,0.8937,0.8937,0.8937,0.8937,0.8937,0.8937,0.8937,0.8937,0.8937,0.8937,0.8937,0.8889,0.8737,0.8547,0.8465,0.8282,0.8032,0.8002,0.7992,0.7988,0.7988,0.7988,0.7988,0.7988,0.7988,0.7988,0.7988,0.7988,0.7988,0.7988,0.7988,0.8038,0.8283,0.8531,0.8825,0.908,0.9335,0.9529,0.9628,0.9624,0.9624,0.9624,0.9624,0.9624,0.9624,0.9624,0.9624,0.9624,0.9624,0.9624,0.9624,0.9624,0.9624,0.9624,0.9624,0.9624,0.9624,0.9624,0.9624,0.9624,0.9624,0.9624,0.9624,0.9624,0.9624,0.9624,0.9624,0.9624,0.9624,0.9624,0.9624,0.9624,0.9624,0.9624,0.9624,0.9624,0.9624,0.9624,0.9624,0.9624,0.9592,0.9563,0.9559,0.9535,0.9551,0.9547,0.9547,0.949,0.9518,0.9535,0.9587,0.9571,0.9624,0.9624,0.9624,0.9624,0.9624,0.9624,0.9624,0.9624,0.8937,0.8937,0.8937,0.8937,0.8937,0.8937,0.8937,0.8937,0.8937,0.8937,0.8937,0.8937,0.8937,0.8937,0.8937,0.8937,0.8937,0.8937,0.8937,0.8937,0.8937,0.8937,0.8937,0.8937,0.8937,0.8937,0.8871,0.879,0.8645,0.853,0.8377,0.8218,0.8035,0.7995,0.7988,0.7988,0.7988,0.7988,0.7988,0.7988,0.7988,0.7988,0.7988,0.7988,0.7988,0.7988,0.8038,0.8432,0.8627,0.8874,0.9229,0.943,0.9579,0.9628,0.9624,0.9624,0.9624,0.9624,0.9624,0.9624,0.9624,0.9624,0.9624,0.9624,0.9624,0.9624,0.9624,0.9624,0.9624,0.9624,0.9624,0.9624,0.9624,0.9624,0.9624,0.9624,0.9624,0.9624,0.9624,0.9624,0.9624,0.9624,0.9624,0.9624,0.9624,0.9624,0.9624,0.9624,0.9624,0.9624,0.9624,0.9624,0.9624,0.9624,0.9624,0.9624,0.9624,0.9624,0.9624,0.9624,0.9624,0.962,0.9583,0.962,0.9624,0.9624,0.9624,0.9624,0.9624,0.9624,0.9624,0.9624,0.9624,0.9624,0.9624,0.8937,0.8937,0.8937,0.8937,0.8937,0.8937,0.8937,0.8937,0.8937,0.8937,0.8937,0.8937,0.8937,0.8937,0.8937,0.8937,0.8937,0.8937,0.8937,0.8937,0.8937,0.8937,0.8937,0.8937,0.8937,0.8937,0.8871,0.8797,0.8693,0.8554,0.8404,0.8255,0.8126,0.8005,0.7988,0.7988,0.7988,0.7988,0.7988,0.7988,0.7988,0.7988,0.7988,0.7988,0.7988,0.7988,0.8137,0.8482,0.8726,0.8973,0.9225,0.9575,0.9624,0.9624,0.9624,0.9624,0.9624,0.9624,0.9624,0.9624,0.9624,0.9624,0.9624,0.9624,0.9624,0.9624,0.9624,0.9624,0.9624,0.9624,0.9624,0.9624,0.9624,0.9624,0.9624,0.9624,0.9624,0.9624,0.9624,0.9624,0.9624,0.9624,0.9624,0.9624,0.9624,0.9624,0.9624,0.9624,0.9624,0.9624,0.9624,0.9624,0.9624,0.9624,0.9624,0.9624,0.9624,0.9624,0.9624,0.9624,0.9624,0.9624,0.9624,0.9624,0.9624,0.9624,0.9624,0.9624,0.9624,0.9624,0.9624,0.9624,0.9624,0.9624,0.9624,0.8937,0.8937,0.8937,0.8937,0.8937,0.8937,0.8937,0.8937,0.8937,0.8937,0.8937,0.8937,0.8937,0.8937,0.8937,0.8937,0.8937,0.8937,0.8937,0.8937,0.8937,0.8937,0.8937,0.8937,0.8937,0.8937,0.8875,0.8811,0.873,0.856,0.8414,0.8279,0.8093,0.7988,0.7988,0.7988,0.7988,0.7988,0.7988,0.7988,0.7988,0.7988,0.7988,0.7988,0.7988,0.7988,0.8137,0.8528,0.8775,0.8874,0.9327,0.9579,0.9624,0.9624,0.9624,0.9624,0.9624,0.9624,0.9624,0.9624,0.9624,0.9624,0.9624,0.9624,0.9624,0.9624,0.9624,0.9624,0.9624,0.9624,0.9624,0.9624,0.9624,0.9624,0.9624,0.9624,0.9624,0.9624,0.9624,0.9624,0.9624,0.9624,0.9624,0.9624,0.9624,0.9624,0.9624,0.9624,0.9624,0.9624,0.9624,0.9624,0.9624,0.9624,0.9624,0.9624,0.9624,0.9624,0.9624,0.9624,0.9624,0.9624,0.9624,0.9624,0.9624,0.9624,0.9624,0.9624,0.9624,0.9624,0.9624,0.9624,0.9624,0.9624,0.9624,0.8937,0.8937,0.8937,0.8937,0.8937,0.8937,0.8937,0.8937,0.8937,0.8937,0.8937,0.8937,0.8937,0.8937,0.8937,0.8937,0.8937,0.8937,0.8937,0.8937,0.8937,0.8937,0.8937,0.8937,0.8937,0.8937,0.8878,0.8868,0.8862,0.8628,0.8489,0.8367,0.811,0.8002,0.7988,0.7988,0.7988,0.7988,0.7988,0.7988,0.7988,0.7988,0.7988,0.7988,0.7988,0.7988,0.8038,0.8528,0.8775,0.8878,0.9331,0.9579,0.9624,0.9624,0.9624,0.9624,0.9624,0.9624,0.9624,0.9624,0.9624,0.9624,0.9624,0.9624,0.9624,0.9624,0.9624,0.9624,0.9624,0.9624,0.9624,0.9624,0.9624,0.9624,0.9624,0.9624,0.9624,0.9624,0.9624,0.9624,0.9624,0.9624,0.9624,0.9624,0.9624,0.9624,0.9624,0.9624,0.9624,0.9624,0.9624,0.9624,0.9624,0.9624,0.9624,0.9624,0.9624,0.9624,0.9624,0.9624,0.9624,0.9624,0.9624,0.9624,0.9624,0.9624,0.9624,0.9624,0.9624,0.9624,0.9624,0.9624,0.9624,0.9624,0.9624,0.8995,0.8937,0.8937,0.8937,0.8937,0.8937,0.8937,0.8937,0.8937,0.8937,0.8937,0.8937,0.8937,0.8937,0.8937,0.8937,0.8937,0.8937,0.8937,0.8937,0.8937,0.8937,0.8937,0.8937,0.8937,0.8937,0.8937,0.893,0.8858,0.8682,0.8506,0.835,0.8116,0.8015,0.7988,0.7988,0.7988,0.7988,0.7988,0.7988,0.7988,0.7988,0.7988,0.7988,0.7988,0.8041,0.8237,0.8482,0.8829,0.9031,0.9278,0.9628,0.9624,0.9624,0.9624,0.9624,0.9624,0.9624,0.9624,0.9624,0.9624,0.9624,0.9624,0.9624,0.9624,0.9624,0.9624,0.9624,0.9624,0.9624,0.9624,0.9624,0.9624,0.9624,0.9624,0.9624,0.9624,0.9624,0.9624,0.9624,0.9624,0.9624,0.9624,0.9624,0.9624,0.9624,0.9624,0.9624,0.9624,0.9624,0.9624,0.9624,0.9624,0.9624,0.9624,0.9624,0.9624,0.9624,0.9624,0.9624,0.9624,0.9624,0.9624,0.9624,0.9624,0.9624,0.9624,0.9624,0.9624,0.9624,0.9624,0.9624,0.9624,0.9624,0.9624,0.9213,0.8937,0.8937,0.8937,0.8937,0.8937,0.8937,0.8937,0.8937,0.8937,0.8937,0.8937,0.8937,0.8937,0.8937,0.8937,0.8937,0.8937,0.8937,0.8937,0.8937,0.8937,0.8937,0.8937,0.8937,0.8937,0.8937,0.8881,0.8865,0.871,0.8503,0.8309,0.813,0.8008,0.7988,0.7988,0.7988,0.7988,0.7988,0.7988,0.7988,0.7988,0.7988,0.7988,0.7988,0.8137,0.8333,0.8627,0.8931,0.9183,0.943,0.9579,0.9624,0.9624,0.9624,0.9624,0.9624,0.9624,0.9624,0.9624,0.9624,0.9624,0.9624,0.9624,0.9624,0.9624,0.9624,0.9624,0.9624,0.9624,0.9624,0.9624,0.9624,0.9624,0.9624,0.9624,0.9624,0.9624,0.9624,0.9624,0.9624,0.9624,0.9624,0.9624,0.9624,0.9624,0.9624,0.9624,0.9624,0.9624,0.9624,0.9624,0.9624,0.9624,0.9624,0.9624,0.9624,0.9624,0.9624,0.9624,0.9624,0.9624,0.9624,0.9624,0.9624,0.9624,0.9624,0.9624,0.9624,0.9624,0.9624,0.9624,0.9624,0.9624,0.9624,0.9485,0.9272,0.9268,0.9158,0.8937,0.8937,0.8937,0.8937,0.8937,0.8937,0.8937,0.8937,0.8937,0.8937,0.8937,0.8937,0.8937,0.8937,0.8937,0.8937,0.8937,0.8937,0.8937,0.8937,0.8937,0.8937,0.8937,0.8933,0.8879,0.8703,0.8482,0.8327,0.8119,0.8008,0.7988,0.7988,0.7988,0.7988,0.7988,0.7988,0.7988,0.7988,0.7988,0.7988,0.8038,0.8187,0.8432,0.8676,0.8981,0.9183,0.948,0.9575,0.9624,0.9624,0.9624,0.9624,0.9624,0.9624,0.9624,0.9624,0.9624,0.9624,0.9624,0.9624,0.9624,0.9624,0.9624,0.9624,0.9624,0.9624,0.9624,0.9624,0.9624,0.9624,0.9624,0.9624,0.9624,0.9624,0.9624,0.9624,0.9624,0.9624,0.9624,0.9624,0.9624,0.9624,0.9624,0.9624,0.9624,0.9624,0.9624,0.9624,0.9624,0.9624,0.9624,0.9624,0.9624,0.9624,0.9624,0.9624,0.9624,0.9624,0.9624,0.9624,0.9624,0.9624,0.9624,0.9624,0.9624,0.9624,0.9624,0.9624,0.9628,0.9673,0.9723,0.9816,0.9544,0.9434,0.9213,0.8937,0.8937,0.8937,0.8937,0.8937,0.8937,0.8937,0.8937,0.8937,0.8937,0.8937,0.8937,0.8937,0.8937,0.8937,0.8937,0.8937,0.8937,0.8937,0.8937,0.8937,0.8937,0.8937,0.8937,0.8862,0.8655,0.8421,0.8405,0.816,0.8012,0.7988,0.7988,0.7988,0.7988,0.7988,0.7988,0.7988,0.7988,0.7988,0.8038,0.8041,0.8287,0.8531,0.8829,0.908,0.9282,0.9525,0.9575,0.9624,0.9624,0.9624,0.9624,0.9624,0.9624,0.9624,0.9624,0.9624,0.9624,0.9624,0.9624,0.9624,0.9624,0.9624,0.9624,0.9624,0.9624,0.9624,0.9624,0.9624,0.9624,0.9624,0.9624,0.9624,0.9624,0.9624,0.9624,0.9624,0.9624,0.9624,0.9624,0.9624,0.9624,0.9624,0.9624,0.9624,0.9624,0.9624,0.9624,0.9624,0.9624,0.9624,0.9624,0.9624,0.9624,0.9624,0.9624,0.9624,0.9624,0.9624,0.9624,0.9624,0.9624,0.9624,0.9624,0.9624,0.9624,0.9628,0.9677,0.9727,0.9826,0.992,1.0143,0.9816,0.9544,0.9268,0.8937,0.8995,0.8937,0.8937,0.8937,0.8937,0.8937,0.8937,0.8937,0.8937,0.8937,0.8937,0.8937,0.8937,0.8937,0.8937,0.8937,0.8937,0.8937,0.8937,0.8937,0.8937,0.8937,0.8933,0.8859,0.8682,0.852,0.8469,0.8214,0.8029,0.7995,0.7988,0.7988,0.7988,0.7988,0.7988,0.7988,0.7988,0.7988,0.8041,0.8237,0.8531,0.8779,0.9031,0.9335,0.948,0.9575,0.9624,0.9624,0.9624,0.9624,0.9624,0.9624,0.9624,0.9624,0.9624,0.9624,0.9624,0.9624,0.9624,0.9624,0.9624,0.9624,0.9624,0.9624,0.9624,0.9624,0.9624,0.9624,0.9624,0.9624,0.9624,0.9624,0.9624,0.9624,0.9624,0.9624,0.9624,0.9624,0.9624,0.9624,0.9624,0.9624,0.9624,0.9624,0.9624,0.9624,0.9624,0.9624,0.9624,0.9624,0.9624,0.9624,0.9624,0.9624,0.9624,0.9624,0.9624,0.9624,0.9624,0.9624,0.9624,0.9624,0.9624,0.9624,0.9624,0.9677,0.9776,0.9875,0.9974,1.0167,1.0633,1.0147,0.9816,0.9544,0.9268,0.9272,0.9103,0.8937,0.8937,0.8937,0.8937,0.8937,0.8937,0.8937,0.8937,0.8937,0.8937,0.8937,0.8937,0.8937,0.8937,0.8937,0.8937,0.8937,0.8937,0.8937,0.8937,0.8933,0.8889,0.8743,0.8581,0.8472,0.8269,0.8153,0.7995,0.7988,0.7988,0.7988,0.7988,0.8038,0.8041,0.7988,0.7988,0.8088,0.8287,0.8581,0.8829,0.908,0.9331,0.9529,0.9579,0.9624,0.9624,0.9624,0.9624,0.9624,0.9624,0.9624,0.9624,0.9624,0.9624,0.9624,0.9624,0.9624,0.9624,0.9624,0.9624,0.9624,0.9624,0.9624,0.9624,0.9624,0.9624,0.9624,0.9624,0.9624,0.9624,0.9624,0.9624,0.9624,0.9624,0.9624,0.9624,0.9624,0.9624,0.9624,0.9624,0.9624,0.9624,0.9624,0.9624,0.9624,0.9624,0.9624,0.9624,0.9624,0.9624,0.9624,0.9624,0.9624,0.9624,0.9624,0.9624,0.9624,0.9624,0.9624,0.9624,0.9624,0.9624,0.9677,0.9772,0.992,1.0117,1.0314,1.0511,1.1076,1.0637,1.0198,0.9871,0.9596,0.9434,0.9268,0.9103,0.8992,0.8937,0.8937,0.8937,0.8937,0.8937,0.8937,0.8937,0.8937,0.8937,0.8937,0.8937,0.8937,0.8937,0.8937,0.8937,0.8937,0.8937,0.8937,0.893,0.8913,0.8781,0.8625,0.8482,0.834,0.8197,0.8012,0.7988,0.7988,0.7988,0.7988,0.8088,0.8141,0.8088,0.8088,0.8187,0.8432,0.868,0.8977,0.9229,0.9426,0.9579,0.9628,0.9624,0.9624,0.9624,0.9624,0.9624,0.9624,0.9624,0.9624,0.9624,0.9624,0.9624,0.9624,0.9624,0.9624,0.9624,0.9624,0.9624,0.9624,0.9624,0.9624,0.9624,0.9624,0.9624,0.9624,0.9624,0.9624,0.9624,0.9624,0.9624,0.9624,0.9624,0.9624,0.9624,0.9624,0.9624,0.9624,0.9624,0.9624,0.9624,0.9624,0.9624,0.9624,0.9624,0.9624,0.9624,0.9624,0.9624,0.9624,0.9624,0.9624,0.9624,0.9624,0.9624,0.9624,0.9624,0.9624,0.9624,0.9727,0.9826,0.992,1.0068,1.0314,1.056,1.0752,1.1459,1.1076,1.0582,1.0202,0.9868,0.9596,0.9489,0.9379,0.9103,0.8937,0.8937,0.8937,0.8937,0.8937,0.8937,0.8937,0.8937,0.8937,0.8937,0.8937,0.8937,0.8937,0.8937,0.8937,0.8937,0.8937,0.8937,0.8937,0.8933,0.8784,0.8632,0.8482,0.8336,0.8194,0.8085,0.7988,0.8038,0.8088,0.8137,0.8237,0.8237,0.8187,0.8283,0.8428,0.868,0.8931,0.9183,0.943,0.9575,0.9575,0.9624,0.9624,0.9624,0.9624,0.9624,0.9624,0.9624,0.9624,0.9624,0.9624,0.9624,0.9624,0.9624,0.9624,0.9624,0.9624,0.9624,0.9624,0.9624,0.9624,0.9624,0.9624,0.9624,0.9624,0.9624,0.9624,0.9624,0.9624,0.9624,0.9624,0.9624,0.9624,0.9624,0.9624,0.9624,0.9624,0.9624,0.9624,0.9624,0.9624,0.9624,0.9624,0.9624,0.9624,0.9624,0.9624,0.9624,0.9624,0.9624,0.9624,0.9624,0.9624,0.9624,0.9624,0.9624,0.9628,0.9673,0.9673,0.9772,0.9974,1.0216,1.0364,1.0556,1.0752,1.0949,1.1787,1.1076,1.0966,1.0637,1.0257,1.0147,0.9871,0.9434,0.9379,0.9158,0.8992,0.8937,0.8937,0.8937,0.8937,0.8937,0.8937,0.8937,0.8937,0.8937,0.8937,0.8937,0.8937,0.8937,0.8937,0.8937,0.8937,0.8937,0.8861,0.8784,0.8632,0.8482,0.834,0.8201,0.8065,0.8038,0.8137,0.8237,0.8382,0.8432,0.8581,0.8531,0.8528,0.873,0.8981,0.9084,0.9236,0.948,0.9579,0.9624,0.9624,0.9624,0.9624,0.9624,0.9624,0.9624,0.9624,0.9624,0.9624,0.9624,0.9624,0.9624,0.9624,0.9624,0.9624,0.9624,0.9624,0.9624,0.9624,0.9624,0.9624,0.9624,0.9624,0.9624,0.9624,0.9624,0.9624,0.9624,0.9624,0.9624,0.9624,0.9624,0.9624,0.9624,0.9624,0.9624,0.9624,0.9624,0.9624,0.9624,0.9624,0.9624,0.9624,0.9624,0.9624,0.9624,0.9624,0.9624,0.9624,0.9624,0.9624,0.9624,0.9624,0.9624,0.9628,0.9628,0.9673,0.9821,0.9969,1.0167,1.0511,1.0708,1.0855,1.0949,1.1047]}]]